[[{"header":{"parameterUnit":"m.s-1","parameterCategory":1,"la1":31.0,"la2":29.5877,"lo1":-88.7671,"lo2":-86.6584,"dy":0.0162,"dx":0.0185,"nx":115,"ny":88,"refTime":"2024-09-10T12:00:00:Z","depth":0,"parameterNumber":2,"parameterNumberName":"U-component_of_WINDS"},"data":[0.0,0.0,0.0,0.0,0.0,0.0,0.0,0.0,0.0,0.0,0.0,0.0,0.0,0.0,0.0,0.0,0.0,0.0,0.0,0.0,0.0,0.0,0.0,0.0,0.0,0.0,0.0,0.0,0.0,0.0,0.0,0.0,0.0,0.0,0.0,0.0,0.0,0.0,0.0,0.0,0.0,0.0,0.0,0.0,0.0,0.0,0.0,0.0,0.0,0.0,0.0,0.0,0.0,0.0,0.0,0.0,0.0,0.0,0.0,0.0,0.0,0.0,0.0,0.0,0.0,0.0,0.0,0.0,0.0,0.0,0.0,0.0,0.0,0.0,0.0,0.0,0.0,0.0,0.0,0.0,0.0,0.0,0.0,0.0,0.0,0.0,0.0,0.0,0.0,0.0,0.0,0.0,0.0,0.0,0.0,0.0,0.0,0.0,0.0,0.0,0.0,0.0,0.0,0.0,0.0,0.0,0.0,0.0,0.0,0.0,0.0,0.0,0.0,0.0,0.0,0.0,0.0,0.0,0.0,0.0,0.0,0.0,0.0,0.0,0.0,0.0,0.0,0.0,0.0,0.0,0.0,0.0,0.0,0.0,0.0,0.0,0.0,0.0,0.0,0.0,0.0,0.0,0.0,0.0,0.0,0.0,0.0,0.0,0.0,0.0,0.0,0.0,0.0,0.0,0.0,0.0,0.0,0.0,0.0,0.0,0.0,0.0,0.0,0.0,0.0,0.0,0.0,0.0,0.0,0.0,0.0,0.0,0.0,0.0,0.0,0.0,0.0,0.0,0.0,0.0,0.0,0.0,0.0,0.0,0.0,0.0,0.0,0.0,0.0,0.0,0.0,0.0,0.0,0.0,0.0,0.0,0.0,0.0,0.0,0.0,0.0,0.0,0.0,0.0,0.0,0.0,0.0,0.0,0.0,0.0,0.0,0.0,0.0,0.0,0.0,0.0,0.0,0.0,0.0,0.0,0.0,0.0,0.0,0.0,0.0,0.0,0.0,0.0,0.0,0.0,0.0,0.0,0.0,0.0,0.0,0.0,0.0,0.0,0.0,0.0,0.0,0.0,0.0,0.0,0.0,0.0,0.0,0.0,0.0,0.0,0.0,0.0,0.0,0.0,0.0,0.0,0.0,0.0,0.0,0.0,0.0,0.0,0.0,0.0,0.0,0.0,0.0,0.0,0.0,0.0,0.0,0.0,0.0,0.0,0.0,0.0,0.0,0.0,0.0,0.0,0.0,0.0,0.0,0.0,0.0,0.0,0.0,0.0,0.0,0.0,0.0,0.0,0.0,0.0,0.0,0.0,0.0,0.0,0.0,0.0,0.0,0.0,0.0,0.0,0.0,0.0,0.0,0.0,0.0,0.0,0.0,0.0,0.0,0.0,0.0,0.0,0.0,0.0,0.0,0.0,0.0,0.0,0.0,0.0,0.0,0.0,0.0,0.0,0.0,0.0,0.0,0.0,0.0,0.0,0.0,0.0,0.0,0.0,0.0,0.0,0.0,0.0,0.0,0.0,0.0,0.0,0.0,0.0,0.0,0.0,0.0,0.0,0.0,0.0,0.0,0.0,0.0,0.0,0.0,0.0,0.0,0.0,0.0,0.0,0.0,0.0,0.0,0.0,0.0,0.0,0.0,0.0,0.0,0.0,0.0,0.0,0.0,0.0,0.0,0.0,0.0,0.0,0.0,0.0,0.0,0.0,0.0,0.0,0.0,0.0,0.0,0.0,0.0,0.0,0.0,0.0,0.0,0.0,0.0,0.0,0.0,0.0,0.0,0.0,0.0,0.0,0.0,0.0,0.0,0.0,0.0,0.0,0.0,0.0,0.0,0.0,0.0,0.0,0.0,0.0,0.0,0.0,0.0,0.0,0.0,0.0,0.0,0.0,0.0,0.0,0.0,0.0,0.0,0.0,0.0,0.0,0.0,0.0,0.0,0.0,0.0,0.0,0.0,0.0,0.0,0.0,0.0,0.0,0.0,0.0,0.0,0.0,0.0,0.0,0.0,0.0,0.0,0.0,0.0,0.0,0.0,0.0,0.0,0.0,0.0,0.0,0.0,0.0,0.0,0.0,0.0,0.0,0.0,0.0,0.0,0.0,0.0,0.0,0.0,0.0,0.0,0.0,0.0,0.0,0.0,0.0,0.0,0.0,0.0,0.0,0.0,0.0,0.0,0.0,0.0,0.0,0.0,0.0,0.0,0.0,0.0,0.0,0.0,0.0,0.0,0.0,0.0,0.0,0.0,0.0,0.0,0.0,0.0,0.0,0.0,0.0,0.0,0.0,0.0,0.0,0.0,0.0,0.0,0.0,0.0,0.0,0.0,0.0,0.0,0.0,0.0,0.0,0.0,0.0,0.0,0.0,0.0,0.0,0.0,0.0,0.0,0.0,0.0,0.0,0.0,0.0,0.0,0.0,0.0,0.0,0.0,0.0,0.0,0.0,0.0,0.0,0.0,0.0,0.0,0.0,0.0,0.0,0.0,0.0,0.0,0.0,0.0,0.0,0.0,0.0,0.0,0.0,0.0,0.0,0.0,0.0,0.0,0.0,0.0,0.0,0.0,0.0,0.0,0.0,0.0,0.0,0.0,0.0,0.0,0.0,0.0,0.0,0.0,0.0,0.0,0.0,0.0,0.0,0.0,0.0,0.0,0.0,0.0,0.0,0.0,0.0,0.0,0.0,0.0,0.0,0.0,0.0,0.0,0.0,0.0,0.0,0.0,0.0,0.0,0.0,0.0,0.0,0.0,0.0,0.0,0.0,0.0,0.0,0.0,0.0,0.0,0.0,0.0,0.0,0.0,0.0,0.0,0.0,0.0,0.0,0.0,0.0,0.0,0.0,0.0,0.0,0.0,0.0,0.0,0.0,0.0,0.0,0.0,0.0,0.0,0.0,0.0,0.0,0.0,0.0,0.0,0.0,0.0,0.0,0.0,0.0,0.0,0.0,0.0,0.0,0.0,0.0,0.0,0.0,0.0,0.0,0.0,0.0,0.0,0.0,0.0,0.0,0.0,0.0,0.0,0.0,0.0,0.0,0.0,0.0,0.0,0.0,0.0,0.0,0.0,0.0,0.0,0.0,0.0,0.0,0.0,0.0,0.0,0.0,0.0,0.0,0.0,0.0,0.0,0.0,0.0,0.0,0.0,0.0,0.0,0.0,0.0,0.0,0.0,0.0,0.0,0.0,0.0,0.0,0.0,0.0,0.0,0.0,0.0,0.0,0.0,0.0,0.0,0.0,0.0,0.0,0.0,0.0,0.0,0.0,0.0,0.0,0.0,0.0,0.0,0.0,0.0,0.0,0.0,0.0,0.0,0.0,0.0,0.0,0.0,0.0,0.0,0.0,0.0,0.0,0.0,0.0,0.0,0.0,0.0,0.0,0.0,0.0,0.0,0.0,0.0,0.0,0.0,0.0,0.0,0.0,0.0,0.0,0.0,0.0,0.0,0.0,0.0,0.0,0.0,0.0,0.0,0.0,0.0,0.0,0.0,0.0,0.0,0.0,0.0,0.0,0.0,0.0,0.0,0.0,0.0,0.0,0.0,0.0,0.0,0.0,0.0,0.0,0.0,0.0,0.0,0.0,0.0,0.0,0.0,0.0,0.0,0.0,0.0,0.0,0.0,0.0,0.0,0.0,0.0,0.0,0.0,0.0,0.0,0.0,0.0,0.0,0.0,0.0,0.0,0.0,0.0,0.0,0.0,0.0,0.0,0.0,0.0,0.0,0.0,0.0,0.0,0.0,0.0,0.0,0.0,0.0,0.0,0.0,0.0,0.0,0.0,0.0,0.0,0.0,0.0,0.0,0.0,0.0,0.0,0.0,0.0,0.0,0.0,0.0,0.0,0.0,0.0,0.0,0.0,0.0,0.0,0.0,0.0,0.0,0.0,0.0,0.0,0.0,0.0,0.0,0.0,0.0,0.0,0.0,0.0,0.0,0.0,0.0,0.0,0.0,0.0,0.0,0.0,0.0,0.0,0.0,0.0,0.0,0.0,0.0,0.0,0.0,0.0,0.0,0.0,0.0,0.0,0.0,0.0,0.0,0.0,0.0,0.0,0.0,0.0,0.0,0.0,0.0,0.0,0.0,0.0,0.0,0.0,0.0,0.0,0.0,0.0,0.0,0.0,0.0,0.0,0.0,0.0,0.0,0.0,0.0,0.0,0.0,0.0,0.0,0.0,0.0,0.0,0.0,0.0,0.0,0.0,0.0,0.0,0.0,0.0,0.0,0.0,0.0,0.0,0.0,0.0,0.0,0.0,0.0,-0.7464,0.0,0.0,0.0,0.0,0.0,0.0,0.0,0.0,0.0,0.0,0.0,0.0,0.0,0.0,0.0,0.0,0.0,0.0,0.0,0.0,0.0,0.0,0.0,0.0,0.0,0.0,0.0,0.0,0.0,0.0,0.0,0.0,0.0,0.0,0.0,0.0,0.0,0.0,0.0,0.0,0.0,0.0,0.0,0.0,0.0,0.0,0.0,0.0,0.0,0.0,0.0,0.0,0.0,0.0,0.0,0.0,0.0,0.0,0.0,0.0,0.0,0.0,0.0,0.0,0.0,0.0,0.0,0.0,0.0,0.0,0.0,0.0,0.0,0.0,0.0,0.0,0.0,0.0,0.0,0.0,0.0,0.0,0.0,0.0,0.0,0.0,0.0,0.0,0.0,0.0,0.0,0.0,0.0,0.0,0.0,0.0,0.0,0.0,0.0,0.0,0.0,0.0,0.0,0.0,0.0,0.0,0.0,0.0,0.0,0.0,-0.8811,-0.8198,-0.833,-0.7981,-0.7109,0.0,0.0,0.0,0.0,0.0,0.0,0.0,0.0,0.0,0.0,0.0,0.0,0.0,0.0,0.0,0.0,0.0,0.0,0.0,0.0,0.0,0.0,0.0,0.0,0.0,0.0,0.0,0.0,0.0,0.0,0.0,0.0,0.0,0.0,0.0,0.0,0.0,0.0,0.0,0.0,0.0,0.0,0.0,0.0,0.0,0.0,0.0,0.0,0.0,0.0,0.0,0.0,0.0,0.0,0.0,0.0,0.0,0.0,0.0,0.0,0.0,0.0,0.0,0.0,0.0,0.0,0.0,0.0,0.0,0.0,0.0,0.0,0.0,0.0,0.0,0.0,0.0,0.0,0.0,0.0,0.0,0.0,0.0,0.0,0.0,0.0,0.0,0.0,0.0,0.0,0.0,0.0,0.0,0.0,0.0,0.0,0.0,0.0,0.0,0.0,0.0,0.0,0.0,0.0,0.0,0.0,0.0,0.0,0.0,0.0,0.0,0.0,-0.8261,-0.8026,-0.708,0.0,0.0,0.0,0.0,0.0,0.0,0.0,0.0,0.0,0.0,0.0,0.0,0.0,0.0,0.0,0.0,0.0,0.0,0.0,0.0,0.0,0.0,0.0,0.0,0.0,0.0,0.0,0.0,0.0,0.0,0.0,0.0,0.0,0.0,0.0,0.0,0.0,0.0,0.0,0.0,0.0,0.0,0.0,0.0,0.0,0.0,0.0,0.0,0.0,0.0,0.0,0.0,0.0,0.0,0.0,0.0,0.0,0.0,0.0,0.0,0.0,0.0,0.0,0.0,0.0,0.0,0.0,0.0,0.0,0.0,0.0,0.0,0.0,0.0,0.0,0.0,0.0,0.0,0.0,0.0,0.0,0.0,0.0,0.0,0.0,0.0,0.0,0.0,0.0,0.0,0.0,0.0,0.0,0.0,0.0,0.0,0.0,0.0,0.0,0.0,0.0,0.0,0.0,0.0,0.0,0.0,0.0,0.0,0.0,0.0,-0.7954,-0.9604,-0.8985,0.0,-0.8023,0.0,0.0,0.0,0.0,0.0,0.0,0.0,0.0,0.0,0.0,0.0,0.0,0.0,0.0,0.0,0.0,0.0,0.0,0.0,0.0,0.0,0.0,0.0,0.0,0.0,0.0,0.0,0.0,0.0,0.0,0.0,0.0,0.0,0.0,0.0,0.0,0.0,0.0,0.0,0.0,0.0,0.0,0.0,0.0,0.0,0.0,0.0,0.0,0.0,0.0,0.0,0.0,0.0,0.0,0.0,0.0,0.0,0.0,0.0,0.0,0.0,0.0,0.0,0.0,0.0,0.0,0.0,0.0,0.0,0.0,0.0,0.0,0.0,0.0,0.0,0.0,0.0,0.0,0.0,0.0,0.0,0.0,0.0,0.0,0.0,0.0,0.0,0.0,0.0,0.0,0.0,0.0,0.0,0.0,0.0,0.0,0.0,0.0,0.0,0.0,0.0,0.0,0.0,0.0,0.0,0.0,0.0,0.0,0.0,0.0,-0.8271,-0.8949,-0.871,-0.854,0.0,0.0,0.0,0.0,0.0,0.0,0.0,0.0,0.0,0.0,0.0,0.0,0.0,0.0,0.0,0.0,0.0,0.0,0.0,0.0,0.0,0.0,0.0,0.0,0.0,0.0,0.0,0.0,0.0,0.0,0.0,0.0,0.0,0.0,0.0,0.0,0.0,0.0,0.0,0.0,0.0,0.0,0.0,0.0,0.0,0.0,0.0,0.0,0.0,0.0,0.0,0.0,0.0,0.0,0.0,0.0,0.0,0.0,0.0,0.0,0.0,0.0,0.0,0.0,0.0,0.0,0.0,0.0,0.0,0.0,0.0,0.0,0.0,0.0,0.0,0.0,0.0,0.0,0.0,0.0,0.0,0.0,0.0,0.0,0.0,0.0,0.0,0.0,0.0,0.0,0.0,0.0,0.0,0.0,0.0,0.0,0.0,0.0,0.0,0.0,0.0,0.0,0.0,0.0,0.0,0.0,0.0,0.0,0.0,0.0,-0.8001,0.0,-0.8634,-0.879,-0.8783,-0.8545,0.0,0.0,0.0,0.0,0.0,0.0,0.0,0.0,0.0,0.0,0.0,0.0,0.0,0.0,0.0,0.0,0.0,0.0,0.0,0.0,0.0,0.0,0.0,0.0,0.0,0.0,0.0,0.0,0.0,0.0,0.0,0.0,0.0,0.0,0.0,0.0,0.0,0.0,0.0,0.0,0.0,0.0,0.0,0.0,0.0,0.0,0.0,0.0,0.0,0.0,0.0,0.0,0.0,0.0,0.0,0.0,0.0,0.0,0.0,0.0,0.0,0.0,0.0,0.0,0.0,0.0,0.0,0.0,0.0,0.0,0.0,0.0,0.0,0.0,0.0,0.0,0.0,0.0,0.0,0.0,0.0,0.0,0.0,0.0,0.0,0.0,0.0,0.0,0.0,0.0,0.0,0.0,0.0,0.0,0.0,0.0,0.0,0.0,0.0,0.0,0.0,0.0,0.0,0.0,0.0,0.0,0.0,0.0,0.0,-0.8499,-0.8429,-0.9403,-0.9702,-0.9279,0.0,0.0,0.0,0.0,0.0,0.0,0.0,0.0,0.0,0.0,0.0,0.0,0.0,0.0,0.0,0.0,0.0,0.0,0.0,0.0,0.0,0.0,0.0,0.0,0.0,0.0,0.0,0.0,0.0,0.0,0.0,0.0,0.0,0.0,0.0,0.0,0.0,0.0,0.0,0.0,0.0,0.0,0.0,0.0,0.0,0.0,0.0,0.0,0.0,0.0,0.0,0.0,0.0,0.0,0.0,0.0,0.0,0.0,0.0,0.0,0.0,0.0,0.0,0.0,0.0,0.0,0.0,0.0,0.0,0.0,0.0,0.0,0.0,0.0,0.0,0.0,0.0,0.0,0.0,0.0,0.0,0.0,0.0,0.0,0.0,0.0,0.0,0.0,0.0,0.0,0.0,0.0,0.0,0.0,0.0,0.0,0.0,0.0,0.0,0.0,0.0,0.0,0.0,0.0,0.0,0.0,0.0,0.0,0.0,-0.7336,-0.7873,-0.8995,-1.0652,-0.9641,-0.9128,0.0,0.0,0.0,0.0,0.0,0.0,0.0,0.0,0.0,0.0,0.0,0.0,0.0,0.0,0.0,0.0,0.0,0.0,0.0,0.0,0.0,0.0,0.0,0.0,0.0,0.0,0.0,0.0,0.0,0.0,0.0,0.0,0.0,0.0,0.0,0.0,0.0,0.0,0.0,0.0,0.0,0.0,0.0,0.0,0.0,0.0,0.0,0.0,0.0,0.0,0.0,0.0,0.0,0.0,0.0,0.0,0.0,0.0,0.0,0.0,0.0,0.0,0.0,0.0,0.0,0.0,0.0,0.0,0.0,0.0,0.0,0.0,0.0,0.0,0.0,0.0,0.0,0.0,0.0,0.0,0.0,0.0,0.0,0.0,0.0,0.0,0.0,0.0,0.0,0.0,0.0,0.0,0.0,0.0,0.0,0.0,0.0,0.0,0.0,0.0,0.0,0.0,0.0,0.0,0.0,0.0,0.0,0.0,0.0,-0.7098,0.0,-0.9764,0.0,-0.9542,-0.8824,0.0,0.0,0.0,0.0,0.0,0.0,0.0,0.0,0.0,0.0,0.0,0.0,0.0,0.0,0.0,0.0,0.0,0.0,0.0,0.0,0.0,0.0,0.0,0.0,0.0,0.0,0.0,0.0,0.0,0.0,0.0,0.0,0.0,0.0,0.0,0.0,0.0,0.0,0.0,0.0,0.0,0.0,0.0,0.0,0.0,0.0,0.0,0.0,0.0,0.0,0.0,0.0,0.0,0.0,0.0,0.0,0.0,0.0,0.0,0.0,0.0,0.0,0.0,0.0,0.0,0.0,0.0,0.0,0.0,0.0,0.0,0.0,0.0,0.0,0.0,0.0,0.0,0.0,0.0,0.0,0.0,0.0,0.0,0.0,0.0,0.0,0.0,0.0,0.0,0.0,0.0,0.0,0.0,0.0,0.0,0.0,0.0,0.0,0.0,0.0,0.0,0.0,0.0,0.0,0.0,0.0,0.0,0.0,-0.7049,-0.926,-1.042,-1.0485,-0.9596,-0.9475,-0.8478,0.0,0.0,0.0,0.0,0.0,0.0,0.0,0.0,0.0,0.0,0.0,0.0,0.0,0.0,0.0,0.0,0.0,0.0,0.0,0.0,0.0,0.0,0.0,0.0,0.0,0.0,0.0,0.0,0.0,0.0,0.0,0.0,0.0,0.0,0.0,0.0,0.0,0.0,0.0,0.0,0.0,0.0,0.0,0.0,0.0,0.0,0.0,0.0,0.0,0.0,0.0,0.0,0.0,0.0,0.0,0.0,0.0,0.0,0.0,0.0,0.0,0.0,0.0,0.0,0.0,0.0,0.0,0.0,0.0,0.0,0.0,0.0,0.0,0.0,0.0,0.0,0.0,0.0,0.0,0.0,0.0,0.0,0.0,0.0,0.0,0.0,0.0,0.0,0.0,0.0,0.0,0.0,0.0,0.0,0.0,0.0,0.0,0.0,0.0,0.0,0.0,0.0,0.0,0.0,0.0,0.0,0.0,0.0,0.0,-0.818,-0.9372,-1.0197,-1.0534,-0.9149,-0.8429,0.0,0.0,0.0,0.0,0.0,0.0,0.0,0.0,0.0,0.0,0.0,0.0,0.0,0.0,0.0,0.0,0.0,0.0,0.0,0.0,0.0,0.0,0.0,0.0,0.0,0.0,0.0,0.0,0.0,0.0,0.0,0.0,0.0,0.0,0.0,0.0,0.0,0.0,0.0,0.0,0.0,0.0,0.0,0.0,0.0,0.0,0.0,0.0,0.0,0.0,0.0,0.0,0.0,0.0,0.0,0.0,0.0,0.0,0.0,0.0,0.0,0.0,0.0,0.0,0.0,0.0,0.0,0.0,0.0,0.0,0.0,0.0,0.0,0.0,0.0,0.0,0.0,0.0,0.0,0.0,0.0,0.0,0.0,0.0,0.0,0.0,0.0,0.0,0.0,0.0,0.0,0.0,0.0,0.0,0.0,0.0,0.0,0.0,0.0,0.0,0.0,0.0,0.0,0.0,0.0,0.0,0.0,0.0,0.0,-0.9336,-1.0344,-1.1049,-1.1399,-0.9704,-0.8826,-0.8849,0.0,0.0,0.0,0.0,0.0,0.0,0.0,0.0,0.0,0.0,0.0,0.0,0.0,0.0,0.0,0.0,0.0,0.0,0.0,0.0,0.0,0.0,0.0,0.0,0.0,0.0,0.0,0.0,0.0,0.0,0.0,0.0,0.0,0.0,0.0,0.0,0.0,0.0,0.0,0.0,0.0,0.0,0.0,0.0,0.0,0.0,0.0,0.0,0.0,0.0,0.0,0.0,0.0,0.0,0.0,0.0,0.0,0.0,0.0,0.0,0.0,0.0,0.0,0.0,0.0,0.0,0.0,0.0,0.0,0.0,0.0,0.0,0.0,0.0,0.0,0.0,0.0,0.0,0.0,0.0,0.0,0.0,0.0,0.0,0.0,0.0,0.0,0.0,0.0,0.0,0.0,0.0,0.0,0.0,0.0,0.0,0.0,0.0,0.0,0.0,0.0,0.0,0.0,0.0,0.0,0.0,0.0,0.0,-1.2197,-1.2962,-1.2935,-1.2109,-1.099,-0.9617,0.0,0.0,0.0,0.0,0.0,0.0,0.0,0.0,0.0,0.0,0.0,0.0,0.0,0.0,0.0,0.0,0.0,0.0,0.0,0.0,0.0,0.0,0.0,0.0,0.0,0.0,0.0,0.0,0.0,0.0,0.0,0.0,0.0,0.0,0.0,0.0,0.0,0.0,0.0,0.0,0.0,0.0,0.0,0.0,0.0,0.0,0.0,0.0,0.0,0.0,0.0,0.0,0.0,0.0,0.0,0.0,0.0,0.0,0.0,0.0,0.0,0.0,0.0,0.0,0.0,0.0,0.0,0.0,0.0,0.0,0.0,0.0,0.0,0.0,0.0,0.0,0.0,0.0,0.0,0.0,0.0,0.0,0.0,0.0,0.0,0.0,0.0,0.0,0.0,0.0,0.0,0.0,0.0,0.0,0.0,0.0,0.0,0.0,0.0,0.0,0.0,0.0,0.0,0.0,0.0,0.0,0.0,0.0,0.0,-1.264,-1.4107,-1.4591,-1.3934,-1.2271,-1.0692,0.0,0.0,0.0,0.0,0.0,0.0,0.0,0.0,0.0,0.0,0.0,0.0,0.0,0.0,0.0,0.0,0.0,0.0,0.0,0.0,0.0,0.0,0.0,0.0,0.0,0.0,0.0,0.0,0.0,0.0,0.0,0.0,0.0,0.0,0.0,0.0,0.0,0.0,0.0,0.0,0.0,0.0,0.0,0.0,0.0,0.0,0.0,0.0,0.0,0.0,0.0,0.0,0.0,0.0,0.0,0.0,0.0,0.0,0.0,0.0,0.0,0.0,0.0,0.0,0.0,0.0,0.0,0.0,0.0,0.0,0.0,0.0,0.0,0.0,0.0,0.0,0.0,0.0,0.0,0.0,0.0,0.0,0.0,0.0,0.0,0.0,0.0,0.0,0.0,0.0,0.0,0.0,0.0,0.0,0.0,0.0,0.0,0.0,0.0,0.0,0.0,0.0,0.0,0.0,0.0,0.0,0.0,0.0,-1.1941,-1.361,-1.5285,-1.5977,-1.5683,-1.3587,-1.1618,0.0,0.0,0.0,0.0,0.0,0.0,0.0,0.0,0.0,0.0,0.0,0.0,0.0,0.0,0.0,0.0,0.0,0.0,0.0,0.0,0.0,0.0,0.0,0.0,0.0,0.0,0.0,0.0,0.0,0.0,0.0,0.0,0.0,0.0,0.0,0.0,0.0,0.0,0.0,0.0,0.0,0.0,0.0,0.0,0.0,0.0,0.0,0.0,0.0,0.0,0.0,0.0,0.0,0.0,0.0,0.0,0.0,0.0,0.0,0.0,0.0,0.0,0.0,0.0,0.0,0.0,0.0,0.0,0.0,0.0,0.0,0.0,0.0,0.0,0.0,0.0,0.0,0.0,0.0,0.0,0.0,0.0,0.0,0.0,0.0,0.0,0.0,0.0,0.0,0.0,0.0,0.0,0.0,0.0,0.0,0.0,0.0,0.0,0.0,0.0,0.0,0.0,0.0,0.0,0.0,0.0,0.0,0.0,-1.2748,-1.4787,-1.6266,-1.7017,-1.6905,-1.4756,-1.24,0.0,0.0,0.0,0.0,0.0,0.0,0.0,0.0,0.0,0.0,0.0,0.0,0.0,0.0,0.0,0.0,0.0,0.0,0.0,0.0,0.0,0.0,0.0,0.0,0.0,0.0,0.0,0.0,0.0,0.0,0.0,0.0,0.0,0.0,0.0,0.0,0.0,0.0,0.0,0.0,0.0,0.0,0.0,0.0,0.0,0.0,0.0,0.0,0.0,0.0,0.0,0.0,0.0,0.0,0.0,0.0,0.0,0.0,0.0,0.0,0.0,0.0,0.0,0.0,0.0,0.0,0.0,0.0,0.0,0.0,0.0,0.0,0.0,0.0,0.0,0.0,0.0,0.0,0.0,0.0,0.0,0.0,0.0,0.0,0.0,0.0,0.0,0.0,0.0,0.0,0.0,0.0,0.0,0.0,0.0,0.0,0.0,0.0,0.0,0.0,0.0,0.0,0.0,0.0,0.0,0.0,0.0,0.0,-1.3828,-1.5037,-1.6466,-1.7038,-1.662,-1.4875,-1.2901,0.0,0.0,0.0,0.0,0.0,0.0,0.0,0.0,0.0,0.0,0.0,0.0,0.0,0.0,0.0,0.0,0.0,0.0,0.0,0.0,0.0,0.0,0.0,0.0,0.0,0.0,0.0,0.0,0.0,0.0,0.0,0.0,0.0,0.0,0.0,0.0,0.0,0.0,0.0,0.0,0.0,0.0,0.0,0.0,0.0,0.0,0.0,0.0,-0.27,0.0,0.0,0.0,0.0,0.0,0.0,0.0,0.0,0.0,0.0,0.0,0.0,0.0,0.0,0.0,0.0,0.0,0.0,0.0,0.0,0.0,0.0,0.0,0.0,0.0,0.0,0.0,0.0,0.0,0.0,0.0,0.0,0.0,0.0,0.0,0.0,0.0,0.0,0.0,0.0,0.0,0.0,0.0,0.0,0.0,0.0,0.0,0.0,0.0,0.0,0.0,0.0,0.0,0.0,0.0,0.0,0.0,0.0,0.0,-1.4253,-1.5443,-1.6645,-1.7147,-1.683,-1.5361,-1.3386,0.0,0.0,0.0,0.0,0.0,0.0,0.0,0.0,0.0,0.0,0.0,0.0,0.0,0.0,0.0,0.0,0.0,0.0,0.0,0.0,0.0,0.0,0.0,0.0,0.0,0.0,0.0,0.0,0.0,0.0,0.0,0.0,0.0,0.0,0.0,0.0,0.0,0.0,0.0,0.0,0.0,0.0,0.0,0.0,0.0,0.0,0.0,0.0,0.0,0.0,0.0,0.0,0.0,0.0,0.0,0.0,0.0,0.0,0.0,0.0,0.0,0.0,0.0,0.0,0.0,0.0,0.0,0.0,0.0,0.0,0.0,0.0,0.0,0.0,0.0,0.0,0.0,0.0,0.0,0.0,0.0,0.0,0.0,0.0,0.0,0.0,0.0,0.0,0.0,0.0,0.0,0.0,0.0,0.0,0.0,0.0,0.0,0.0,0.0,0.0,0.0,0.0,0.0,0.0,0.0,0.0,0.0,-1.2535,-1.4351,-1.5851,-1.6809,-1.7301,-1.7147,-1.5826,-1.374,-1.0911,0.0,0.0,0.0,0.0,0.0,0.0,0.0,0.0,0.0,0.0,0.0,0.0,0.0,0.0,0.0,0.0,0.0,0.0,0.0,0.0,0.0,0.0,0.0,0.0,0.0,0.0,0.0,0.0,0.0,0.0,0.0,0.0,0.0,0.0,0.0,0.0,0.0,0.0,-0.2576,-0.2708,0.0,0.0,0.0,0.0,0.0,0.0,0.0,0.0,-0.2772,0.0,0.0,0.0,0.0,0.0,0.0,0.0,0.0,0.0,0.0,0.0,0.0,0.0,0.0,0.0,0.0,0.0,0.0,0.0,0.0,0.0,0.0,0.0,0.0,0.0,0.0,0.0,0.0,0.0,0.0,0.0,0.0,0.0,0.0,0.0,0.0,0.0,0.0,0.0,0.0,0.0,0.0,0.0,0.0,0.0,0.0,0.0,0.0,0.0,0.0,0.0,0.0,0.0,0.0,0.0,0.0,-1.1806,-1.2658,-1.4098,-1.635,-1.6972,-1.7071,-1.6634,-1.5651,-1.374,-1.0908,0.0,0.0,0.0,0.0,0.0,0.0,0.0,0.0,0.0,0.0,0.0,0.0,0.0,0.0,0.0,0.0,0.0,0.0,0.0,0.0,0.0,0.0,0.0,0.0,0.0,0.0,0.0,0.0,0.0,0.0,0.0,0.0,0.0,0.0,0.0,0.0,0.0,0.0,0.0,-0.2823,-0.3027,0.0,0.0,0.0,0.0,0.0,0.0,0.0,0.0,-0.2841,0.0,0.0,0.0,0.0,0.0,0.0,0.0,0.0,0.0,0.0,0.0,0.0,0.0,0.0,0.0,0.0,0.0,0.0,0.0,0.0,0.0,0.0,0.0,0.0,0.0,0.0,0.0,0.0,0.0,0.0,0.0,0.0,0.0,0.0,0.0,0.0,0.0,0.0,0.0,0.0,0.0,0.0,0.0,0.0,0.0,0.0,0.0,0.0,0.0,0.0,0.0,0.0,0.0,0.0,0.0,-1.1435,-1.3086,-1.4757,-1.647,-1.6939,-1.6906,-1.6417,-1.5067,-1.3151,0.0,0.0,0.0,0.0,0.0,0.0,0.0,0.0,0.0,0.0,0.0,0.0,0.0,0.0,0.0,0.0,0.0,0.0,0.0,0.0,0.0,0.0,0.0,0.0,0.0,0.0,0.0,0.0,0.0,0.0,0.0,0.0,0.0,0.0,0.0,0.0,0.0,0.0,0.0,0.0,-0.296,-0.3201,-0.3514,0.0,0.0,0.0,0.0,0.0,0.0,-0.3345,-0.3102,0.0,0.0,0.0,0.0,0.0,0.0,0.0,0.0,0.0,0.0,0.0,0.0,0.0,0.0,0.0,0.0,0.0,0.0,0.0,0.0,0.0,0.0,0.0,0.0,0.0,0.0,0.0,0.0,0.0,0.0,0.0,0.0,0.0,0.0,0.0,0.0,0.0,0.0,0.0,0.0,0.0,0.0,0.0,0.0,0.0,0.0,0.0,0.0,0.0,0.0,0.0,0.0,0.0,0.0,0.0,-1.0647,-1.3162,-1.5023,-1.6081,-1.6472,-1.6504,-1.6072,-1.4331,-1.2451,0.0,0.0,0.0,0.0,0.0,0.0,0.0,0.0,0.0,0.0,0.0,0.0,0.0,0.0,0.0,0.0,0.0,0.0,0.0,0.0,0.0,0.0,0.0,0.0,0.0,0.0,0.0,0.0,0.0,0.0,0.0,0.0,0.0,0.0,0.0,0.0,0.0,0.0,0.0,0.0,0.0,-0.3641,-0.4062,-0.381,0.0,0.0,0.0,0.0,-0.3831,-0.3697,0.0,0.0,0.0,0.0,0.0,0.0,0.0,0.0,0.0,0.0,0.0,0.0,0.0,0.0,0.0,0.0,0.0,0.0,0.0,0.0,0.0,0.0,0.0,0.0,0.0,0.0,0.0,0.0,0.0,0.0,0.0,0.0,0.0,0.0,0.0,0.0,0.0,0.0,0.0,0.0,0.0,0.0,0.0,0.0,0.0,0.0,0.0,0.0,0.0,0.0,0.0,0.0,0.0,0.0,0.0,0.0,-1.0015,-1.1998,-1.3645,-1.4836,-1.5359,-1.538,-1.4889,-1.348,-1.1797,0.0,0.0,0.0,0.0,0.0,0.0,0.0,0.0,0.0,0.0,0.0,0.0,0.0,0.0,0.0,0.0,0.0,0.0,0.0,0.0,0.0,0.0,0.0,0.0,0.0,0.0,0.0,0.0,0.0,0.0,0.0,0.0,0.0,0.0,0.0,0.0,0.0,0.0,0.0,0.0,0.0,-0.4887,-0.4954,-0.4773,-0.4688,0.0,0.0,-0.3997,-0.4263,-0.4256,0.0,0.0,0.0,0.0,0.0,0.0,0.0,0.0,0.0,0.0,0.0,0.0,0.0,0.0,0.0,0.0,0.0,0.0,0.0,0.0,0.0,0.0,0.0,0.0,0.0,0.0,0.0,0.0,0.0,0.0,0.0,0.0,0.0,0.0,0.0,0.0,0.0,0.0,0.0,0.0,0.0,0.0,0.0,0.0,0.0,0.0,0.0,0.0,0.0,0.0,0.0,0.0,0.0,0.0,0.0,-0.9303,-0.9927,-1.2435,-1.4095,-1.4669,-1.5086,-1.5067,-1.4602,-1.2732,-1.1057,0.0,0.0,0.0,0.0,0.0,0.0,0.0,0.0,0.0,0.0,0.0,0.0,0.0,0.0,0.0,0.0,0.0,0.0,0.0,0.0,0.0,0.0,0.0,0.0,0.0,0.0,0.0,0.0,0.0,0.0,0.0,0.0,0.0,0.0,0.0,0.0,0.0,0.0,0.0,0.0,0.0,0.0,-0.4811,-0.4992,0.0,0.0,0.0,-0.4223,-0.4494,0.0,0.0,0.0,0.0,0.0,0.0,0.0,0.0,0.0,0.0,0.0,0.0,0.0,0.0,0.0,0.0,0.0,0.0,0.0,0.0,0.0,0.0,0.0,0.0,0.0,0.0,0.0,0.0,0.0,0.0,0.0,0.0,0.0,0.0,0.0,0.0,0.0,0.0,0.0,0.0,0.0,0.0,0.0,0.0,0.0,0.0,0.0,0.0,0.0,0.0,0.0,0.0,0.0,0.0,0.0,0.0,0.0,-0.9795,-1.2761,-1.4335,-1.4422,-1.465,-1.4631,-1.4275,-1.2415,0.0,0.0,0.0,0.0,0.0,0.0,0.0,0.0,0.0,0.0,0.0,0.0,0.0,0.0,0.0,0.0,0.0,0.0,0.0,0.0,0.0,0.0,0.0,0.0,0.0,0.0,0.0,-0.2512,0.0,0.0,0.0,0.0,0.0,0.0,0.0,0.0,0.0,0.0,0.0,0.0,0.0,0.0,-0.5336,-0.5031,-0.5487,-0.5665,0.0,0.0,-0.444,-0.4677,-0.472,-0.4435,0.0,0.0,0.0,0.0,0.0,0.0,0.0,0.0,0.0,0.0,0.0,0.0,0.0,0.0,0.0,0.0,0.0,0.0,0.0,0.0,0.0,0.0,0.0,0.0,0.0,0.0,0.0,0.0,0.0,0.0,0.0,0.0,0.0,0.0,0.0,0.0,0.0,0.0,0.0,0.0,0.0,0.0,0.0,0.0,0.0,0.0,0.0,0.0,0.0,0.0,0.0,0.0,0.0,0.0,0.0,-0.9726,-1.2393,-1.3815,-1.3662,-1.3693,-1.3703,-1.3652,-1.2744,-1.1373,0.0,0.0,0.0,0.0,0.0,0.0,0.0,0.0,0.0,0.0,0.0,0.0,0.0,0.0,0.0,0.0,0.0,0.0,0.0,0.0,0.0,0.0,0.0,0.0,0.0,0.0,0.0,0.0,0.0,0.0,0.0,0.0,0.0,0.0,0.0,0.0,0.0,0.0,0.0,0.0,0.0,-0.645,-0.6268,-0.6546,-0.6585,0.0,0.0,-0.4755,-0.5026,-0.525,-0.4992,-0.4128,0.0,0.0,0.0,0.0,0.0,0.0,0.0,0.0,0.0,0.0,0.0,0.0,0.0,0.0,0.0,0.0,0.0,0.0,0.0,0.0,0.0,0.0,0.0,0.0,0.0,0.0,0.0,0.0,0.0,0.0,0.0,0.0,0.0,0.0,0.0,0.0,0.0,0.0,0.0,0.0,0.0,0.0,0.0,0.0,0.0,0.0,0.0,0.0,0.0,0.0,0.0,0.0,0.0,-0.9632,-0.9574,-1.2276,-1.3658,-1.361,-1.361,-1.361,-1.361,-1.273,-1.158,0.0,0.0,0.0,0.0,0.0,0.0,0.0,0.0,0.0,0.0,0.0,0.0,0.0,0.0,0.0,0.0,0.0,0.0,0.0,0.0,0.0,0.0,0.0,0.0,0.0,0.0,0.0,0.0,-0.3775,-0.3761,-0.3449,0.0,0.0,0.0,0.0,0.0,0.0,0.0,0.0,0.0,0.0,-0.6739,-0.632,-0.6736,0.0,0.0,-0.522,-0.4969,-0.4996,-0.4972,-0.4738,-0.4121,-0.3819,0.0,0.0,0.0,0.0,0.0,0.0,0.0,0.0,0.0,0.0,0.0,0.0,0.0,0.0,0.0,0.0,0.0,0.0,0.0,0.0,0.0,0.0,0.0,0.0,0.0,0.0,0.0,0.0,0.0,0.0,0.0,0.0,0.0,0.0,0.0,0.0,0.0,0.0,0.0,0.0,0.0,0.0,0.0,0.0,0.0,0.0,0.0,0.0,0.0,0.0,0.0,0.0,-0.9605,-0.9726,-1.2253,-1.3683,-1.3817,-1.3683,-1.361,-1.36,-1.3,-1.2027,0.0,0.0,0.0,0.0,0.0,0.0,0.0,0.0,0.0,0.0,0.0,0.0,0.0,0.0,0.0,0.0,0.0,0.0,0.0,0.0,0.0,0.0,0.0,0.0,0.0,0.0,0.0,0.0,-0.4004,-0.3908,-0.3463,0.0,0.0,0.0,0.0,0.0,0.0,0.0,0.0,0.0,0.0,-0.7011,-0.6564,-0.686,-0.6732,-0.5494,-0.5147,-0.4979,-0.4928,-0.483,-0.4619,-0.4216,0.0,0.0,0.0,0.0,0.0,0.0,0.0,0.0,0.0,0.0,0.0,0.0,0.0,0.0,0.0,0.0,0.0,0.0,0.0,0.0,0.0,0.0,0.0,0.0,0.0,0.0,0.0,0.0,0.0,0.0,-0.629,0.0,0.0,0.0,0.0,0.0,0.0,0.0,0.0,0.0,0.0,0.0,0.0,0.0,0.0,0.0,0.0,0.0,0.0,0.0,0.0,0.0,0.0,0.0,-1.0211,-1.2472,-1.3838,-1.4252,-1.3859,-1.3621,-1.361,-1.3589,-1.2937,-1.1591,0.0,0.0,0.0,0.0,0.0,0.0,0.0,0.0,0.0,0.0,0.0,0.0,0.0,0.0,0.0,0.0,0.0,0.0,0.0,0.0,0.0,0.0,0.0,0.0,0.0,0.0,-0.2655,-0.3081,-0.344,0.0,0.0,0.0,0.0,0.0,0.0,0.0,0.0,0.0,0.0,-0.6958,-0.7408,-0.7195,-0.7071,-0.6717,-0.588,-0.5151,-0.4755,-0.4897,-0.4908,-0.4809,0.0,0.0,0.0,0.0,0.0,0.0,0.0,0.0,0.0,0.0,0.0,0.0,0.0,0.0,0.0,0.0,0.0,0.0,0.0,0.0,0.0,0.0,0.0,0.0,0.0,0.0,0.0,-0.8892,-0.8156,0.0,0.0,0.0,0.0,0.0,0.0,0.0,0.0,0.0,0.0,0.0,-1.3568,-1.416,0.0,0.0,0.0,0.0,0.0,0.0,0.0,0.0,0.0,0.0,0.0,0.0,-0.9881,-1.0723,-1.2917,-1.4159,-1.4293,-1.4159,-1.3921,-1.3631,-1.361,-1.2979,-1.1653,0.0,0.0,0.0,0.0,0.0,0.0,0.0,0.0,0.0,0.0,0.0,0.0,0.0,0.0,0.0,0.0,0.0,0.0,0.0,0.0,0.0,0.0,0.0,0.0,0.0,-0.3302,0.0,0.0,0.0,0.0,0.0,0.0,0.0,0.0,0.0,0.0,0.0,-0.5658,-0.6312,-0.7031,-0.737,-0.6987,-0.7245,-0.706,0.0,0.0,0.0,0.0,0.0,0.0,0.0,0.0,0.0,0.0,0.0,0.0,0.0,0.0,-0.3332,-0.2811,-0.2782,-0.2794,-0.2751,0.0,0.0,0.0,0.0,0.0,0.0,0.0,0.0,0.0,0.0,0.0,0.0,0.0,0.0,-1.1257,0.0,-1.0278,0.0,0.0,0.0,0.0,0.0,0.0,0.0,0.0,-1.4878,-1.6044,-1.609,-1.6625,-1.645,0.0,-1.536,-1.3546,0.0,0.0,0.0,0.0,0.0,0.0,0.0,0.0,-1.0474,-1.1406,-1.3455,-1.4552,-1.4542,-1.4386,-1.4086,-1.3631,-1.361,-1.3196,-1.2306,-1.1261,-1.0143,0.0,0.0,0.0,0.0,0.0,0.0,0.0,0.0,0.0,0.0,0.0,0.0,0.0,0.0,0.0,0.0,0.0,0.0,0.0,0.0,0.0,0.0,0.0,-0.3802,0.0,0.0,0.0,0.0,0.0,0.0,0.0,0.0,0.0,-0.4733,-0.5484,-0.6206,-0.6714,-0.7244,-0.7474,-0.7181,0.0,0.0,0.0,0.0,0.0,0.0,0.0,-0.4564,-0.4346,-0.432,-0.42,-0.4027,-0.3943,-0.3935,-0.3938,0.0,0.0,-0.3288,-0.3248,-0.3252,-0.3278,-0.3352,-0.3406,-0.3403,-0.3501,-0.3564,0.0,0.0,0.0,0.0,0.0,0.0,0.0,0.0,-1.3958,-1.3804,0.0,-1.2948,0.0,0.0,0.0,0.0,0.0,-1.346,0.0,0.0,-1.8865,-2.0009,-1.893,-1.8812,-1.8812,-1.8924,-1.8241,-1.7028,-1.5223,-1.3241,0.0,0.0,0.0,0.0,0.0,0.0,-1.1395,-1.2401,-1.4107,-1.5018,-1.5007,-1.4573,-1.4097,-1.3631,-1.361,-1.361,-1.3558,-1.2327,-1.1653,-1.1549,-0.8471,0.0,0.0,0.0,0.0,0.0,0.0,0.0,0.0,0.0,0.0,0.0,0.0,0.0,0.0,0.0,0.0,0.0,0.0,0.0,0.0,-0.4447,0.0,0.0,0.0,0.0,0.0,0.0,0.0,0.0,0.0,0.0,-0.5377,-0.6022,-0.669,-0.7116,0.0,0.0,0.0,0.0,-0.7141,-0.6365,-0.5744,-0.517,-0.4732,-0.4803,-0.4929,-0.4985,0.0,0.0,-0.4479,-0.4139,-0.3971,-0.4089,-0.4226,-0.4235,-0.3993,-0.3841,-0.3831,-0.3834,-0.3831,-0.3829,-0.3837,-0.3857,-0.3872,-1.8283,0.0,0.0,0.0,0.0,-1.5565,-1.6179,-1.7408,-1.7029,-1.6362,-1.5555,-1.5222,0.0,0.0,0.0,0.0,0.0,0.0,-1.6033,-1.6961,-1.8676,-1.9669,-2.0152,-2.0067,-2.0018,-2.0005,-1.969,-1.9102,-1.8183,-1.7594,-1.4723,-0.9845,0.0,0.0,0.0,0.0,-1.2151,-1.3693,-1.4883,-1.5494,-1.5484,-1.5038,-1.4428,-1.3641,-1.361,-1.361,-1.361,-1.3238,-1.2575,-1.1602,-1.0525,0.0,0.0,0.0,0.0,0.0,0.0,0.0,0.0,0.0,0.0,0.0,0.0,0.0,0.0,0.0,0.0,0.0,0.0,0.0,-0.3977,-0.5056,-0.5324,0.0,0.0,0.0,0.0,0.0,0.0,0.0,0.0,0.0,-0.6393,-0.6558,-0.6743,0.0,0.0,-0.7275,-0.6876,-0.7415,-0.7536,-0.6809,0.0,0.0,0.0,-0.5071,-0.4719,-0.4683,-0.4631,-0.46,-0.4529,-0.4455,-0.4516,-0.4513,-0.4574,-0.4526,-0.4461,-0.4346,-0.4334,-0.4259,-0.4202,-0.4145,-0.4148,-0.4175,-0.4197,-2.1159,-1.8728,-1.8114,-1.827,-1.8872,-1.8558,-1.9002,-1.9917,-1.959,-1.8937,-1.8074,-1.7739,-1.6679,-1.5082,-1.4375,0.0,0.0,0.0,-1.7574,-1.8848,-1.9386,-2.0018,-2.0686,-2.0498,-2.041,-2.0461,-2.0233,-2.0003,-1.972,-1.9453,-1.7144,-1.2926,0.0,0.0,-1.125,-1.2434,-1.3567,-1.4552,-1.5494,-1.5877,-1.5691,-1.5059,-1.4459,-1.391,-1.3714,-1.361,-1.361,-1.361,-1.3238,-1.241,-1.1695,-1.0439,0.0,0.0,0.0,0.0,0.0,0.0,0.0,0.0,0.0,0.0,0.0,-0.3787,-0.3333,0.0,0.0,0.0,-0.5324,-0.5371,-0.5329,-0.6129,0.0,0.0,0.0,0.0,0.0,0.0,0.0,-0.5812,-0.6469,-0.6984,-0.7191,-0.7225,-0.7248,-0.7324,-0.7453,-0.7414,-0.7168,0.0,-0.7772,-0.6901,-0.658,-0.63,-0.5644,-0.5154,-0.4853,-0.4784,-0.4703,-0.4588,-0.455,-0.4607,-0.474,-0.4711,-0.4724,-0.4741,-0.479,-0.47,-0.4597,-0.4553,-0.449,-0.4444,-0.4439,-0.4442,-0.4442,-2.3001,-2.2505,-2.193,-2.1642,-2.1577,-2.1577,-2.1577,-2.1577,-2.1564,-2.1289,-2.0804,-2.0244,-1.9253,-1.7907,-1.6504,0.0,-1.8618,-1.8627,-1.9342,-2.0699,-2.0699,-2.0699,-2.0699,-2.0334,-2.0296,-2.0524,-2.0156,-2.0029,-2.0156,-1.9571,-1.8578,-1.7268,-1.6715,-1.5624,-1.3994,-1.4708,-1.5146,-1.5059,-1.5887,-1.6115,-1.568,-1.4821,-1.4345,-1.4304,-1.3859,-1.361,-1.361,-1.361,-1.361,-1.3579,-1.2236,-1.1449,-1.1257,0.0,0.0,0.0,0.0,0.0,0.0,0.0,0.0,0.0,0.0,0.0,0.0,0.0,0.0,0.0,-0.7314,0.0,-0.7847,-0.747,0.0,0.0,0.0,-0.5447,-0.5968,-0.6374,-0.6757,-0.7202,0.0,0.0,-0.7782,0.0,-0.79,-0.8103,-0.7943,-0.7937,-0.8127,-0.8137,-0.7751,-0.6794,-0.6525,-0.6095,-0.5258,-0.5061,-0.5041,-0.5044,-0.4922,-0.4803,-0.4713,-0.4764,-0.4735,-0.4828,-0.4849,-0.4879,-0.4993,-0.4909,-0.4814,-0.4705,-0.4734,-0.472,-0.4709,-0.4706,-0.4701,-2.3825,-2.3694,-2.3563,-2.2988,-2.2178,-2.2178,-2.2178,-2.2219,-2.2219,-2.2127,-2.1996,-2.1838,-2.1564,-2.1238,-2.0383,-2.0306,-2.0719,-2.0341,-2.0338,-2.0699,-2.0699,-2.0699,-2.0699,-2.0334,-2.0296,-2.0461,-2.008,-1.9914,-2.0029,-1.9902,-1.9396,-1.8546,-1.8166,-1.6741,-1.4448,-1.4931,-1.5308,-1.5525,-1.5742,-1.5804,-1.568,-1.5132,-1.4666,-1.4314,-1.3859,-1.361,-1.361,-1.361,-1.361,-1.361,-1.3264,-1.2569,-1.1572,-0.9447,0.0,0.0,0.0,0.0,0.0,0.0,0.0,0.0,0.0,-0.5647,-0.4448,0.0,-0.6586,0.0,-0.8707,-0.9155,-0.8281,-0.8659,0.0,0.0,-0.7187,-0.7067,-0.7139,-0.7177,-0.734,-0.7436,-0.7711,-0.7952,-0.7999,-0.8151,-0.833,-0.8514,-0.824,-0.8022,-0.7888,-0.7778,-0.7599,-0.724,-0.6519,-0.5947,-0.5673,-0.5254,-0.5046,-0.5049,-0.4969,-0.4963,-0.4934,-0.4931,-0.4944,-0.4969,-0.4974,-0.4985,-0.5012,-0.4991,-0.4966,-0.4923,-0.4784,-0.4726,-0.4726,-0.4729,-0.4729,-2.4125,-2.4125,-2.4125,-2.3589,-2.2753,-2.3054,-2.3001,-2.274,-2.274,-2.2596,-2.2428,-2.24,-2.24,-2.2361,-2.2034,-2.189,-2.1864,-2.1603,-2.1328,-2.1041,-2.1041,-2.0897,-2.0612,-2.0334,-2.0246,-2.0246,-1.9965,-1.9811,-1.9926,-1.9926,-1.9609,-1.9017,-1.88,-1.7612,-1.5466,-1.5488,-1.548,-1.537,-1.5587,-1.5794,-1.596,-1.5349,-1.478,-1.4314,-1.3652,-1.3113,-1.272,-1.271,-1.2617,-1.2387,-1.2269,-1.197,-1.149,-0.986,-0.8629,0.0,0.0,0.0,0.0,0.0,0.0,0.0,0.0,0.0,0.0,0.0,-0.7503,-0.7909,-0.9511,-1.0066,-0.8849,-0.9536,-0.9741,-0.8841,-0.8487,-0.8296,-0.8429,-0.8147,-0.7914,-0.8004,-0.8212,-0.8359,-0.8359,-0.8458,-0.8571,-0.8689,-0.85,-0.8316,-0.8159,-0.7877,-0.7559,-0.7262,-0.6503,-0.5786,-0.5556,-0.5249,-0.5018,-0.5018,-0.5018,-0.5018,-0.5018,-0.5018,-0.5018,-0.5018,-0.5018,-0.5018,-0.5018,-0.5018,-0.5018,-0.5002,-0.4912,-0.4825,-0.4817,-0.4814,-0.4814,-2.4354,-2.423,-2.423,-2.3877,-2.3367,-2.389,-2.3746,-2.3106,-2.3106,-2.2871,-2.2479,-2.2583,-2.2622,-2.2622,-2.2518,-2.252,-2.252,-2.2454,-2.21,-2.1629,-2.1551,-2.1199,-2.0577,-2.0322,-2.0131,-2.0042,-1.9862,-1.9798,-1.9798,-1.9798,-1.9515,-1.8996,-1.8943,-1.8131,-1.6691,-1.6126,-1.562,-1.5007,-1.5452,-1.5877,-1.626,-1.539,-1.4687,-1.421,-1.3325,-1.2503,-1.1653,-1.1674,-1.1457,-1.1043,-1.0772,-1.0945,-1.1511,-1.0002,-0.918,0.0,-0.7967,0.0,0.0,0.0,0.0,0.0,0.0,0.0,0.0,-0.8407,-0.8502,-0.8509,-1.0148,-1.0797,-0.9774,-1.0479,-1.0802,-1.0444,-0.9841,-0.9494,-0.9612,-0.9023,-0.8654,-0.868,-0.8703,-0.8703,-0.8689,-0.8703,-0.8703,-0.8703,-0.8685,-0.8656,-0.8609,-0.8143,-0.7617,-0.7019,-0.6247,-0.5556,-0.5171,-0.5018,-0.5018,-0.5018,-0.5018,-0.5018,-0.5018,-0.5018,-0.5018,-0.5018,-0.5018,-0.5018,-0.5018,-0.5018,-0.5018,-0.5018,-0.5004,-0.4999,-0.4999,-0.4996,-0.5023,-2.5728,-2.4878,-2.4805,-2.4465,-2.3955,-2.4073,-2.3511,-2.2518,-2.2585,-2.2714,-2.3093,-2.3576,-2.3799,-2.3759,-2.3276,-2.3054,-2.3027,-2.257,-2.2322,-2.2217,-2.1734,-2.1355,-2.1121,-2.0515,-2.0182,-2.0182,-1.9914,-1.9862,-1.999,-1.985,-1.9546,-1.8983,-1.8605,-1.8073,-1.731,0.0,0.0,0.0,-1.5452,-1.5732,-1.5784,-1.4914,-1.421,-1.3755,-1.3217,0.0,-1.1684,-1.1975,-1.1965,-1.1539,-1.1758,0.0,0.0,0.0,0.0,0.0,0.0,0.0,0.0,0.0,0.0,0.0,-0.8898,-0.8612,-0.8626,-0.9541,-1.0133,-1.0163,-1.1187,-1.1847,-1.1927,-1.2325,-1.2269,-1.1613,-1.1618,-1.1217,-1.0066,-0.9702,-0.9422,-0.877,-0.8703,-0.8703,-0.8703,-0.8703,-0.8703,-0.8703,-0.8703,-0.8703,-0.8703,-0.8165,-0.7553,-0.6938,-0.5941,-0.5171,-0.5018,-0.5018,-0.5018,-0.5018,-0.5018,-0.5018,-0.5018,-0.5018,-0.5018,-0.5018,-0.5018,-0.5018,-0.5018,-0.5018,-0.5018,-0.5018,-0.5018,-0.5018,-0.5018,-0.5018,-0.5042,-2.5937,0.0,-2.5079,-2.4635,0.0,-2.3799,-2.3184,-2.2426,-2.2988,-2.3406,-2.3681,-2.3981,-2.4125,-2.4086,-2.3485,-2.321,-2.3171,-2.2622,-2.2428,-2.2374,-2.2073,-2.1667,-2.1184,-2.0836,-2.0438,-2.0016,-1.9862,-1.9811,-1.9926,-1.9811,-1.9506,-1.8963,-1.8745,-1.8343,-1.7812,-1.6969,-1.6127,-1.5339,-1.5566,-1.5804,-1.5991,-1.5349,-1.4769,-1.4304,0.0,0.0,0.0,0.0,0.0,0.0,0.0,0.0,0.0,0.0,0.0,-1.1896,-1.1132,-1.0799,-1.1208,-1.0831,-1.0902,-1.1609,-1.1172,-1.0515,-0.9717,-1.066,-1.1304,-1.1319,-1.2043,-1.2577,-1.2753,-1.3053,-1.3107,-1.2669,-1.2437,-1.1781,-1.0738,-1.0148,-0.9614,-0.8856,-0.8703,-0.8703,-0.8703,-0.8703,-0.8703,-0.8703,-0.8703,-0.8703,-0.8627,-0.8165,-0.7476,-0.6553,-0.5631,-0.5018,-0.5018,-0.5018,-0.5018,-0.5018,-0.5018,-0.5018,-0.5018,-0.5018,-0.5018,-0.5018,-0.5018,-0.5018,-0.5018,-0.5018,-0.5018,-0.5018,-0.5018,-0.504,-0.5078,-0.5056,-0.4972,-2.636,-2.6117,-2.552,-2.4936,-2.4374,-2.3772,-2.321,-2.2766,0.0,0.0,0.0,-2.4073,-2.4125,-2.4086,-2.3602,-2.338,-2.3341,-2.2897,-2.2729,-2.2675,-2.2557,-2.2096,-2.1326,-2.117,-2.0666,-1.9875,-1.9798,-1.9798,-1.9798,-1.9798,-1.9592,-1.9198,-1.9133,-1.8804,-1.8255,-1.7644,-1.6906,-1.6035,-1.5776,-1.5877,-1.6229,-1.5804,-1.5339,-1.4894,-1.4138,-1.331,-1.2453,-1.2141,-1.1727,-1.1263,-1.1065,-1.1407,-1.2368,-1.2074,-1.2292,-1.3253,-1.3254,-1.3341,-1.3701,-1.319,-1.3131,-1.369,-1.3007,-1.2033,-1.085,-1.1589,-1.2058,-1.2116,-1.2716,-1.3097,-1.3097,-1.3331,-1.3426,-1.3273,-1.2673,-1.1929,-1.0962,-1.0288,-0.962,-0.8856,-0.8703,-0.8703,-0.8703,-0.8703,-0.8703,-0.8703,-0.8703,-0.8703,-0.8627,-0.8089,-0.7246,-0.6398,-0.5556,-0.5018,-0.5018,-0.5018,-0.5018,-0.5018,-0.5018,-0.5018,-0.5018,-0.5018,-0.5018,-0.5018,-0.5018,-0.5018,-0.5018,-0.5018,-0.5018,-0.5018,-0.5018,-0.5042,-0.5121,-0.5004,-0.4828,-2.8339,-2.7404,-2.6707,-2.6099,-2.5537,-2.4962,-2.4413,-2.3851,-2.3511,-2.3341,-2.3367,-2.389,-2.4125,-2.4112,-2.4021,-2.3995,-2.3995,-2.3903,-2.3877,0.0,-2.3341,-2.2737,-2.2014,-2.1403,-2.0719,-2.0016,-1.9862,-1.9798,-1.9798,-1.9798,-1.9747,-1.9695,-1.9708,-1.9396,-1.8881,-1.8267,-1.7665,-1.6993,-1.6143,-1.5722,-1.5773,-1.5339,-1.4873,-1.4428,-1.4293,-1.3776,-1.2875,-1.3155,-1.3124,-1.2679,-1.2975,-1.3381,-1.3767,-1.3758,-1.3852,-1.4188,-1.4185,-1.433,-1.4561,-1.4035,-1.3597,-1.3502,-1.2915,-1.2227,-1.1574,-1.205,-1.2453,-1.2475,-1.3031,-1.3426,-1.3433,-1.3462,-1.3273,-1.2673,-1.2372,-1.1706,-1.0368,-1.0067,-0.9614,-0.878,-0.8703,-0.8703,-0.8703,-0.8703,-0.8703,-0.8703,-0.8703,-0.8703,-0.8551,-0.7706,-0.7019,-0.6633,-0.5789,-0.5096,-0.5018,-0.5018,-0.5018,-0.5018,-0.5018,-0.5018,-0.5018,-0.5018,-0.5018,-0.5018,-0.5018,-0.5018,-0.5018,-0.5018,-0.494,-0.494,-0.494,-0.4953,-0.4983,-0.4726,-0.4528,-2.8976,-2.8162,-2.7863,-2.7439,-2.6783,-2.6256,-2.5442,-2.457,-2.4295,-2.3981,-2.3746,-2.3995,-2.4125,-2.4086,-2.3772,-2.3616,-2.3629,-2.3302,-2.3328,-2.3602,-2.3341,-2.3024,-2.257,-2.1973,-2.1285,-2.0498,-2.0117,-1.9862,-1.9798,-1.9798,-1.9798,-1.9798,-1.9798,-1.9656,-1.9396,-1.8525,-1.7984,-1.7699,-1.665,-1.6053,-1.6053,-1.5856,-1.5639,-1.5421,-1.5194,-1.4873,-1.4438,-1.4386,-1.4262,-1.4055,-1.4262,-1.4522,-1.4913,-1.4785,-1.4827,-1.5159,-1.5022,-1.4978,-1.5117,-1.4831,-1.4424,-1.387,-1.3657,-1.3066,-1.1981,-1.2285,-1.2526,-1.2548,-1.3111,-1.3492,-1.3492,-1.3492,-1.3353,-1.2973,-1.2973,-1.2305,-1.0887,-1.0588,-1.0056,-0.8932,-0.8703,-0.8703,-0.8703,-0.8703,-0.8703,-0.8703,-0.8703,-0.8703,-0.8703,-0.7706,-0.6865,-0.6788,-0.5867,-0.5096,-0.5018,-0.5018,-0.5018,-0.5018,-0.5018,-0.5018,-0.5018,-0.5018,-0.5018,-0.5018,-0.5018,-0.5018,-0.5018,-0.4781,-0.4701,-0.4623,-0.4467,-0.4403,-0.4372,-0.4075,-0.3848,-2.9456,-2.8989,-2.8904,-2.853,-2.7872,-2.7271,-2.6364,-2.5448,-2.5122,-2.4713,-2.4334,-2.4178,-2.4125,-2.406,-2.3616,-2.342,-2.3367,-2.2962,-2.3001,-2.3393,-2.342,-2.3298,-2.3028,-2.26,-2.1879,-2.0998,-2.0474,-2.0104,-1.9875,-1.985,-1.9811,-1.9798,-1.9798,-1.9798,-1.9798,-1.8685,-1.8093,-1.8038,-1.6965,-1.6374,-1.6374,-1.6374,-1.6363,-1.6353,-1.6032,-1.5835,-1.5825,-1.5504,-1.5308,-1.5308,-1.5308,-1.5473,-1.5804,-1.5568,-1.5542,-1.5816,-1.5604,-1.5468,-1.542,-1.542,-1.5099,-1.4464,-1.4524,-1.4092,-1.2973,-1.2831,-1.2765,-1.2687,-1.3162,-1.3492,-1.3492,-1.3492,-1.3419,-1.3266,-1.32,-1.2452,-1.1111,-1.0812,-1.0288,-0.9008,-0.8703,-0.8703,-0.8703,-0.8703,-0.8703,-0.8703,-0.8703,-0.8703,-0.8551,-0.7706,-0.6942,-0.6633,-0.5789,-0.5096,-0.5018,-0.5018,-0.5018,-0.5018,-0.5018,-0.5018,-0.5018,-0.5018,-0.5018,-0.5018,-0.5018,-0.5018,-0.5018,-0.4781,-0.4633,-0.4653,-0.4413,-0.394,-0.3756,-0.3531,-0.3204,-3.0343,-3.0194,-2.9681,-2.9125,-2.8554,-2.7906,-2.7216,-2.6512,-2.5487,-2.5009,-2.4818,-2.4347,-2.4138,-2.4112,-2.4047,-2.4008,-2.4008,-2.3968,-2.3968,-2.4008,-2.4034,-2.3689,-2.3219,-2.2989,-2.235,-2.1379,-2.1067,-2.059,-2.0003,-1.9978,-1.9926,-1.9798,-1.9798,-1.9798,-1.9695,-1.8673,-1.8093,-1.8093,-1.6976,-1.6374,-1.6374,-1.6374,-1.6374,-1.6374,-1.6332,-1.6312,-1.628,-1.627,-1.6239,-1.6249,-1.6218,-1.626,-1.6301,-1.612,-1.5958,-1.5914,-1.574,-1.5604,-1.542,-1.542,-1.5352,-1.5313,-1.5153,-1.4861,-1.4467,-1.4155,-1.3692,-1.3157,-1.3294,-1.3484,-1.3492,-1.3492,-1.3266,-1.2673,-1.2599,-1.1781,-1.0513,-0.9997,-0.969,-0.8851,-0.878,-0.8703,-0.8703,-0.8703,-0.8703,-0.8703,-0.8703,-0.8703,-0.8627,-0.7629,-0.6942,-0.671,-0.5786,-0.5096,-0.5018,-0.5018,-0.5018,-0.5018,-0.5018,-0.5018,-0.5018,-0.5018,-0.5018,-0.5018,-0.5018,-0.5018,-0.5018,-0.4943,-0.4969,-0.4691,-0.4434,-0.3999,-0.3385,-0.3156,-0.2992,-3.0851,-3.0524,-3.0644,-3.0319,-2.9729,-2.903,-2.8188,-2.7271,-2.6387,-2.5602,-2.5035,-2.4713,-2.4439,-2.4125,-2.4125,-2.4125,-2.4125,-2.4125,-2.4125,-2.4125,-2.4125,-2.3968,-2.3746,-2.3311,-2.2669,-2.182,-2.1417,-2.0797,-2.013,-1.9926,-1.9862,-1.9798,-1.9798,-1.9798,-1.9695,-1.8673,-1.8093,-1.8093,-1.6976,-1.6374,-1.6374,-1.6374,-1.6374,-1.6374,-1.6374,-1.6374,-1.6374,-1.6374,-1.6374,-1.6374,-1.6374,-1.6316,-1.6239,-1.6066,-1.5914,-1.5798,-1.5604,-1.5478,-1.542,-1.542,-1.542,-1.542,-1.5571,-1.5352,-1.4491,-1.4555,-1.4311,-1.3487,-1.3418,-1.3492,-1.3492,-1.3492,-1.3339,-1.3053,-1.3046,-1.2526,-1.149,-1.0887,-1.0288,-0.9539,-0.9003,-0.8703,-0.8703,-0.8703,-0.8703,-0.8703,-0.8703,-0.8703,-0.8623,-0.7629,-0.7019,-0.6707,-0.5789,-0.5096,-0.5018,-0.5018,-0.5018,-0.5018,-0.5018,-0.5018,-0.5018,-0.5018,-0.5018,-0.5018,-0.494,-0.494,-0.5018,-0.4779,-0.4638,-0.4442,-0.3726,-0.3136,-0.2824,-0.2746,-0.2668,-3.1278,-3.0911,-3.1292,-3.1219,-3.0718,-2.9875,-2.9018,-2.8132,-2.7112,-2.6125,-2.5236,-2.504,-2.4648,-2.4164,-2.4125,-2.4125,-2.4125,-2.4125,-2.4125,-2.4125,-2.4125,-2.4112,-2.406,-2.3681,-2.3102,-2.2473,-2.1914,-2.1055,-2.0169,-1.9862,-1.9798,-1.9798,-1.9798,-1.9798,-1.9708,-1.8792,-1.8321,-1.8267,-1.7245,-1.6694,-1.6807,-1.6694,-1.6534,-1.6431,-1.6374,-1.6374,-1.6374,-1.6374,-1.6374,-1.6374,-1.6374,-1.6316,-1.6114,-1.5961,-1.5788,-1.5672,-1.5478,-1.542,-1.542,-1.542,-1.542,-1.5459,-1.5908,-1.5961,-1.5355,-1.523,-1.4821,-1.3924,-1.3637,-1.3492,-1.3492,-1.3492,-1.3492,-1.3492,-1.3492,-1.3119,-1.2003,-1.1409,-1.0657,-0.9765,-0.9008,-0.8703,-0.8703,-0.8703,-0.8703,-0.8703,-0.8703,-0.8703,-0.8551,-0.7859,-0.7092,-0.6942,-0.5941,-0.5249,-0.5018,-0.5018,-0.5018,-0.5018,-0.5018,-0.494,-0.4859,-0.4859,-0.4704,-0.4545,-0.4623,-0.4623,-0.4548,-0.4309,-0.4073,-0.3694,-0.3161,-0.2691,-0.2595,-0.2512,-0.2519,-3.167,-3.1467,-3.1467,-3.1482,-3.1336,-3.0072,-2.949,-2.9177,-2.7528,-2.6411,-2.5808,-2.5284,-2.4661,-2.4164,-2.4138,-2.4125,-2.4125,-2.4125,-2.4125,-2.4125,-2.4125,-2.4125,-2.4125,-2.4086,-2.3746,-2.305,-2.2583,-2.1601,-2.0284,-1.9914,-1.9798,-1.9798,-1.9798,-1.9798,-1.9695,-1.9198,-1.8934,-1.8774,-1.7765,-1.7424,-1.782,-1.7424,-1.6955,-1.6477,-1.6431,-1.642,-1.6374,-1.6374,-1.6374,-1.6374,-1.6374,-1.6306,-1.6124,-1.5961,-1.573,-1.5478,-1.541,-1.542,-1.542,-1.542,-1.542,-1.5518,-1.6182,-1.6953,-1.7194,-1.6301,-1.5317,-1.4609,-1.384,-1.3492,-1.3492,-1.3492,-1.3492,-1.3492,-1.3492,-1.282,-1.1484,-1.126,-1.0357,-0.9306,-0.8856,-0.8703,-0.8703,-0.8703,-0.8703,-0.8703,-0.8703,-0.8703,-0.8627,-0.8093,-0.7476,-0.6938,-0.6247,-0.5634,-0.5171,-0.5171,-0.5096,-0.4937,-0.4937,-0.4859,-0.4621,-0.4384,-0.4231,-0.4075,-0.4075,-0.3997,-0.3919,-0.3765,-0.3608,-0.3401,-0.3315,-0.2916,-0.2522,-0.2514,-0.2522,-3.167,-3.1467,-3.1467,-3.1467,-3.1336,-3.0072,-2.9518,-2.9428,-2.8302,-2.7514,-2.7001,-2.6398,-2.5821,-2.5271,-2.4445,-2.4125,-2.4125,-2.4125,-2.4125,-2.4125,-2.4125,-2.4125,-2.4125,-2.4112,-2.3799,-2.325,-2.3001,-2.22,-2.0822,-2.0219,-1.9862,-1.9798,-1.9798,-1.9798,-1.9695,-1.9303,-1.8987,-1.8922,-1.8147,-1.7875,-1.8093,-1.7875,-1.749,-1.6955,-1.6899,-1.674,-1.6431,-1.6374,-1.6374,-1.6384,-1.6249,-1.6124,-1.5961,-1.572,-1.5536,-1.541,-1.542,-1.542,-1.542,-1.542,-1.542,-1.5478,-1.623,-1.6899,-1.7084,-1.6397,-1.5392,-1.4681,-1.3912,-1.3492,-1.3492,-1.3492,-1.3492,-1.3492,-1.3492,-1.3273,-1.2599,-1.1781,-1.0812,-1.0207,-0.9453,-0.8703,-0.8703,-0.8703,-0.8703,-0.8703,-0.8703,-0.8703,-0.8551,-0.7936,-0.7246,-0.6865,-0.6325,-0.586,-0.5709,-0.5556,-0.5476,-0.5007,-0.4774,-0.4621,-0.4384,-0.4151,-0.3919,-0.3763,-0.3684,-0.3684,-0.3608,-0.3401,-0.3238,-0.3154,-0.3066,-0.2927,-0.2519,-0.2537,-0.2545,-3.1841,-3.1697,-3.164,-3.1612,-3.1467,-3.0315,-2.9827,-2.9766,-2.9093,-2.8384,-2.7699,-2.7264,-2.6654,-2.5861,-2.4873,-2.4387,-2.436,-2.4217,-2.4125,-2.4125,-2.4125,-2.4125,-2.4125,-2.4125,-2.3916,-2.3467,-2.3189,-2.248,-2.1373,-2.0574,-2.0204,-2.0087,-1.9911,-1.9798,-1.9747,-1.9448,-1.9239,-1.9146,-1.8643,-1.8471,-1.8578,-1.8471,-1.8093,-1.7589,-1.7479,-1.7112,-1.6431,-1.6374,-1.6374,-1.6374,-1.6249,-1.6134,-1.5904,-1.5604,-1.542,-1.542,-1.542,-1.542,-1.542,-1.542,-1.542,-1.5449,-1.615,-1.6807,-1.6992,-1.6224,-1.5483,-1.4895,-1.4049,-1.3492,-1.3492,-1.3492,-1.3492,-1.3492,-1.3492,-1.3346,-1.3119,-1.1935,-1.0962,-1.0132,-0.9301,-0.878,-0.8703,-0.8703,-0.8703,-0.8703,-0.8703,-0.8703,-0.8551,-0.8089,-0.7399,-0.7169,-0.6865,-0.6402,-0.6251,-0.6251,-0.5941,-0.5473,-0.4851,-0.4618,-0.4073,-0.3841,-0.3606,-0.345,-0.3372,-0.3372,-0.3308,-0.3101,-0.3018,-0.2917,-0.2896,-0.2703,-0.2586,-0.2575,-0.2591,-3.2094,-3.2079,-3.1883,-3.1799,-3.167,-3.0837,-3.0464,-3.0343,-2.9766,-2.8976,-2.8161,-2.7748,-2.7147,-2.6021,-2.5327,-2.497,-2.4865,-2.4406,-2.4171,-2.4125,-2.4125,-2.4125,-2.4125,-2.4125,-2.4112,-2.3995,-2.3212,-2.2488,-2.1911,-2.1158,-2.0718,-2.0618,-2.0125,-1.9924,-1.9836,-1.9784,-1.9747,-1.9643,-1.9239,-1.9239,-1.9656,-1.9186,-1.8602,-1.8093,-1.8038,-1.7512,-1.642,-1.6374,-1.6374,-1.6374,-1.6384,-1.6259,-1.5856,-1.5604,-1.542,-1.542,-1.542,-1.542,-1.542,-1.542,-1.542,-1.5527,-1.6159,-1.6768,-1.6712,-1.6161,-1.5596,-1.5242,-1.4338,-1.3492,-1.3492,-1.3492,-1.3492,-1.3492,-1.3492,-1.32,-1.2526,-1.1632,-1.0507,-0.9377,-0.8851,-0.8775,-0.8703,-0.8703,-0.8703,-0.8703,-0.8703,-0.8703,-0.8703,-0.8475,-0.8322,-0.7863,-0.7403,-0.7019,-0.6945,-0.6791,-0.6405,-0.6015,-0.5318,-0.4774,-0.3917,-0.3448,-0.3215,-0.3059,-0.2901,-0.2901,-0.291,-0.2779,-0.2724,-0.2644,-0.2616,-0.2646,-0.2636,-0.2628,-0.2658,-3.2094,-3.2038,-3.1996,-3.194,-3.1826,-3.1073,-3.0703,-3.0658,-3.0329,-2.9972,-2.9501,-2.8755,-2.8158,-2.7481,-2.6275,-2.5356,-2.4983,-2.4797,-2.4505,-2.4171,-2.4125,-2.4125,-2.4125,-2.4125,-2.4125,-2.3962,-2.3282,-2.2807,-2.2449,-2.1716,-2.134,-2.1184,-2.0677,-2.0467,-2.0351,-2.0012,-1.9798,-1.9747,-1.9643,-1.9656,-1.9759,-1.9303,-1.8709,-1.8159,-1.8093,-1.7556,-1.6488,-1.6374,-1.6374,-1.6384,-1.6155,-1.5914,-1.5604,-1.5478,-1.542,-1.542,-1.542,-1.542,-1.542,-1.542,-1.542,-1.5566,-1.623,-1.6417,-1.6103,-1.5872,-1.5508,-1.5029,-1.4049,-1.3492,-1.3492,-1.3492,-1.3492,-1.3492,-1.3492,-1.3419,-1.2966,-1.2372,-1.126,-0.9911,-0.9539,-0.9311,-0.8856,-0.8703,-0.8703,-0.8627,-0.8703,-0.8703,-0.8627,-0.8394,-0.8089,-0.7783,-0.7633,-0.7403,-0.7096,-0.6633,-0.6167,-0.5702,-0.5162,-0.4543,-0.3682,-0.3137,-0.2902,-0.2678,-0.2598,-0.2525,-0.253,-0.2555,-0.2589,-0.2595,-0.2621,-0.2644,-0.2664,-0.2681,-0.27,-3.2247,-3.215,-3.2094,-3.2094,-3.2038,-3.1394,-3.1161,-3.1146,-3.097,-3.0718,-3.0363,-2.97,-2.9199,-2.8643,-2.7001,-2.6034,-2.5595,-2.5052,-2.4447,-2.4171,-2.4125,-2.4125,-2.4125,-2.4125,-2.4125,-2.4002,-2.3502,-2.3206,-2.3065,-2.2312,-2.1908,-2.1694,-2.1041,-2.0706,-2.0668,-2.01,-1.9798,-1.9798,-1.9798,-1.9798,-1.9747,-1.9488,-1.9028,-1.8536,-1.8429,-1.7952,-1.7078,-1.6797,-1.6591,-1.6374,-1.6087,-1.5798,-1.5604,-1.5478,-1.542,-1.542,-1.542,-1.542,-1.542,-1.542,-1.542,-1.5557,-1.6221,-1.6373,-1.5808,-1.565,-1.5367,-1.4673,-1.3912,-1.3492,-1.3492,-1.3426,-1.3419,-1.3346,-1.3492,-1.3346,-1.3119,-1.2599,-1.1632,-1.0363,-0.9846,-0.9468,-0.8861,-0.8703,-0.8627,-0.8551,-0.8551,-0.8556,-0.8479,-0.8174,-0.8016,-0.7863,-0.7791,-0.7484,-0.6942,-0.6398,-0.5851,-0.5312,-0.4771,-0.4073,-0.3294,-0.3061,-0.2906,-0.2708,-0.2559,-0.2587,-0.2597,-0.2634,-0.2666,-0.2654,-0.2635,-0.2676,-0.2706,-0.2703,-0.2711,-3.2398,-3.2398,-3.2247,-3.2191,-3.2191,-3.1883,-3.1769,-3.1712,-3.1597,-3.1146,-3.0629,-3.0392,-3.0076,-2.9271,-2.7732,-2.6849,-2.6511,-2.5162,-2.4294,-2.4197,-2.4125,-2.4125,-2.4125,-2.4125,-2.4125,-2.4054,-2.3767,-2.3636,-2.35,-2.2832,-2.2359,-2.2246,-2.1398,-2.0781,-2.0665,-2.0125,-1.9798,-1.9798,-1.9798,-1.9798,-1.9798,-1.9708,-1.9448,-1.8987,-1.8934,-1.8602,-1.782,-1.7279,-1.6842,-1.6431,-1.6087,-1.5856,-1.5798,-1.5594,-1.542,-1.542,-1.542,-1.542,-1.542,-1.542,-1.542,-1.5478,-1.613,-1.6402,-1.5771,-1.5769,-1.5525,-1.4673,-1.3977,-1.3557,-1.3492,-1.3346,-1.3273,-1.3266,-1.3346,-1.3119,-1.2526,-1.2298,-1.1484,-1.0363,-0.9846,-0.9468,-0.8556,-0.8551,-0.8403,-0.8255,-0.825,-0.8331,-0.8178,-0.8102,-0.8102,-0.8025,-0.7949,-0.7249,-0.6707,-0.6163,-0.5464,-0.43,-0.3912,-0.3524,-0.3059,-0.2904,-0.2829,-0.2631,-0.2586,-0.2621,-0.2642,-0.2651,-0.2666,-0.2654,-0.267,-0.2721,-0.273,-0.2717,-0.2692,-3.2398,-3.2398,-3.2342,-3.2342,-3.2342,-3.215,-3.2038,-3.1955,-3.1799,-3.1539,-3.1146,-3.0703,-3.045,-3.0093,-2.8689,-2.7635,-2.6786,-2.581,-2.4851,-2.421,-2.4125,-2.4125,-2.4125,-2.4125,-2.4125,-2.4054,-2.3891,-2.3819,-2.376,-2.3285,-2.3077,-2.3065,-2.1889,-2.1267,-2.1154,-2.03,-1.9836,-1.9798,-1.9798,-1.9798,-1.9759,-1.9448,-1.9146,-1.904,-1.904,-1.8483,-1.7534,-1.6899,-1.6524,-1.6181,-1.6019,-1.5856,-1.573,-1.5546,-1.542,-1.542,-1.542,-1.542,-1.542,-1.542,-1.542,-1.5488,-1.623,-1.6383,-1.5698,-1.6202,-1.5817,-1.4824,-1.4258,-1.3905,-1.3331,-1.3273,-1.3346,-1.3346,-1.3193,-1.2973,-1.2746,-1.2224,-1.1477,-1.0496,-0.9825,-0.9155,-0.8479,-0.825,-0.825,-0.8102,-0.8102,-0.8178,-0.8025,-0.8025,-0.8025,-0.8102,-0.7872,-0.7092,-0.6395,-0.5851,-0.4921,-0.3444,-0.2979,-0.2978,-0.2666,-0.2668,-0.2592,-0.2529,-0.2555,-0.2589,-0.2586,-0.2586,-0.2605,-0.2654,-0.2676,-0.271,-0.2706,-0.2694,-0.2578,-3.2398,-3.2398,-3.2398,-3.2398,-3.2398,-3.2247,-3.2094,-3.1996,-3.1856,-3.167,-3.1424,-3.1087,-3.0911,-3.0749,-2.9274,-2.8278,-2.7535,-2.6353,-2.5303,-2.4571,-2.4229,-2.4112,-2.4125,-2.4125,-2.4125,-2.4054,-2.3891,-2.376,-2.37,-2.345,-2.3271,-2.3094,-2.2329,-2.1744,-2.1405,-2.0665,-2.0024,-1.9849,-1.9798,-1.9798,-1.9747,-1.95,-1.9384,-1.9344,-1.9344,-1.8845,-1.7972,-1.7556,-1.7179,-1.656,-1.6134,-1.5866,-1.5672,-1.5488,-1.542,-1.542,-1.542,-1.542,-1.542,-1.542,-1.542,-1.5566,-1.623,-1.6243,-1.5873,-1.6116,-1.5745,-1.4681,-1.433,-1.3833,-1.3339,-1.32,-1.32,-1.2973,-1.2826,-1.2753,-1.3046,-1.2452,-1.1626,-1.0714,-0.9895,-0.8998,-0.8178,-0.8025,-0.8025,-0.7949,-0.7953,-0.7872,-0.7872,-0.7872,-0.7868,-0.7868,-0.7791,-0.7092,-0.6318,-0.5774,-0.5076,-0.3522,-0.2588,-0.251,-0.251,-0.2511,-0.2526,-0.2533,-0.2541,-0.2552,-0.2565,-0.2587,-0.2636,-0.2673,-0.2684,-0.2673,-0.2665,-0.2571,-0.246,-3.2398,-3.2398,-3.2398,-3.2398,-3.2398,-3.2302,-3.215,-3.2053,-3.1883,-3.1769,-3.1597,-3.1524,-3.1467,-3.1407,-2.9637,-2.8739,-2.8508,-2.6778,-2.5702,-2.4932,-2.4447,-2.4125,-2.4125,-2.4125,-2.4125,-2.4054,-2.3747,-2.3688,-2.3628,-2.339,-2.3198,-2.3047,-2.2606,-2.2071,-2.1644,-2.1041,-2.0476,-2.0049,-1.9987,-1.9911,-1.9836,-1.9759,-1.9695,-1.9695,-1.9552,-1.9279,-1.8804,-1.8483,-1.7929,-1.7,-1.6363,-1.6029,-1.5846,-1.5594,-1.542,-1.542,-1.542,-1.542,-1.542,-1.542,-1.5459,-1.5644,-1.6289,-1.6494,-1.6095,-1.6111,-1.5745,-1.4816,-1.3977,-1.363,-1.3353,-1.3075,-1.2868,-1.2627,-1.2378,-1.2599,-1.2966,-1.2599,-1.17,-1.0708,-0.982,-0.8851,-0.825,-0.7872,-0.7868,-0.7714,-0.7718,-0.7718,-0.7638,-0.7638,-0.7638,-0.7638,-0.748,-0.7249,-0.6472,-0.5774,-0.4999,-0.399,-0.2899,-0.251,-0.251,-0.2518,-0.2541,-0.255,-0.2538,-0.256,-0.26,-0.2634,-0.2659,-0.2654,-0.2555,-0.2542,-0.253,-0.2437,-0.2334,-3.2398,-3.2398,-3.2398,-3.2398,-3.2398,-3.2398,-3.2302,-3.215,-3.2094,-3.1981,-3.1883,-3.1769,-3.1727,-3.161,-3.0116,-2.9102,-2.8621,-2.7172,-2.6008,-2.5018,-2.439,-2.4112,-2.4112,-2.4112,-2.4112,-2.4054,-2.4054,-2.3995,-2.3878,-2.3628,-2.3497,-2.3361,-2.2732,-2.2259,-2.2058,-2.1556,-2.1041,-2.0577,-2.0529,-2.0238,-1.9911,-1.9899,-1.9886,-1.9797,-1.946,-1.9133,-1.875,-1.7941,-1.7224,-1.6888,-1.6616,-1.6353,-1.6171,-1.57,-1.542,-1.542,-1.542,-1.542,-1.542,-1.5449,-1.5566,-1.5908,-1.6354,-1.6821,-1.7041,-1.6628,-1.607,-1.5242,-1.4482,-1.3732,-1.3205,-1.292,-1.2736,-1.2547,-1.2035,-1.1726,-1.1781,-1.1099,-1.0196,-0.9372,-0.8618,-0.7859,-0.7638,-0.7638,-0.7633,-0.748,-0.748,-0.7557,-0.7557,-0.748,-0.748,-0.748,-0.7015,-0.6707,-0.6163,-0.5309,-0.4455,-0.3834,-0.2978,-0.251,-0.251,-0.2511,-0.2529,-0.253,-0.2522,-0.2553,-0.2587,-0.26,-0.261,-0.2517,-0.2508,-0.2417,-0.2405,-0.2231,-0.1668,-3.2398,-3.2398,-3.2398,-3.2398,-3.2398,-3.2398,-3.2342,-3.2191,-3.2191,-3.2135,-3.1996,-3.1898,-3.1841,-3.1724,-3.0651,-2.9758,-2.8855,-2.7417,-2.638,-2.5743,-2.5203,-2.4778,-2.4563,-2.4447,-2.439,-2.4171,-2.3936,-2.3878,-2.3806,-2.3569,-2.3305,-2.3378,-2.2883,-2.2548,-2.2334,-2.202,-2.1594,-2.1154,-2.1041,-2.0778,-2.0313,-2.0476,-2.0413,-2.0162,-1.9713,-1.9344,-1.9186,-1.8309,-1.7765,-1.739,-1.6832,-1.6332,-1.6046,-1.5642,-1.541,-1.542,-1.542,-1.542,-1.543,-1.5605,-1.582,-1.6064,-1.6578,-1.6718,-1.6722,-1.6437,-1.5831,-1.5025,-1.4301,-1.3599,-1.3223,-1.2962,-1.2797,-1.2263,-1.1746,-1.1169,-1.046,-0.99,-0.9448,-0.8851,-0.8246,-0.7787,-0.7561,-0.748,-0.748,-0.748,-0.748,-0.7557,-0.7557,-0.748,-0.748,-0.7326,-0.663,-0.6163,-0.5619,-0.4844,-0.3756,-0.3212,-0.2743,-0.251,-0.251,-0.251,-0.2511,-0.2512,-0.2514,-0.2512,-0.254,-0.255,-0.256,-0.2471,-0.2463,-0.2375,-0.2213,-0.2133,-0.1262,-3.2398,-3.2398,-3.2398,-3.2398,-3.2398,-3.2398,-3.2342,-3.2247,-3.2247,-3.2191,-3.2053,-3.2053,-3.1955,-3.169,-3.1005,-3.0258,-2.9128,-2.7686,-2.6539,-2.619,-2.5851,-2.5258,-2.4892,-2.4892,-2.4708,-2.4157,-2.3865,-2.3747,-2.3688,-2.3378,-2.3318,-2.3198,-2.3125,-2.2874,-2.2523,-2.241,-2.2159,-2.1694,-2.1606,-2.1343,-2.0928,-2.1167,-2.1117,-2.079,-2.0275,-1.988,-1.9633,-1.8887,-1.8321,-1.8104,-1.7166,-1.63,-1.5663,-1.543,-1.542,-1.542,-1.5498,-1.5586,-1.5674,-1.5928,-1.6201,-1.626,-1.6757,-1.6939,-1.6575,-1.6138,-1.5606,-1.4906,-1.4253,-1.3509,-1.3461,-1.3243,-1.2602,-1.1887,-1.148,-1.0517,-0.9299,-0.9,-0.8832,-0.8623,-0.8093,-0.7638,-0.7561,-0.748,-0.748,-0.748,-0.748,-0.748,-0.748,-0.748,-0.748,-0.7092,-0.6395,-0.5076,-0.4455,-0.4222,-0.3134,-0.2899,-0.251,-0.251,-0.2431,-0.2431,-0.2431,-0.251,-0.251,-0.251,-0.2431,-0.2444,-0.2446,-0.2431,-0.2277,-0.2047,-0.2045,-0.2041,-0.094,-3.2398,-3.2398,-3.2398,-3.2398,-3.2398,-3.2398,-3.2398,-3.2342,-3.2342,-3.2342,-3.2287,-3.2094,-3.1996,-3.1773,-3.0949,-2.9963,-2.8845,-2.7474,-2.6563,-2.6229,-2.5946,-2.5522,-2.4878,-2.5258,-2.5034,-2.4332,-2.3995,-2.3995,-2.3878,-2.3688,-2.345,-2.3437,-2.3198,-2.2952,-2.2927,-2.2902,-2.2673,-2.2259,-2.2171,-2.1895,-2.1531,-2.1405,-2.1493,-2.1267,-2.0803,-2.0498,-2.0093,-1.9174,-1.8201,-1.7634,-1.7641,-1.7005,-1.6178,-1.5654,-1.5537,-1.5586,-1.5801,-1.5957,-1.6016,-1.6367,-1.6777,-1.708,-1.7259,-1.7445,-1.7311,-1.6872,-1.5948,-1.5303,-1.4491,-1.3721,-1.3299,-1.3407,-1.284,-1.2,-1.1107,-1.0274,-0.9247,-0.8577,-0.8112,-0.8009,-0.7744,-0.7561,-0.7557,-0.748,-0.748,-0.748,-0.748,-0.748,-0.748,-0.748,-0.748,-0.6861,-0.6086,-0.4533,-0.3134,-0.3056,-0.2666,-0.2666,-0.251,-0.2431,-0.2353,-0.2273,-0.2273,-0.2353,-0.2431,-0.2433,-0.2353,-0.2275,-0.2275,-0.2276,-0.2042,-0.1807,-0.1806,-0.1727,-0.0706,-3.2398,-3.2398,-3.2398,-3.2398,-3.2398,-3.2398,-3.2398,-3.2398,-3.2398,-3.2398,-3.2342,-3.2247,-3.215,-3.1905,-3.1581,-3.0493,-2.9092,-2.7773,-2.7026,-2.6759,-2.664,-2.6336,-2.537,-2.5797,-2.5258,-2.4664,-2.4287,-2.4112,-2.4008,-2.3641,-2.3509,-2.3437,-2.3198,-2.3125,-2.3125,-2.304,-2.2927,-2.2749,-2.2686,-2.246,-2.192,-2.1694,-2.1619,-2.1606,-2.1306,-2.0964,-2.0588,-1.9829,-1.8896,-1.8311,-1.8019,-1.7336,-1.6697,-1.6311,-1.6094,-1.6143,-1.6289,-1.6406,-1.6475,-1.6807,-1.7093,-1.7203,-1.7359,-1.7301,-1.7028,-1.6298,-1.5765,-1.4896,-1.4374,-1.3824,-1.3674,-1.3667,-1.2896,-1.1741,-1.0958,-1.0162,-0.9005,-0.826,-0.7873,-0.7626,-0.7541,-0.7577,-0.7557,-0.748,-0.748,-0.748,-0.748,-0.748,-0.748,-0.7403,-0.7326,-0.6549,-0.5696,-0.4377,-0.2978,-0.2588,-0.2431,-0.2431,-0.2433,-0.2353,-0.2275,-0.2196,-0.2196,-0.2273,-0.2275,-0.2198,-0.2199,-0.2042,-0.2042,-0.2042,-0.1886,-0.1729,-0.165,-0.1257,-0.0235,-3.2398,-3.2398,-3.2398,-3.2398,-3.2398,-3.2398,-3.2398,-3.2398,-3.2398,-3.2398,-3.2398,-3.2342,-3.2247,-3.1946,-3.1516,-3.08,-2.9624,-2.8397,-2.7771,-2.7573,-2.7661,-2.7395,-2.6525,-2.6283,-2.5851,-2.5203,-2.5048,-2.4319,-2.3891,-2.3641,-2.345,-2.333,-2.3198,-2.3125,-2.3125,-2.3125,-2.3125,-2.3125,-2.3113,-2.2862,-2.2472,-2.2038,-2.1893,-2.2138,-2.1728,-2.1329,-2.1076,-2.0457,-1.975,-1.9197,-1.878,-1.8216,-1.7478,-1.7369,-1.7356,-1.7155,-1.6978,-1.6865,-1.6963,-1.7256,-1.7453,-1.7445,-1.7484,-1.7235,-1.6874,-1.6336,-1.5196,-1.4167,-1.381,-1.3904,-1.3935,-1.3868,-1.3003,-1.1879,-1.1109,-1.0376,-0.9123,-0.8258,-0.7983,-0.7748,-0.7594,-0.7512,-0.7488,-0.748,-0.748,-0.748,-0.748,-0.748,-0.748,-0.7092,-0.6784,-0.616,-0.5306,-0.4066,-0.3054,-0.251,-0.2353,-0.2353,-0.2276,-0.2199,-0.212,-0.2119,-0.2119,-0.204,-0.1884,-0.1807,-0.1808,-0.1887,-0.1807,-0.1807,-0.1808,-0.1572,-0.1099,-0.0706,-0.0078,-3.2398,-3.2398,-3.2453,-3.2398,-3.2453,-3.2453,-3.2398,-3.2398,-3.2398,-3.2398,-3.2398,-3.2302,-3.2247,-3.1936,-3.0728,-3.0283,-2.9903,-2.9026,-2.8181,-2.7889,-2.8055,-2.7483,-2.6394,-2.7034,-2.6496,-2.5851,-2.6014,-2.5356,-2.4319,-2.3747,-2.3522,-2.339,-2.3198,-2.3125,-2.3125,-2.3125,-2.3125,-2.3125,-2.3125,-2.3088,-2.294,-2.2767,-2.2685,-2.2538,-2.2122,-2.1697,-2.1531,-2.0983,-2.0405,-1.9851,-2.0497,-2.0224,-1.9427,-1.9522,-1.9295,-1.8644,-1.7935,-1.7305,-1.7373,-1.7637,-1.7784,-1.7629,-1.7687,-1.777,-1.7288,-1.6681,-1.5795,-1.5013,-1.4468,-1.4142,-1.4055,-1.4041,-1.3425,-1.2523,-1.1442,-1.0673,-0.9513,-0.8225,-0.7963,-0.7776,-0.7598,-0.7525,-0.7484,-0.748,-0.748,-0.748,-0.748,-0.748,-0.7326,-0.6938,-0.5928,-0.5151,-0.4686,-0.3599,-0.2899,-0.2353,-0.2276,-0.2196,-0.2119,-0.2043,-0.1964,-0.1886,-0.1729,-0.1572,-0.1493,-0.1572,-0.1651,-0.173,-0.1651,-0.1573,-0.1573,-0.1021,-0.0314,-0.0,0.0235,-3.3339,-3.3319,-3.3319,-3.3108,-3.2841,-3.2841,-3.2695,-3.2453,-3.2398,-3.2398,-3.2382,-3.2342,-3.2302,-3.1962,-3.0934,-3.0558,-3.0373,-2.9312,-2.8554,-2.8142,-2.8092,-2.7602,-2.7041,-2.6982,-2.6669,-2.6496,-2.6054,-2.5356,-2.4465,-2.4131,-2.3969,-2.3509,-2.3258,-2.3125,-2.3185,-2.3125,-2.3125,-2.3125,-2.3125,-2.3125,-2.3078,-2.2957,-2.2848,-2.2787,-2.2359,-2.2068,-2.1862,-2.1741,-2.1247,-2.0711,-2.1067,-2.054,-1.9555,-1.9249,-1.91,-1.8442,-1.789,-1.759,-1.7552,-1.7775,-1.7765,-1.7598,-1.743,-1.7156,-1.682,-1.6403,-1.5746,-1.4606,-1.4152,-1.3991,-1.4048,-1.4082,-1.3222,-1.2334,-1.1566,-1.0354,-0.9428,-0.8569,-0.7805,-0.7703,-0.7618,-0.7492,-0.7435,-0.7488,-0.7484,-0.7403,-0.7403,-0.7326,-0.7092,-0.6626,-0.5384,-0.383,-0.3521,-0.3132,-0.2588,-0.2042,-0.2043,-0.2042,-0.2042,-0.1887,-0.1808,-0.173,-0.1493,-0.1415,-0.1415,-0.1493,-0.1573,-0.1573,-0.1493,-0.1415,-0.1336,-0.0706,-0.0078,0.0157,0.0548,-3.4496,-3.4219,-3.3919,-3.3563,-3.3182,-3.3039,-3.2734,-3.2453,-3.2398,-3.2398,-3.2398,-3.2398,-3.2342,-3.2023,-3.1384,-3.0945,-3.0981,-2.9629,-2.9042,-2.8659,-2.8188,-2.7799,-2.7467,-2.7152,-2.6997,-2.6893,-2.6602,-2.5892,-2.5342,-2.4894,-2.4637,-2.3793,-2.3826,-2.3531,-2.3424,-2.3365,-2.3365,-2.3125,-2.3125,-2.3125,-2.3078,-2.2957,-2.2848,-2.2678,-2.2494,-2.2359,-2.2185,-2.2149,-2.1803,-2.153,-2.1118,-2.0662,-1.9912,-1.9267,-1.8911,-1.8317,-1.793,-1.7599,-1.7522,-1.7569,-1.751,-1.7439,-1.7343,-1.7207,-1.6057,-1.5779,-1.5351,-1.4357,-1.4005,-1.3935,-1.4015,-1.4088,-1.3392,-1.236,-1.1387,-1.0025,-0.8906,-0.8237,-0.7777,-0.7676,-0.7589,-0.7473,-0.7418,-0.7435,-0.7411,-0.7326,-0.7249,-0.7173,-0.6549,-0.5848,-0.4606,-0.2898,-0.2744,-0.2589,-0.2277,-0.1887,-0.1887,-0.1808,-0.1808,-0.173,-0.1651,-0.1573,-0.1493,-0.1415,-0.1415,-0.1415,-0.1415,-0.1336,-0.1336,-0.1336,-0.1178,-0.0628,-0.0078,0.0313,0.1096,-3.5498,-3.4833,-3.3751,-3.3303,-3.3182,-3.2641,-3.2453,-3.2398,-3.2398,-3.2398,-3.2398,-3.2398,-3.2358,-3.2053,-3.1576,-3.1319,-3.1588,-3.0213,-2.9604,-2.9274,-2.8831,-2.8113,-2.7763,-2.7599,-2.7458,-2.7458,-2.7137,-2.6774,-2.6443,-2.596,-2.5245,-2.4292,-2.4337,-2.4337,-2.406,-2.3662,-2.3543,-2.3305,-2.3125,-2.3078,-2.3017,-2.2957,-2.2787,-2.2678,-2.2482,-2.2297,-2.2197,-2.2197,-2.2123,-2.1925,-2.1388,-2.0996,-2.0344,-1.9431,-1.8767,-1.8375,-1.7784,-1.752,-1.7373,-1.7451,-1.748,-1.7618,-1.7685,-1.7411,-1.6156,-1.634,-1.5756,-1.4391,-1.3995,-1.3937,-1.3984,-1.3913,-1.3215,-1.2035,-1.0858,-0.9962,-0.8866,-0.8164,-0.7732,-0.7698,-0.7604,-0.7423,-0.7278,-0.7285,-0.7338,-0.7253,-0.6703,-0.6549,-0.5074,-0.4297,-0.3365,-0.2353,-0.212,-0.1964,-0.1964,-0.1808,-0.1651,-0.1573,-0.1573,-0.1493,-0.1415,-0.1336,-0.1415,-0.1336,-0.1336,-0.1336,-0.1336,-0.1336,-0.1336,-0.1336,-0.1021,-0.0471,0.0784,0.188,0.2584,-3.5932,-3.5543,-3.4657,-3.3903,-3.3198,-3.2986,-3.2695,-3.2453,-3.2398,-3.2398,-3.2398,-3.2398,-3.2398,-3.2195,-3.2087,-3.1631,-3.1243,-3.034,-2.9885,-2.9229,-2.8562,-2.8128,-2.7904,-2.7784,-2.756,-2.7575,-2.7473,-2.71,-2.6404,-2.6578,-2.615,-2.5425,-2.4851,-2.406,-2.3721,-2.3721,-2.3603,-2.3603,-2.3185,-2.2969,-2.2909,-2.2714,-2.2543,-2.2543,-2.2371,-2.2247,-2.2197,-2.2197,-2.2197,-2.1999,-2.1463,-2.0996,-2.0473,-1.9354,-1.8633,-1.824,-1.7579,-1.7314,-1.7245,-1.7273,-1.7348,-1.7475,-1.7602,-1.7295,-1.6198,-1.6006,-1.5365,-1.4496,-1.4055,-1.3924,-1.33,-1.3124,-1.2644,-1.127,-1.033,-0.9495,-0.8737,-0.7902,-0.7608,-0.7535,-0.749,-0.7402,-0.7219,-0.7049,-0.7115,-0.7103,-0.6475,-0.5693,-0.4219,-0.3132,-0.243,-0.1962,-0.1729,-0.1651,-0.1651,-0.1493,-0.1415,-0.1415,-0.1336,-0.1336,-0.1336,-0.1336,-0.1336,-0.1336,-0.1336,-0.1336,-0.1336,-0.1336,-0.1336,-0.1336,-0.0943,-0.0392,0.1176,0.2978,0.3771,-3.6062,-3.5766,-3.5299,-3.4496,-3.3547,-3.3303,-3.2895,-3.2437,-3.2398,-3.2398,-3.2398,-3.2398,-3.2398,-3.2398,-3.2312,-3.2032,-3.1409,-3.0691,-3.0295,-2.9591,-2.8892,-2.8344,-2.8269,-2.7993,-2.756,-2.7575,-2.7473,-2.71,-2.6683,-2.6937,-2.6486,-2.577,-2.509,-2.4523,-2.4176,-2.3543,-2.3603,-2.3543,-2.3365,-2.2909,-2.2848,-2.2726,-2.2482,-2.242,-2.2309,-2.2259,-2.2197,-2.2197,-2.2197,-2.1987,-2.1526,-2.0741,-2.002,-1.9156,-1.8375,-1.7774,-1.7304,-1.7107,-1.7116,-1.7265,-1.7389,-1.7706,-1.7476,-1.7044,-1.6254,-1.5604,-1.4868,-1.4074,-1.3874,-1.3515,-1.2626,-1.2559,-1.1689,-1.0414,-0.9735,-0.902,-0.8133,-0.735,-0.7308,-0.7278,-0.7254,-0.7133,-0.7021,-0.6858,-0.6409,-0.6167,-0.5386,-0.4608,-0.3443,-0.2508,-0.204,-0.1649,-0.1415,-0.1336,-0.1336,-0.1336,-0.1415,-0.1336,-0.1336,-0.1336,-0.1336,-0.1336,-0.1336,-0.1336,-0.1336,-0.1336,-0.1336,-0.1258,-0.1336,-0.1336,-0.055,0.0392,0.1254,0.2823,0.3949,-3.5968,-3.5419,-3.5419,-3.4925,-3.4137,-3.3495,-3.2933,-3.2602,-3.2508,-3.2453,-3.2398,-3.2398,-3.2398,-3.2398,-3.2287,-3.2093,-3.1738,-3.1171,-3.0803,-3.0332,-2.9373,-2.8816,-2.8479,-2.8113,-2.7709,-2.759,-2.7524,-2.7321,-2.7063,-2.7078,-2.6645,-2.6218,-2.5825,-2.555,-2.566,-2.458,-2.378,-2.3258,-2.3125,-2.2969,-2.2848,-2.2726,-2.2543,-2.242,-2.2297,-2.2185,-2.2123,-2.1999,-2.1999,-2.1862,-2.1198,-2.0462,-1.9803,-1.889,-1.8037,-1.7373,-1.7038,-1.6908,-1.6917,-1.7266,-1.7606,-1.7794,-1.7527,-1.6705,-1.6206,-1.5431,-1.4462,-1.3585,-1.3244,-1.2881,-1.2463,-1.1875,-1.0555,-0.9528,-0.888,-0.8387,-0.7517,-0.7099,-0.7126,-0.7183,-0.6994,-0.6853,-0.6723,-0.651,-0.5886,-0.5234,-0.4375,-0.3443,-0.2586,-0.204,-0.1649,-0.1492,-0.1336,-0.1336,-0.1336,-0.1336,-0.1336,-0.1336,-0.1336,-0.1336,-0.1336,-0.1336,-0.1336,-0.1336,-0.1258,-0.1258,-0.1258,-0.1258,-0.0943,-0.0471,0.0549,0.1488,0.2036,0.283,0.4051,-3.6174,-3.5985,-3.5958,-3.5571,-3.4925,-3.4186,-3.37,-3.3407,-3.3108,-3.2749,-3.2437,-3.2398,-3.2398,-3.2398,-3.2351,-3.2143,-3.1564,-3.1427,-3.1034,-3.0709,-2.9879,-2.9516,-2.9079,-2.8517,-2.7993,-2.7679,-2.7524,-2.7372,-2.7167,-2.713,-2.6937,-2.6568,-2.6272,-2.5988,-2.5133,-2.4163,-2.3365,-2.3412,-2.3125,-2.2739,-2.2604,-2.2482,-2.2432,-2.2247,-2.2111,-2.1987,-2.1925,-2.1737,-2.1675,-2.1537,-2.0741,-2.002,-1.942,-1.8566,-1.7696,-1.7235,-1.6968,-1.6769,-1.674,-1.69,-1.7521,-1.7604,-1.7,-1.6116,-1.5534,-1.4448,-1.3709,-1.3139,-1.2571,-1.1926,-1.0924,-1.0187,-0.9136,-0.8188,-0.7585,-0.7509,-0.7006,-0.6965,-0.6924,-0.6998,-0.6872,-0.6734,-0.6634,-0.625,-0.5652,-0.4927,-0.4068,-0.2976,-0.204,-0.1727,-0.1414,-0.1414,-0.1336,-0.1336,-0.1336,-0.1336,-0.1336,-0.1336,-0.1336,-0.1336,-0.1336,-0.1258,-0.1258,-0.1258,-0.1258,-0.1179,-0.0864,-0.0471,-0.0,0.0706,0.1646,0.2663,0.3524,0.4038,0.4748,-3.6284,-3.6284,-3.6233,-3.6002,-3.5571,-3.4688,-3.4003,-3.3527,-3.3108,-3.2695,-3.2492,-3.2586,-3.2547,-3.2547,-3.2703,-3.2408,-3.1682,-3.1844,-3.1549,-3.1222,-3.0537,-3.0036,-2.9522,-2.8989,-2.8188,-2.7769,-2.7488,-2.7372,-2.7218,-2.7078,-2.6937,-2.6727,-2.6486,-2.5865,-2.5119,-2.4553,-2.4047,-2.3917,-2.3352,-2.2896,-2.2592,-2.2359,-2.2247,-2.2185,-2.2061,-2.1862,-2.1663,-2.1474,-2.1285,-2.0955,-2.0431,-1.9704,-1.9243,-1.871,-1.7833,-1.7501,-1.7038,-1.6833,-1.6688,-1.6529,-1.7226,-1.8077,-1.6404,-1.5242,-1.4562,-1.3591,-1.3048,-1.2457,-1.1878,-1.1169,-1.0312,-0.9431,-0.8444,-0.7596,-0.7021,-0.6947,-0.6776,-0.6662,-0.6655,-0.6721,-0.6718,-0.6563,-0.6331,-0.5957,-0.5413,-0.4623,-0.3917,-0.2744,-0.1649,-0.1414,-0.1258,-0.1258,-0.1258,-0.1258,-0.1258,-0.1336,-0.1336,-0.1336,-0.1336,-0.1336,-0.1179,-0.11,-0.11,-0.1179,-0.1179,-0.0943,-0.0236,0.0392,0.149,0.2195,0.2741,0.3761,0.4859,0.5094,0.5267,-3.6301,-3.6284,-3.6284,-3.6233,-3.5975,-3.4958,-3.3834,-3.2765,-3.2656,-3.2586,-3.2532,-3.3093,-3.3093,-3.2803,-3.3475,-3.3208,-3.2354,-3.266,-3.2338,-3.1894,-3.1189,-3.0546,-2.984,-2.92,-2.8561,-2.7955,-2.7554,-2.7321,-2.7218,-2.7078,-2.6937,-2.6659,-2.615,-2.5742,-2.5563,-2.5356,-2.4781,-2.4034,-2.3623,-2.3173,-2.2714,-2.2482,-2.2309,-2.2185,-2.1999,-2.1737,-2.1537,-2.1348,-2.1221,-2.1094,-2.0903,-2.0431,-2.0031,-1.9715,-1.8844,-1.7901,-1.7028,-1.6731,-1.649,-1.6212,-1.6294,-1.6801,-1.5811,-1.4691,-1.3614,-1.2731,-1.2415,-1.2062,-1.1548,-1.1189,-1.0589,-0.956,-0.8548,-0.7671,-0.6906,-0.6655,-0.6423,-0.6338,-0.6338,-0.6335,-0.6338,-0.6103,-0.5712,-0.5251,-0.4472,-0.4001,-0.3215,-0.2431,-0.1492,-0.1257,-0.11,-0.11,-0.11,-0.1179,-0.1179,-0.11,-0.11,-0.1022,-0.1258,-0.1258,-0.11,-0.0943,-0.11,-0.1179,-0.11,-0.0786,-0.0079,0.1569,0.3612,0.4081,0.3999,0.4153,0.5021,0.5192,0.5373,-3.6385,-3.6301,-3.6284,-3.6301,-3.6174,-3.5419,-3.4847,-3.4447,-3.4382,-3.4219,-3.3836,-3.3887,-3.3751,-3.3735,-3.3495,-3.2986,-3.2453,-3.2017,-3.1949,-3.1696,-3.1504,-3.1243,-3.0685,-2.9983,-2.9213,-2.8381,-2.7742,-2.7423,-2.7181,-2.7078,-2.6937,-2.6674,-2.619,-2.6014,-2.5906,-2.5934,-2.4964,-2.4208,-2.3859,-2.328,-2.2836,-2.2604,-2.2297,-2.1987,-2.1675,-2.1411,-2.1094,-2.0839,-2.0646,-2.0529,-2.0042,-1.9573,-1.9386,-1.8432,-1.7345,-1.6524,-1.5982,-1.5689,-1.5593,-1.5145,-1.4993,-1.495,-1.3961,-1.2973,-1.212,-1.1929,-1.1878,-1.1601,-1.1057,-1.0568,-0.9893,-0.8975,-0.8084,-0.7322,-0.6641,-0.6335,-0.6183,-0.6103,-0.6025,-0.6022,-0.6025,-0.5485,-0.5015,-0.3917,-0.3137,-0.2904,-0.2512,-0.1806,-0.1492,-0.1178,-0.0864,-0.0864,-0.0786,-0.0786,-0.0786,-0.0707,-0.0786,-0.0786,-0.0943,-0.1022,-0.0786,-0.0786,-0.11,-0.0943,-0.0629,-0.0393,-0.0079,0.1962,0.4323,0.4953,0.5026,0.5023,0.5118,0.5286,0.5453,-3.6402,-3.6284,-3.6284,-3.6284,-3.6241,-3.5924,-3.5705,-3.5554,-3.5081,-3.4576,-3.4317,-3.4366,-3.435,-3.4038,-3.3778,-3.3323,-3.2506,-3.2221,-3.196,-3.1675,-3.1507,-3.1107,-3.0736,-3.032,-2.9403,-2.8647,-2.8147,-2.7845,-2.7524,-2.7181,-2.7026,-2.6803,-2.639,-2.6096,-2.5879,-2.555,-2.509,-2.4439,-2.3859,-2.322,-2.2823,-2.242,-2.1913,-2.1663,-2.1285,-2.1031,-2.0646,-2.0324,-2.027,-2.0085,-1.966,-1.932,-1.8921,-1.7755,-1.6872,-1.6184,-1.5833,-1.5346,-1.4976,-1.4808,-1.4048,-1.3271,-1.2675,-1.2133,-1.169,-1.1452,-1.1364,-1.1234,-1.046,-0.9695,-0.8932,-0.8161,-0.7476,-0.6788,-0.6409,-0.6028,-0.5948,-0.587,-0.5789,-0.5712,-0.5401,-0.4862,-0.3999,-0.2746,-0.1883,-0.1569,-0.1492,-0.1414,-0.1257,-0.1258,-0.0786,-0.0471,-0.0393,-0.0393,-0.0393,-0.0393,-0.0314,-0.0393,-0.0471,-0.0471,-0.0393,-0.0157,-0.0,-0.0,0.0079,0.0314,0.0471,0.2589,0.4557,0.511,0.55,0.5491,0.5436,0.5515,0.5603,-3.636,-3.6343,-3.6301,-3.6343,-3.6301,-3.6259,-3.6259,-3.6139,-3.4901,-3.4235,-3.4267,-3.4704,-3.4589,-3.4114,-3.4051,-3.3485,-3.2669,-3.2106,-3.1771,-3.155,-3.1212,-3.0891,-3.0621,-2.9795,-2.9588,-2.9075,-2.8527,-2.814,-2.7925,-2.7524,-2.7115,-2.6864,-2.6258,-2.5853,-2.5647,-2.5286,-2.4878,-2.4523,-2.3859,-2.3148,-2.2433,-2.1776,-2.1348,-2.1285,-2.1221,-2.1031,-2.07,-2.0506,-2.0377,-2.0129,-1.9868,-1.9528,-1.8365,-1.7267,-1.6594,-1.6114,-1.5551,-1.5054,-1.4553,-1.4408,-1.36,-1.2896,-1.2378,-1.1668,-1.1105,-1.0986,-1.098,-1.0674,-0.9911,-0.9226,-0.8466,-0.7778,-0.7092,-0.6479,-0.6099,-0.5873,-0.5718,-0.564,-0.5565,-0.5407,-0.5021,-0.4396,-0.3061,-0.0,-0.0,-0.0,-0.0157,-0.0393,-0.0629,-0.0786,-0.055,-0.0,0.0157,0.0157,-0.0079,-0.0079,0.0079,0.0079,-0.0,-0.0,-0.0,0.055,0.1179,0.0943,0.0629,0.0943,0.157,0.3297,0.4555,0.5101,0.541,0.564,0.568,0.5738,0.5805,-3.6667,-3.6602,-3.6502,-3.6461,-3.6444,-3.6343,-3.6241,-3.6139,-3.5224,-3.4796,-3.5001,-3.5375,-3.5033,-3.3927,-3.3902,-3.3295,-3.2205,-3.1769,-3.1381,-3.132,-3.1092,-3.1019,-3.1194,-3.0463,-2.999,-2.9435,-2.8883,-2.8334,-2.7925,-2.7524,-2.7049,-2.6496,-2.6042,-2.5798,-2.5439,-2.5075,-2.4721,-2.4478,-2.393,-2.3564,-2.3339,-2.3207,-2.3027,-2.199,-2.1376,-2.0892,-2.0506,-2.0205,-2.0129,-1.9933,-1.9933,-1.9034,-1.759,-1.6428,-1.5534,-1.4982,-1.484,-1.4489,-1.4201,-1.384,-1.307,-1.2171,-1.1514,-1.0771,-1.0409,-1.0576,-1.0432,-0.9981,-0.9448,-0.8689,-0.7931,-0.7318,-0.6707,-0.6251,-0.5792,-0.5637,-0.5562,-0.5488,-0.5335,-0.4945,-0.4557,-0.3456,-0.2042,-0.0,-0.0,-0.0,-0.0,0.0786,0.055,0.0393,0.0314,0.0707,0.0864,0.0864,0.0471,0.0236,0.0393,0.055,0.055,0.055,0.0471,0.0786,0.11,0.1258,0.1258,0.1414,0.2041,0.3376,0.4472,0.5018,0.5562,0.587,0.6025,0.6074,0.6067,-3.5715,-3.5635,-3.5538,-3.5584,-3.5688,-3.5428,-3.5404,-3.5456,-3.4857,-3.445,-3.426,-3.4706,-3.4514,-3.3536,-3.344,-3.2957,-3.1825,-3.1264,-3.1182,-3.1139,-3.1007,-3.0959,-3.0936,-3.0697,-3.0138,-2.9531,-2.9093,-2.8542,-2.8073,-2.784,-2.7509,-2.6692,-2.6283,-2.5825,-2.5411,-2.4962,-2.4664,-2.4421,-2.4002,-2.4002,-2.4015,-2.3327,-2.2531,-2.1491,-2.0996,-2.0571,-2.0313,-1.9944,-1.9868,-1.9594,-1.932,-1.8422,-1.7111,-1.6088,-1.5188,-1.4561,-1.4201,-1.3985,-1.3702,-1.3258,-1.2586,-1.1687,-1.1168,-1.072,-1.0051,-1.0062,-0.9836,-0.9382,-0.877,-0.8008,-0.7318,-0.663,-0.6167,-0.5631,-0.5404,-0.5251,-0.5251,-0.5176,-0.4545,-0.368,-0.3057,-0.204,-0.0863,-0.0,-0.0,-0.0,-0.0,0.1179,0.11,0.1178,0.1178,0.1258,0.1415,0.1336,0.0943,0.0707,0.0707,0.0864,0.1022,0.1022,0.0864,0.0864,0.1022,0.1257,0.1571,0.1806,0.2591,0.3765,0.4467,0.501,0.5556,0.6099,0.6257,0.6412,0.6468,-3.4512,-3.4405,-3.4328,-3.448,-3.474,-3.4384,-3.4345,-3.4523,-3.4172,-3.3576,-3.311,-3.3362,-3.339,-3.3145,-3.2859,-3.2496,-3.2019,-3.1362,-3.115,-3.0898,-3.0551,-3.0665,-3.0418,-3.0022,-2.9851,-2.9627,-2.9213,-2.8967,-2.8685,-2.8365,-2.7875,-2.7159,-2.652,-2.596,-2.5258,-2.4948,-2.4778,-2.4563,-2.4319,-2.4261,-2.3518,-2.2531,-2.199,-2.1313,-2.0677,-2.0248,-2.0064,-1.9868,-1.9802,-1.9198,-1.8654,-1.7677,-1.6697,-1.5737,-1.4824,-1.4194,-1.3848,-1.355,-1.3266,-1.2973,-1.215,-1.1403,-1.1111,-1.0513,-0.9765,-0.9387,-0.9084,-0.8546,-0.7936,-0.7318,-0.6553,-0.6015,-0.555,-0.5162,-0.5012,-0.4779,-0.4779,-0.4704,-0.368,-0.2504,-0.1567,-0.0628,-0.0,0.0629,0.0786,0.0707,0.0786,0.0943,0.1178,0.1335,0.1492,0.157,0.1649,0.1571,0.1257,0.1178,0.1021,0.1022,0.1179,0.1258,0.1258,0.1179,0.1257,0.157,0.1805,0.2276,0.2978,0.3992,0.4538,0.5237,0.586,0.6483,0.6865,0.7022,0.6945,-3.4651,-3.4631,-3.4504,-3.4658,-3.4941,-3.4526,-3.4094,-3.3615,-3.3398,-3.3101,-3.28,-3.2297,-3.2101,-3.2038,-3.2525,-3.227,-3.1608,-3.1247,-3.1089,-3.0871,-3.0733,-3.0568,-3.0316,-3.0027,-2.9826,-2.956,-2.9198,-2.892,-2.8779,-2.8525,-2.7974,-2.7159,-2.6953,-2.6375,-2.5618,-2.5245,-2.4978,-2.4721,-2.4332,-2.4157,-2.3969,-2.3352,-2.3245,-2.2738,-2.2224,-2.1428,-2.0816,-2.0453,-1.9922,-1.9131,-1.8192,-1.7285,-1.6367,-1.5517,-1.4681,-1.3905,-1.355,-1.3185,-1.2893,-1.2452,-1.1632,-1.072,-1.0196,-0.9528,-0.8932,-0.8479,-0.8093,-0.7629,-0.7015,-0.6398,-0.5786,-0.5476,-0.509,-0.4616,-0.4384,-0.391,-0.3675,-0.3366,-0.2665,-0.1645,-0.0627,0.0157,0.0785,0.11,0.11,0.11,0.1178,0.1335,0.1492,0.1648,0.1805,0.1884,0.1963,0.1728,0.1414,0.1414,0.1335,0.1336,0.1414,0.1649,0.1649,0.1336,0.1492,0.2195,0.2586,0.2978,0.3756,0.4533,0.5231,0.5935,0.6398,0.6942,0.7322,0.7658,0.7687]},{"header":{"parameterUnit":"m.s-1","parameterCategory":1,"la1":31.0,"la2":29.5877,"lo1":-88.7671,"lo2":-86.6584,"dy":0.0162,"dx":0.0185,"nx":115,"ny":88,"refTime":"2024-09-10T12:00:00:Z","depth":0,"parameterNumber":3,"parameterNumberName":"V-component_of_WINDS"},"data":[0.0,0.0,0.0,0.0,0.0,0.0,0.0,0.0,0.0,0.0,0.0,0.0,0.0,0.0,0.0,0.0,0.0,0.0,0.0,0.0,0.0,0.0,0.0,0.0,0.0,0.0,0.0,0.0,0.0,0.0,0.0,0.0,0.0,0.0,0.0,0.0,0.0,0.0,0.0,0.0,0.0,0.0,0.0,0.0,0.0,0.0,0.0,0.0,0.0,0.0,0.0,0.0,0.0,0.0,0.0,0.0,0.0,0.0,0.0,0.0,0.0,0.0,0.0,0.0,0.0,0.0,0.0,0.0,0.0,0.0,0.0,0.0,0.0,0.0,0.0,0.0,0.0,0.0,0.0,0.0,0.0,0.0,0.0,0.0,0.0,0.0,0.0,0.0,0.0,0.0,0.0,0.0,0.0,0.0,0.0,0.0,0.0,0.0,0.0,0.0,0.0,0.0,0.0,0.0,0.0,0.0,0.0,0.0,0.0,0.0,0.0,0.0,0.0,0.0,0.0,0.0,0.0,0.0,0.0,0.0,0.0,0.0,0.0,0.0,0.0,0.0,0.0,0.0,0.0,0.0,0.0,0.0,0.0,0.0,0.0,0.0,0.0,0.0,0.0,0.0,0.0,0.0,0.0,0.0,0.0,0.0,0.0,0.0,0.0,0.0,0.0,0.0,0.0,0.0,0.0,0.0,0.0,0.0,0.0,0.0,0.0,0.0,0.0,0.0,0.0,0.0,0.0,0.0,0.0,0.0,0.0,0.0,0.0,0.0,0.0,0.0,0.0,0.0,0.0,0.0,0.0,0.0,0.0,0.0,0.0,0.0,0.0,0.0,0.0,0.0,0.0,0.0,0.0,0.0,0.0,0.0,0.0,0.0,0.0,0.0,0.0,0.0,0.0,0.0,0.0,0.0,0.0,0.0,0.0,0.0,0.0,0.0,0.0,0.0,0.0,0.0,0.0,0.0,0.0,0.0,0.0,0.0,0.0,0.0,0.0,0.0,0.0,0.0,0.0,0.0,0.0,0.0,0.0,0.0,0.0,0.0,0.0,0.0,0.0,0.0,0.0,0.0,0.0,0.0,0.0,0.0,0.0,0.0,0.0,0.0,0.0,0.0,0.0,0.0,0.0,0.0,0.0,0.0,0.0,0.0,0.0,0.0,0.0,0.0,0.0,0.0,0.0,0.0,0.0,0.0,0.0,0.0,0.0,0.0,0.0,0.0,0.0,0.0,0.0,0.0,0.0,0.0,0.0,0.0,0.0,0.0,0.0,0.0,0.0,0.0,0.0,0.0,0.0,0.0,0.0,0.0,0.0,0.0,0.0,0.0,0.0,0.0,0.0,0.0,0.0,0.0,0.0,0.0,0.0,0.0,0.0,0.0,0.0,0.0,0.0,0.0,0.0,0.0,0.0,0.0,0.0,0.0,0.0,0.0,0.0,0.0,0.0,0.0,0.0,0.0,0.0,0.0,0.0,0.0,0.0,0.0,0.0,0.0,0.0,0.0,0.0,0.0,0.0,0.0,0.0,0.0,0.0,0.0,0.0,0.0,0.0,0.0,0.0,0.0,0.0,0.0,0.0,0.0,0.0,0.0,0.0,0.0,0.0,0.0,0.0,0.0,0.0,0.0,0.0,0.0,0.0,0.0,0.0,0.0,0.0,0.0,0.0,0.0,0.0,0.0,0.0,0.0,0.0,0.0,0.0,0.0,0.0,0.0,0.0,0.0,0.0,0.0,0.0,0.0,0.0,0.0,0.0,0.0,0.0,0.0,0.0,0.0,0.0,0.0,0.0,0.0,0.0,0.0,0.0,0.0,0.0,0.0,0.0,0.0,0.0,0.0,0.0,0.0,0.0,0.0,0.0,0.0,0.0,0.0,0.0,0.0,0.0,0.0,0.0,0.0,0.0,0.0,0.0,0.0,0.0,0.0,0.0,0.0,0.0,0.0,0.0,0.0,0.0,0.0,0.0,0.0,0.0,0.0,0.0,0.0,0.0,0.0,0.0,0.0,0.0,0.0,0.0,0.0,0.0,0.0,0.0,0.0,0.0,0.0,0.0,0.0,0.0,0.0,0.0,0.0,0.0,0.0,0.0,0.0,0.0,0.0,0.0,0.0,0.0,0.0,0.0,0.0,0.0,0.0,0.0,0.0,0.0,0.0,0.0,0.0,0.0,0.0,0.0,0.0,0.0,0.0,0.0,0.0,0.0,0.0,0.0,0.0,0.0,0.0,0.0,0.0,0.0,0.0,0.0,0.0,0.0,0.0,0.0,0.0,0.0,0.0,0.0,0.0,0.0,0.0,0.0,0.0,0.0,0.0,0.0,0.0,0.0,0.0,0.0,0.0,0.0,0.0,0.0,0.0,0.0,0.0,0.0,0.0,0.0,0.0,0.0,0.0,0.0,0.0,0.0,0.0,0.0,0.0,0.0,0.0,0.0,0.0,0.0,0.0,0.0,0.0,0.0,0.0,0.0,0.0,0.0,0.0,0.0,0.0,0.0,0.0,0.0,0.0,0.0,0.0,0.0,0.0,0.0,0.0,0.0,0.0,0.0,0.0,0.0,0.0,0.0,0.0,0.0,0.0,0.0,0.0,0.0,0.0,0.0,0.0,0.0,0.0,0.0,0.0,0.0,0.0,0.0,0.0,0.0,0.0,0.0,0.0,0.0,0.0,0.0,0.0,0.0,0.0,0.0,0.0,0.0,0.0,0.0,0.0,0.0,0.0,0.0,0.0,0.0,0.0,0.0,0.0,0.0,0.0,0.0,0.0,0.0,0.0,0.0,0.0,0.0,0.0,0.0,0.0,0.0,0.0,0.0,0.0,0.0,0.0,0.0,0.0,0.0,0.0,0.0,0.0,0.0,0.0,0.0,0.0,0.0,0.0,0.0,0.0,0.0,0.0,0.0,0.0,0.0,0.0,0.0,0.0,0.0,0.0,0.0,0.0,0.0,0.0,0.0,0.0,0.0,0.0,0.0,0.0,0.0,0.0,0.0,0.0,0.0,0.0,0.0,0.0,0.0,0.0,0.0,0.0,0.0,0.0,0.0,0.0,0.0,0.0,0.0,0.0,0.0,0.0,0.0,0.0,0.0,0.0,0.0,0.0,0.0,0.0,0.0,0.0,0.0,0.0,0.0,0.0,0.0,0.0,0.0,0.0,0.0,0.0,0.0,0.0,0.0,0.0,0.0,0.0,0.0,0.0,0.0,0.0,0.0,0.0,0.0,0.0,0.0,0.0,0.0,0.0,0.0,0.0,0.0,0.0,0.0,0.0,0.0,0.0,0.0,0.0,0.0,0.0,0.0,0.0,0.0,0.0,0.0,0.0,0.0,0.0,0.0,0.0,0.0,0.0,0.0,0.0,0.0,0.0,0.0,0.0,0.0,0.0,0.0,0.0,0.0,0.0,0.0,0.0,0.0,0.0,0.0,0.0,0.0,0.0,0.0,0.0,0.0,0.0,0.0,0.0,0.0,0.0,0.0,0.0,0.0,0.0,0.0,0.0,0.0,0.0,0.0,0.0,0.0,0.0,0.0,0.0,0.0,0.0,0.0,0.0,0.0,0.0,0.0,0.0,0.0,0.0,0.0,0.0,0.0,0.0,0.0,0.0,0.0,0.0,0.0,0.0,0.0,0.0,0.0,0.0,0.0,0.0,0.0,0.0,0.0,0.0,0.0,0.0,0.0,0.0,0.0,0.0,0.0,0.0,0.0,0.0,0.0,0.0,0.0,0.0,0.0,0.0,0.0,0.0,0.0,0.0,0.0,0.0,0.0,0.0,0.0,0.0,0.0,0.0,0.0,0.0,0.0,0.0,0.0,0.0,0.0,0.0,0.0,0.0,0.0,0.0,0.0,0.0,0.0,0.0,0.0,0.0,0.0,0.0,0.0,0.0,0.0,0.0,0.0,0.0,0.0,0.0,0.0,0.0,0.0,0.0,0.0,0.0,0.0,0.0,0.0,0.0,0.0,0.0,0.0,0.0,0.0,0.0,0.0,0.0,0.0,0.0,0.0,0.0,0.0,0.0,0.0,0.0,0.0,0.0,0.0,0.0,0.0,0.0,0.0,0.0,0.0,0.0,0.0,0.0,0.0,0.0,0.0,0.0,0.0,0.0,0.0,0.0,0.0,0.0,0.0,0.0,0.0,0.0,0.0,0.0,0.0,0.0,0.0,0.0,0.0,0.0,0.0,0.0,0.0,0.0,0.0,0.0,0.0,0.0,0.0,0.0,0.0,0.0,0.0,0.0,0.0,0.0,0.0,0.0,0.0,0.0,-0.8625,0.0,0.0,0.0,0.0,0.0,0.0,0.0,0.0,0.0,0.0,0.0,0.0,0.0,0.0,0.0,0.0,0.0,0.0,0.0,0.0,0.0,0.0,0.0,0.0,0.0,0.0,0.0,0.0,0.0,0.0,0.0,0.0,0.0,0.0,0.0,0.0,0.0,0.0,0.0,0.0,0.0,0.0,0.0,0.0,0.0,0.0,0.0,0.0,0.0,0.0,0.0,0.0,0.0,0.0,0.0,0.0,0.0,0.0,0.0,0.0,0.0,0.0,0.0,0.0,0.0,0.0,0.0,0.0,0.0,0.0,0.0,0.0,0.0,0.0,0.0,0.0,0.0,0.0,0.0,0.0,0.0,0.0,0.0,0.0,0.0,0.0,0.0,0.0,0.0,0.0,0.0,0.0,0.0,0.0,0.0,0.0,0.0,0.0,0.0,0.0,0.0,0.0,0.0,0.0,0.0,0.0,0.0,0.0,0.0,0.0,-1.0454,-0.977,-0.971,-0.9262,-0.8287,0.0,0.0,0.0,0.0,0.0,0.0,0.0,0.0,0.0,0.0,0.0,0.0,0.0,0.0,0.0,0.0,0.0,0.0,0.0,0.0,0.0,0.0,0.0,0.0,0.0,0.0,0.0,0.0,0.0,0.0,0.0,0.0,0.0,0.0,0.0,0.0,0.0,0.0,0.0,0.0,0.0,0.0,0.0,0.0,0.0,0.0,0.0,0.0,0.0,0.0,0.0,0.0,0.0,0.0,0.0,0.0,0.0,0.0,0.0,0.0,0.0,0.0,0.0,0.0,0.0,0.0,0.0,0.0,0.0,0.0,0.0,0.0,0.0,0.0,0.0,0.0,0.0,0.0,0.0,0.0,0.0,0.0,0.0,0.0,0.0,0.0,0.0,0.0,0.0,0.0,0.0,0.0,0.0,0.0,0.0,0.0,0.0,0.0,0.0,0.0,0.0,0.0,0.0,0.0,0.0,0.0,0.0,0.0,0.0,0.0,0.0,0.0,-0.9845,-0.9481,-0.8363,0.0,0.0,0.0,0.0,0.0,0.0,0.0,0.0,0.0,0.0,0.0,0.0,0.0,0.0,0.0,0.0,0.0,0.0,0.0,0.0,0.0,0.0,0.0,0.0,0.0,0.0,0.0,0.0,0.0,0.0,0.0,0.0,0.0,0.0,0.0,0.0,0.0,0.0,0.0,0.0,0.0,0.0,0.0,0.0,0.0,0.0,0.0,0.0,0.0,0.0,0.0,0.0,0.0,0.0,0.0,0.0,0.0,0.0,0.0,0.0,0.0,0.0,0.0,0.0,0.0,0.0,0.0,0.0,0.0,0.0,0.0,0.0,0.0,0.0,0.0,0.0,0.0,0.0,0.0,0.0,0.0,0.0,0.0,0.0,0.0,0.0,0.0,0.0,0.0,0.0,0.0,0.0,0.0,0.0,0.0,0.0,0.0,0.0,0.0,0.0,0.0,0.0,0.0,0.0,0.0,0.0,0.0,0.0,0.0,0.0,-1.0045,-1.1497,-1.1146,0.0,-0.9864,0.0,0.0,0.0,0.0,0.0,0.0,0.0,0.0,0.0,0.0,0.0,0.0,0.0,0.0,0.0,0.0,0.0,0.0,0.0,0.0,0.0,0.0,0.0,0.0,0.0,0.0,0.0,0.0,0.0,0.0,0.0,0.0,0.0,0.0,0.0,0.0,0.0,0.0,0.0,0.0,0.0,0.0,0.0,0.0,0.0,0.0,0.0,0.0,0.0,0.0,0.0,0.0,0.0,0.0,0.0,0.0,0.0,0.0,0.0,0.0,0.0,0.0,0.0,0.0,0.0,0.0,0.0,0.0,0.0,0.0,0.0,0.0,0.0,0.0,0.0,0.0,0.0,0.0,0.0,0.0,0.0,0.0,0.0,0.0,0.0,0.0,0.0,0.0,0.0,0.0,0.0,0.0,0.0,0.0,0.0,0.0,0.0,0.0,0.0,0.0,0.0,0.0,0.0,0.0,0.0,0.0,0.0,0.0,0.0,0.0,-1.0491,-1.0618,-1.0335,-1.0044,0.0,0.0,0.0,0.0,0.0,0.0,0.0,0.0,0.0,0.0,0.0,0.0,0.0,0.0,0.0,0.0,0.0,0.0,0.0,0.0,0.0,0.0,0.0,0.0,0.0,0.0,0.0,0.0,0.0,0.0,0.0,0.0,0.0,0.0,0.0,0.0,0.0,0.0,0.0,0.0,0.0,0.0,0.0,0.0,0.0,0.0,0.0,0.0,0.0,0.0,0.0,0.0,0.0,0.0,0.0,0.0,0.0,0.0,0.0,0.0,0.0,0.0,0.0,0.0,0.0,0.0,0.0,0.0,0.0,0.0,0.0,0.0,0.0,0.0,0.0,0.0,0.0,0.0,0.0,0.0,0.0,0.0,0.0,0.0,0.0,0.0,0.0,0.0,0.0,0.0,0.0,0.0,0.0,0.0,0.0,0.0,0.0,0.0,0.0,0.0,0.0,0.0,0.0,0.0,0.0,0.0,0.0,0.0,0.0,0.0,-1.038,0.0,-1.0474,-1.0292,-1.0015,-0.9573,0.0,0.0,0.0,0.0,0.0,0.0,0.0,0.0,0.0,0.0,0.0,0.0,0.0,0.0,0.0,0.0,0.0,0.0,0.0,0.0,0.0,0.0,0.0,0.0,0.0,0.0,0.0,0.0,0.0,0.0,0.0,0.0,0.0,0.0,0.0,0.0,0.0,0.0,0.0,0.0,0.0,0.0,0.0,0.0,0.0,0.0,0.0,0.0,0.0,0.0,0.0,0.0,0.0,0.0,0.0,0.0,0.0,0.0,0.0,0.0,0.0,0.0,0.0,0.0,0.0,0.0,0.0,0.0,0.0,0.0,0.0,0.0,0.0,0.0,0.0,0.0,0.0,0.0,0.0,0.0,0.0,0.0,0.0,0.0,0.0,0.0,0.0,0.0,0.0,0.0,0.0,0.0,0.0,0.0,0.0,0.0,0.0,0.0,0.0,0.0,0.0,0.0,0.0,0.0,0.0,0.0,0.0,0.0,0.0,-1.0684,-1.0789,-1.2036,-1.1822,-1.1157,0.0,0.0,0.0,0.0,0.0,0.0,0.0,0.0,0.0,0.0,0.0,0.0,0.0,0.0,0.0,0.0,0.0,0.0,0.0,0.0,0.0,0.0,0.0,0.0,0.0,0.0,0.0,0.0,0.0,0.0,0.0,0.0,0.0,0.0,0.0,0.0,0.0,0.0,0.0,0.0,0.0,0.0,0.0,0.0,0.0,0.0,0.0,0.0,0.0,0.0,0.0,0.0,0.0,0.0,0.0,0.0,0.0,0.0,0.0,0.0,0.0,0.0,0.0,0.0,0.0,0.0,0.0,0.0,0.0,0.0,0.0,0.0,0.0,0.0,0.0,0.0,0.0,0.0,0.0,0.0,0.0,0.0,0.0,0.0,0.0,0.0,0.0,0.0,0.0,0.0,0.0,0.0,0.0,0.0,0.0,0.0,0.0,0.0,0.0,0.0,0.0,0.0,0.0,0.0,0.0,0.0,0.0,0.0,0.0,-0.9561,-0.9809,-1.0961,-1.3038,-1.1389,-1.0594,0.0,0.0,0.0,0.0,0.0,0.0,0.0,0.0,0.0,0.0,0.0,0.0,0.0,0.0,0.0,0.0,0.0,0.0,0.0,0.0,0.0,0.0,0.0,0.0,0.0,0.0,0.0,0.0,0.0,0.0,0.0,0.0,0.0,0.0,0.0,0.0,0.0,0.0,0.0,0.0,0.0,0.0,0.0,0.0,0.0,0.0,0.0,0.0,0.0,0.0,0.0,0.0,0.0,0.0,0.0,0.0,0.0,0.0,0.0,0.0,0.0,0.0,0.0,0.0,0.0,0.0,0.0,0.0,0.0,0.0,0.0,0.0,0.0,0.0,0.0,0.0,0.0,0.0,0.0,0.0,0.0,0.0,0.0,0.0,0.0,0.0,0.0,0.0,0.0,0.0,0.0,0.0,0.0,0.0,0.0,0.0,0.0,0.0,0.0,0.0,0.0,0.0,0.0,0.0,0.0,0.0,0.0,0.0,0.0,-0.9593,0.0,-1.1897,0.0,-1.1422,-1.0469,0.0,0.0,0.0,0.0,0.0,0.0,0.0,0.0,0.0,0.0,0.0,0.0,0.0,0.0,0.0,0.0,0.0,0.0,0.0,0.0,0.0,0.0,0.0,0.0,0.0,0.0,0.0,0.0,0.0,0.0,0.0,0.0,0.0,0.0,0.0,0.0,0.0,0.0,0.0,0.0,0.0,0.0,0.0,0.0,0.0,0.0,0.0,0.0,0.0,0.0,0.0,0.0,0.0,0.0,0.0,0.0,0.0,0.0,0.0,0.0,0.0,0.0,0.0,0.0,0.0,0.0,0.0,0.0,0.0,0.0,0.0,0.0,0.0,0.0,0.0,0.0,0.0,0.0,0.0,0.0,0.0,0.0,0.0,0.0,0.0,0.0,0.0,0.0,0.0,0.0,0.0,0.0,0.0,0.0,0.0,0.0,0.0,0.0,0.0,0.0,0.0,0.0,0.0,0.0,0.0,0.0,0.0,0.0,-0.9702,-1.2122,-1.3397,-1.3421,-1.2282,-1.2128,-1.09,0.0,0.0,0.0,0.0,0.0,0.0,0.0,0.0,0.0,0.0,0.0,0.0,0.0,0.0,0.0,0.0,0.0,0.0,0.0,0.0,0.0,0.0,0.0,0.0,0.0,0.0,0.0,0.0,0.0,0.0,0.0,0.0,0.0,0.0,0.0,0.0,0.0,0.0,0.0,0.0,0.0,0.0,0.0,0.0,0.0,0.0,0.0,0.0,0.0,0.0,0.0,0.0,0.0,0.0,0.0,0.0,0.0,0.0,0.0,0.0,0.0,0.0,0.0,0.0,0.0,0.0,0.0,0.0,0.0,0.0,0.0,0.0,0.0,0.0,0.0,0.0,0.0,0.0,0.0,0.0,0.0,0.0,0.0,0.0,0.0,0.0,0.0,0.0,0.0,0.0,0.0,0.0,0.0,0.0,0.0,0.0,0.0,0.0,0.0,0.0,0.0,0.0,0.0,0.0,0.0,0.0,0.0,0.0,0.0,-1.0955,-1.2159,-1.3051,-1.3482,-1.1763,-1.0789,0.0,0.0,0.0,0.0,0.0,0.0,0.0,0.0,0.0,0.0,0.0,0.0,0.0,0.0,0.0,0.0,0.0,0.0,0.0,0.0,0.0,0.0,0.0,0.0,0.0,0.0,0.0,0.0,0.0,0.0,0.0,0.0,0.0,0.0,0.0,0.0,0.0,0.0,0.0,0.0,0.0,0.0,0.0,0.0,0.0,0.0,0.0,0.0,0.0,0.0,0.0,0.0,0.0,0.0,0.0,0.0,0.0,0.0,0.0,0.0,0.0,0.0,0.0,0.0,0.0,0.0,0.0,0.0,0.0,0.0,0.0,0.0,0.0,0.0,0.0,0.0,0.0,0.0,0.0,0.0,0.0,0.0,0.0,0.0,0.0,0.0,0.0,0.0,0.0,0.0,0.0,0.0,0.0,0.0,0.0,0.0,0.0,0.0,0.0,0.0,0.0,0.0,0.0,0.0,0.0,0.0,0.0,0.0,0.0,-1.2675,-1.3604,-1.4269,-1.459,-1.242,-1.1297,-1.1378,0.0,0.0,0.0,0.0,0.0,0.0,0.0,0.0,0.0,0.0,0.0,0.0,0.0,0.0,0.0,0.0,0.0,0.0,0.0,0.0,0.0,0.0,0.0,0.0,0.0,0.0,0.0,0.0,0.0,0.0,0.0,0.0,0.0,0.0,0.0,0.0,0.0,0.0,0.0,0.0,0.0,0.0,0.0,0.0,0.0,0.0,0.0,0.0,0.0,0.0,0.0,0.0,0.0,0.0,0.0,0.0,0.0,0.0,0.0,0.0,0.0,0.0,0.0,0.0,0.0,0.0,0.0,0.0,0.0,0.0,0.0,0.0,0.0,0.0,0.0,0.0,0.0,0.0,0.0,0.0,0.0,0.0,0.0,0.0,0.0,0.0,0.0,0.0,0.0,0.0,0.0,0.0,0.0,0.0,0.0,0.0,0.0,0.0,0.0,0.0,0.0,0.0,0.0,0.0,0.0,0.0,0.0,0.0,-1.6559,-1.728,-1.6933,-1.5499,-1.4067,-1.2364,0.0,0.0,0.0,0.0,0.0,0.0,0.0,0.0,0.0,0.0,0.0,0.0,0.0,0.0,0.0,0.0,0.0,0.0,0.0,0.0,0.0,0.0,0.0,0.0,0.0,0.0,0.0,0.0,0.0,0.0,0.0,0.0,0.0,0.0,0.0,0.0,0.0,0.0,0.0,0.0,0.0,0.0,0.0,0.0,0.0,0.0,0.0,0.0,0.0,0.0,0.0,0.0,0.0,0.0,0.0,0.0,0.0,0.0,0.0,0.0,0.0,0.0,0.0,0.0,0.0,0.0,0.0,0.0,0.0,0.0,0.0,0.0,0.0,0.0,0.0,0.0,0.0,0.0,0.0,0.0,0.0,0.0,0.0,0.0,0.0,0.0,0.0,0.0,0.0,0.0,0.0,0.0,0.0,0.0,0.0,0.0,0.0,0.0,0.0,0.0,0.0,0.0,0.0,0.0,0.0,0.0,0.0,0.0,0.0,-1.7397,-1.9686,-2.0083,-1.8407,-1.6064,-1.4124,0.0,0.0,0.0,0.0,0.0,0.0,0.0,0.0,0.0,0.0,0.0,0.0,0.0,0.0,0.0,0.0,0.0,0.0,0.0,0.0,0.0,0.0,0.0,0.0,0.0,0.0,0.0,0.0,0.0,0.0,0.0,0.0,0.0,0.0,0.0,0.0,0.0,0.0,0.0,0.0,0.0,0.0,0.0,0.0,0.0,0.0,0.0,0.0,0.0,0.0,0.0,0.0,0.0,0.0,0.0,0.0,0.0,0.0,0.0,0.0,0.0,0.0,0.0,0.0,0.0,0.0,0.0,0.0,0.0,0.0,0.0,0.0,0.0,0.0,0.0,0.0,0.0,0.0,0.0,0.0,0.0,0.0,0.0,0.0,0.0,0.0,0.0,0.0,0.0,0.0,0.0,0.0,0.0,0.0,0.0,0.0,0.0,0.0,0.0,0.0,0.0,0.0,0.0,0.0,0.0,0.0,0.0,0.0,-1.7293,-1.9081,-2.1628,-2.2503,-2.1487,-1.8446,-1.5773,0.0,0.0,0.0,0.0,0.0,0.0,0.0,0.0,0.0,0.0,0.0,0.0,0.0,0.0,0.0,0.0,0.0,0.0,0.0,0.0,0.0,0.0,0.0,0.0,0.0,0.0,0.0,0.0,0.0,0.0,0.0,0.0,0.0,0.0,0.0,0.0,0.0,0.0,0.0,0.0,0.0,0.0,0.0,0.0,0.0,0.0,0.0,0.0,0.0,0.0,0.0,0.0,0.0,0.0,0.0,0.0,0.0,0.0,0.0,0.0,0.0,0.0,0.0,0.0,0.0,0.0,0.0,0.0,0.0,0.0,0.0,0.0,0.0,0.0,0.0,0.0,0.0,0.0,0.0,0.0,0.0,0.0,0.0,0.0,0.0,0.0,0.0,0.0,0.0,0.0,0.0,0.0,0.0,0.0,0.0,0.0,0.0,0.0,0.0,0.0,0.0,0.0,0.0,0.0,0.0,0.0,0.0,0.0,-1.8635,-2.1119,-2.3231,-2.4303,-2.4143,-2.0783,-1.7305,0.0,0.0,0.0,0.0,0.0,0.0,0.0,0.0,0.0,0.0,0.0,0.0,0.0,0.0,0.0,0.0,0.0,0.0,0.0,0.0,0.0,0.0,0.0,0.0,0.0,0.0,0.0,0.0,0.0,0.0,0.0,0.0,0.0,0.0,0.0,0.0,0.0,0.0,0.0,0.0,0.0,0.0,0.0,0.0,0.0,0.0,0.0,0.0,0.0,0.0,0.0,0.0,0.0,0.0,0.0,0.0,0.0,0.0,0.0,0.0,0.0,0.0,0.0,0.0,0.0,0.0,0.0,0.0,0.0,0.0,0.0,0.0,0.0,0.0,0.0,0.0,0.0,0.0,0.0,0.0,0.0,0.0,0.0,0.0,0.0,0.0,0.0,0.0,0.0,0.0,0.0,0.0,0.0,0.0,0.0,0.0,0.0,0.0,0.0,0.0,0.0,0.0,0.0,0.0,0.0,0.0,0.0,0.0,-2.0404,-2.2085,-2.4184,-2.5024,-2.441,-2.1343,-1.8339,0.0,0.0,0.0,0.0,0.0,0.0,0.0,0.0,0.0,0.0,0.0,0.0,0.0,0.0,0.0,0.0,0.0,0.0,0.0,0.0,0.0,0.0,0.0,0.0,0.0,0.0,0.0,0.0,0.0,0.0,0.0,0.0,0.0,0.0,0.0,0.0,0.0,0.0,0.0,0.0,0.0,0.0,0.0,0.0,0.0,0.0,0.0,0.0,-1.2704,0.0,0.0,0.0,0.0,0.0,0.0,0.0,0.0,0.0,0.0,0.0,0.0,0.0,0.0,0.0,0.0,0.0,0.0,0.0,0.0,0.0,0.0,0.0,0.0,0.0,0.0,0.0,0.0,0.0,0.0,0.0,0.0,0.0,0.0,0.0,0.0,0.0,0.0,0.0,0.0,0.0,0.0,0.0,0.0,0.0,0.0,0.0,0.0,0.0,0.0,0.0,0.0,0.0,0.0,0.0,0.0,0.0,0.0,0.0,-2.1131,-2.2896,-2.4677,-2.5422,-2.4952,-2.2456,-1.9476,0.0,0.0,0.0,0.0,0.0,0.0,0.0,0.0,0.0,0.0,0.0,0.0,0.0,0.0,0.0,0.0,0.0,0.0,0.0,0.0,0.0,0.0,0.0,0.0,0.0,0.0,0.0,0.0,0.0,0.0,0.0,0.0,0.0,0.0,0.0,0.0,0.0,0.0,0.0,0.0,0.0,0.0,0.0,0.0,0.0,0.0,0.0,0.0,0.0,0.0,0.0,0.0,0.0,0.0,0.0,0.0,0.0,0.0,0.0,0.0,0.0,0.0,0.0,0.0,0.0,0.0,0.0,0.0,0.0,0.0,0.0,0.0,0.0,0.0,0.0,0.0,0.0,0.0,0.0,0.0,0.0,0.0,0.0,0.0,0.0,0.0,0.0,0.0,0.0,0.0,0.0,0.0,0.0,0.0,0.0,0.0,0.0,0.0,0.0,0.0,0.0,0.0,0.0,0.0,0.0,0.0,0.0,-1.8496,-2.1276,-2.361,-2.492,-2.553,-2.5422,-2.3462,-2.037,-1.6176,0.0,0.0,0.0,0.0,0.0,0.0,0.0,0.0,0.0,0.0,0.0,0.0,0.0,0.0,0.0,0.0,0.0,0.0,0.0,0.0,0.0,0.0,0.0,0.0,0.0,0.0,0.0,0.0,0.0,0.0,0.0,0.0,0.0,0.0,0.0,0.0,0.0,0.0,-1.073,-1.1502,0.0,0.0,0.0,0.0,0.0,0.0,0.0,0.0,-1.3627,0.0,0.0,0.0,0.0,0.0,0.0,0.0,0.0,0.0,0.0,0.0,0.0,0.0,0.0,0.0,0.0,0.0,0.0,0.0,0.0,0.0,0.0,0.0,0.0,0.0,0.0,0.0,0.0,0.0,0.0,0.0,0.0,0.0,0.0,0.0,0.0,0.0,0.0,0.0,0.0,0.0,0.0,0.0,0.0,0.0,0.0,0.0,0.0,0.0,0.0,0.0,0.0,0.0,0.0,0.0,0.0,-1.7504,-1.8767,-2.1,-2.424,-2.5163,-2.5308,-2.4661,-2.3203,-2.037,-1.6248,0.0,0.0,0.0,0.0,0.0,0.0,0.0,0.0,0.0,0.0,0.0,0.0,0.0,0.0,0.0,0.0,0.0,0.0,0.0,0.0,0.0,0.0,0.0,0.0,0.0,0.0,0.0,0.0,0.0,0.0,0.0,0.0,0.0,0.0,0.0,0.0,0.0,0.0,0.0,-1.505,-1.5946,0.0,0.0,0.0,0.0,0.0,0.0,0.0,0.0,-1.445,0.0,0.0,0.0,0.0,0.0,0.0,0.0,0.0,0.0,0.0,0.0,0.0,0.0,0.0,0.0,0.0,0.0,0.0,0.0,0.0,0.0,0.0,0.0,0.0,0.0,0.0,0.0,0.0,0.0,0.0,0.0,0.0,0.0,0.0,0.0,0.0,0.0,0.0,0.0,0.0,0.0,0.0,0.0,0.0,0.0,0.0,0.0,0.0,0.0,0.0,0.0,0.0,0.0,0.0,0.0,-1.6953,-1.9585,-2.2086,-2.4418,-2.5232,-2.5301,-2.4571,-2.2443,-1.9682,0.0,0.0,0.0,0.0,0.0,0.0,0.0,0.0,0.0,0.0,0.0,0.0,0.0,0.0,0.0,0.0,0.0,0.0,0.0,0.0,0.0,0.0,0.0,0.0,0.0,0.0,0.0,0.0,0.0,0.0,0.0,0.0,0.0,0.0,0.0,0.0,0.0,0.0,0.0,0.0,-1.6574,-1.7701,-1.9431,0.0,0.0,0.0,0.0,0.0,0.0,-1.6819,-1.5772,0.0,0.0,0.0,0.0,0.0,0.0,0.0,0.0,0.0,0.0,0.0,0.0,0.0,0.0,0.0,0.0,0.0,0.0,0.0,0.0,0.0,0.0,0.0,0.0,0.0,0.0,0.0,0.0,0.0,0.0,0.0,0.0,0.0,0.0,0.0,0.0,0.0,0.0,0.0,0.0,0.0,0.0,0.0,0.0,0.0,0.0,0.0,0.0,0.0,0.0,0.0,0.0,0.0,0.0,0.0,-1.5859,-1.9792,-2.259,-2.4067,-2.4886,-2.4935,-2.4167,-2.1549,-1.8811,0.0,0.0,0.0,0.0,0.0,0.0,0.0,0.0,0.0,0.0,0.0,0.0,0.0,0.0,0.0,0.0,0.0,0.0,0.0,0.0,0.0,0.0,0.0,0.0,0.0,0.0,0.0,0.0,0.0,0.0,0.0,0.0,0.0,0.0,0.0,0.0,0.0,0.0,0.0,0.0,0.0,-1.9408,-2.1395,-1.9833,0.0,0.0,0.0,0.0,-1.9709,-1.88,0.0,0.0,0.0,0.0,0.0,0.0,0.0,0.0,0.0,0.0,0.0,0.0,0.0,0.0,0.0,0.0,0.0,0.0,0.0,0.0,0.0,0.0,0.0,0.0,0.0,0.0,0.0,0.0,0.0,0.0,0.0,0.0,0.0,0.0,0.0,0.0,0.0,0.0,0.0,0.0,0.0,0.0,0.0,0.0,0.0,0.0,0.0,0.0,0.0,0.0,0.0,0.0,0.0,0.0,0.0,0.0,-1.513,-1.8127,-2.0714,-2.2736,-2.3538,-2.357,-2.2818,-2.0659,-1.8166,0.0,0.0,0.0,0.0,0.0,0.0,0.0,0.0,0.0,0.0,0.0,0.0,0.0,0.0,0.0,0.0,0.0,0.0,0.0,0.0,0.0,0.0,0.0,0.0,0.0,0.0,0.0,0.0,0.0,0.0,0.0,0.0,0.0,0.0,0.0,0.0,0.0,0.0,0.0,0.0,0.0,-2.2043,-2.2348,-2.1528,-2.1147,0.0,0.0,-2.238,-2.3285,-2.3246,0.0,0.0,0.0,0.0,0.0,0.0,0.0,0.0,0.0,0.0,0.0,0.0,0.0,0.0,0.0,0.0,0.0,0.0,0.0,0.0,0.0,0.0,0.0,0.0,0.0,0.0,0.0,0.0,0.0,0.0,0.0,0.0,0.0,0.0,0.0,0.0,0.0,0.0,0.0,0.0,0.0,0.0,0.0,0.0,0.0,0.0,0.0,0.0,0.0,0.0,0.0,0.0,0.0,0.0,0.0,-1.4056,-1.5141,-1.9149,-2.1704,-2.2588,-2.3342,-2.3424,-2.2701,-1.9794,-1.7272,0.0,0.0,0.0,0.0,0.0,0.0,0.0,0.0,0.0,0.0,0.0,0.0,0.0,0.0,0.0,0.0,0.0,0.0,0.0,0.0,0.0,0.0,0.0,0.0,0.0,0.0,0.0,0.0,0.0,0.0,0.0,0.0,0.0,0.0,0.0,0.0,0.0,0.0,0.0,0.0,0.0,0.0,-2.3915,-2.3739,0.0,0.0,0.0,-2.3649,-2.3957,0.0,0.0,0.0,0.0,0.0,0.0,0.0,0.0,0.0,0.0,0.0,0.0,0.0,0.0,0.0,0.0,0.0,0.0,0.0,0.0,0.0,0.0,0.0,0.0,0.0,0.0,0.0,0.0,0.0,0.0,0.0,0.0,0.0,0.0,0.0,0.0,0.0,0.0,0.0,0.0,0.0,0.0,0.0,0.0,0.0,0.0,0.0,0.0,0.0,0.0,0.0,0.0,0.0,0.0,0.0,0.0,0.0,-1.5227,-2.003,-2.2501,-2.2422,-2.2996,-2.3077,-2.2516,-1.9487,0.0,0.0,0.0,0.0,0.0,0.0,0.0,0.0,0.0,0.0,0.0,0.0,0.0,0.0,0.0,0.0,0.0,0.0,0.0,0.0,0.0,0.0,0.0,0.0,0.0,0.0,0.0,-0.9457,0.0,0.0,0.0,0.0,0.0,0.0,0.0,0.0,0.0,0.0,0.0,0.0,0.0,0.0,-2.3583,-2.5007,-2.5271,-2.5551,0.0,0.0,-2.4861,-2.5234,-2.5465,-2.4524,0.0,0.0,0.0,0.0,0.0,0.0,0.0,0.0,0.0,0.0,0.0,0.0,0.0,0.0,0.0,0.0,0.0,0.0,0.0,0.0,0.0,0.0,0.0,0.0,0.0,0.0,0.0,0.0,0.0,0.0,0.0,0.0,0.0,0.0,0.0,0.0,0.0,0.0,0.0,0.0,0.0,0.0,0.0,0.0,0.0,0.0,0.0,0.0,0.0,0.0,0.0,0.0,0.0,0.0,0.0,-1.5341,-1.9547,-2.179,-2.1864,-2.1913,-2.193,-2.1847,-2.0296,-1.8112,0.0,0.0,0.0,0.0,0.0,0.0,0.0,0.0,0.0,0.0,0.0,0.0,0.0,0.0,0.0,0.0,0.0,0.0,0.0,0.0,0.0,0.0,0.0,0.0,0.0,0.0,0.0,0.0,0.0,0.0,0.0,0.0,0.0,0.0,0.0,0.0,0.0,0.0,0.0,0.0,0.0,-2.4719,-2.4907,-2.5542,-2.666,0.0,0.0,-2.6967,-2.8506,-2.9398,-2.8313,-2.3408,0.0,0.0,0.0,0.0,0.0,0.0,0.0,0.0,0.0,0.0,0.0,0.0,0.0,0.0,0.0,0.0,0.0,0.0,0.0,0.0,0.0,0.0,0.0,0.0,0.0,0.0,0.0,0.0,0.0,0.0,0.0,0.0,0.0,0.0,0.0,0.0,0.0,0.0,0.0,0.0,0.0,0.0,0.0,0.0,0.0,0.0,0.0,0.0,0.0,0.0,0.0,0.0,0.0,-1.5192,-1.5321,-1.9551,-2.1751,-2.1781,-2.1781,-2.1781,-2.1781,-2.0373,-1.8443,0.0,0.0,0.0,0.0,0.0,0.0,0.0,0.0,0.0,0.0,0.0,0.0,0.0,0.0,0.0,0.0,0.0,0.0,0.0,0.0,0.0,0.0,0.0,0.0,0.0,0.0,0.0,0.0,-1.5001,-1.5085,-1.3834,0.0,0.0,0.0,0.0,0.0,0.0,0.0,0.0,0.0,0.0,-2.537,-2.7105,-2.7528,0.0,0.0,-2.851,-2.8179,-2.8332,-2.8198,-2.6871,-2.337,-2.1658,0.0,0.0,0.0,0.0,0.0,0.0,0.0,0.0,0.0,0.0,0.0,0.0,0.0,0.0,0.0,0.0,0.0,0.0,0.0,0.0,0.0,0.0,0.0,0.0,0.0,0.0,0.0,0.0,0.0,0.0,0.0,0.0,0.0,0.0,0.0,0.0,0.0,0.0,0.0,0.0,0.0,0.0,0.0,0.0,0.0,0.0,0.0,0.0,0.0,0.0,0.0,0.0,-1.5371,-1.5641,-1.9704,-2.1897,-2.2112,-2.1897,-2.1781,-2.1764,-2.0804,-1.9247,0.0,0.0,0.0,0.0,0.0,0.0,0.0,0.0,0.0,0.0,0.0,0.0,0.0,0.0,0.0,0.0,0.0,0.0,0.0,0.0,0.0,0.0,0.0,0.0,0.0,0.0,0.0,0.0,-1.591,-1.5673,-1.3891,0.0,0.0,0.0,0.0,0.0,0.0,0.0,0.0,0.0,0.0,-2.6167,-2.8151,-2.8302,-2.8312,-2.8598,-2.8464,-2.8236,-2.7948,-2.739,-2.6197,-2.3908,0.0,0.0,0.0,0.0,0.0,0.0,0.0,0.0,0.0,0.0,0.0,0.0,0.0,0.0,0.0,0.0,0.0,0.0,0.0,0.0,0.0,0.0,0.0,0.0,0.0,0.0,0.0,0.0,0.0,0.0,-0.8123,0.0,0.0,0.0,0.0,0.0,0.0,0.0,0.0,0.0,0.0,0.0,0.0,0.0,0.0,0.0,0.0,0.0,0.0,0.0,0.0,0.0,0.0,0.0,-1.642,-1.9959,-2.2145,-2.2808,-2.2178,-2.1797,-2.1781,-2.1748,-2.0704,-1.846,0.0,0.0,0.0,0.0,0.0,0.0,0.0,0.0,0.0,0.0,0.0,0.0,0.0,0.0,0.0,0.0,0.0,0.0,0.0,0.0,0.0,0.0,0.0,0.0,0.0,0.0,-1.065,-1.2356,-1.3796,0.0,0.0,0.0,0.0,0.0,0.0,0.0,0.0,0.0,0.0,-2.5088,-2.7172,-2.733,-2.7343,-2.7452,-2.7663,-2.7132,-2.6967,-2.7775,-2.7832,-2.7274,0.0,0.0,0.0,0.0,0.0,0.0,0.0,0.0,0.0,0.0,0.0,0.0,0.0,0.0,0.0,0.0,0.0,0.0,0.0,0.0,0.0,0.0,0.0,0.0,0.0,0.0,0.0,-1.0692,-0.9982,0.0,0.0,0.0,0.0,0.0,0.0,0.0,0.0,0.0,0.0,0.0,-1.6532,-1.6801,0.0,0.0,0.0,0.0,0.0,0.0,0.0,0.0,0.0,0.0,0.0,0.0,-1.5889,-1.716,-2.0671,-2.2659,-2.2874,-2.2659,-2.2278,-2.1814,-2.1781,-2.0771,-1.8559,0.0,0.0,0.0,0.0,0.0,0.0,0.0,0.0,0.0,0.0,0.0,0.0,0.0,0.0,0.0,0.0,0.0,0.0,0.0,0.0,0.0,0.0,0.0,0.0,0.0,-1.3368,0.0,0.0,0.0,0.0,0.0,0.0,0.0,0.0,0.0,0.0,0.0,-2.1878,-2.3766,-2.5352,-2.6575,-2.7263,-2.7277,-2.7547,0.0,0.0,0.0,0.0,0.0,0.0,0.0,0.0,0.0,0.0,0.0,0.0,0.0,0.0,-2.3338,-1.9387,-1.8898,-1.9271,-1.9889,0.0,0.0,0.0,0.0,0.0,0.0,0.0,0.0,0.0,0.0,0.0,0.0,0.0,0.0,-1.3297,0.0,-1.2359,0.0,0.0,0.0,0.0,0.0,0.0,0.0,0.0,-1.7267,-1.8376,-1.9006,-1.9294,-1.9007,0.0,-1.8063,-1.6144,0.0,0.0,0.0,0.0,0.0,0.0,0.0,0.0,-1.6762,-1.8253,-2.1532,-2.3288,-2.3272,-2.3023,-2.2543,-2.1814,-2.1781,-2.1118,-1.9694,-1.8021,-1.6232,0.0,0.0,0.0,0.0,0.0,0.0,0.0,0.0,0.0,0.0,0.0,0.0,0.0,0.0,0.0,0.0,0.0,0.0,0.0,0.0,0.0,0.0,0.0,-1.3944,0.0,0.0,0.0,0.0,0.0,0.0,0.0,0.0,0.0,-1.8808,-2.1398,-2.3996,-2.5962,-2.6569,-2.6951,-2.7274,0.0,0.0,0.0,0.0,0.0,0.0,0.0,-2.6564,-2.6323,-2.5813,-2.5437,-2.5425,-2.6387,-2.7138,-2.7157,0.0,0.0,-2.3028,-2.2402,-2.2777,-2.3325,-2.3848,-2.4234,-2.4215,-2.4911,-2.5356,0.0,0.0,0.0,0.0,0.0,0.0,0.0,0.0,-1.5502,-1.5534,0.0,-1.496,0.0,0.0,0.0,0.0,0.0,-1.6771,0.0,0.0,-2.1044,-2.2222,-2.1116,-2.117,-2.117,-2.1017,-2.0527,-1.9332,-1.7512,-1.5991,0.0,0.0,0.0,0.0,0.0,0.0,-1.8236,-1.975,-2.2576,-2.4033,-2.4017,-2.3321,-2.2559,-2.1814,-2.1781,-2.1781,-2.1698,-1.9727,-1.8559,-1.8393,-1.3959,0.0,0.0,0.0,0.0,0.0,0.0,0.0,0.0,0.0,0.0,0.0,0.0,0.0,0.0,0.0,0.0,0.0,0.0,0.0,0.0,-1.3485,0.0,0.0,0.0,0.0,0.0,0.0,0.0,0.0,0.0,0.0,-2.1566,-2.3498,-2.5868,-2.8278,0.0,0.0,0.0,0.0,-2.7123,-2.6512,-2.6454,-2.691,-2.7902,-2.8702,-2.9454,-3.0197,0.0,0.0,-2.828,-2.8115,-2.8257,-2.8201,-2.9602,-3.0133,-2.8412,-2.7329,-2.6837,-2.6857,-2.6837,-2.6818,-2.6876,-2.7445,-2.7995,-2.0306,0.0,0.0,0.0,0.0,-1.7287,-1.7969,-1.9333,-1.8912,-1.8251,-1.7427,-1.7357,0.0,0.0,0.0,0.0,0.0,0.0,-1.8772,-1.9598,-2.0925,-2.1844,-2.2381,-2.2484,-2.2527,-2.2513,-2.2452,-2.1877,-2.0917,-2.0419,-1.7782,-1.3124,0.0,0.0,0.0,0.0,-1.9445,-2.1913,-2.3818,-2.4795,-2.4779,-2.4067,-2.3089,-2.1831,-2.1781,-2.1781,-2.1781,-2.1185,-2.0125,-1.8568,-1.7259,0.0,0.0,0.0,0.0,0.0,0.0,0.0,0.0,0.0,0.0,0.0,0.0,0.0,0.0,0.0,0.0,0.0,0.0,0.0,-1.4463,-1.5915,-1.6507,0.0,0.0,0.0,0.0,0.0,0.0,0.0,0.0,0.0,-2.5641,-2.6304,-2.7043,0.0,0.0,-2.739,-2.6586,-2.7433,-2.8372,-2.8916,0.0,0.0,0.0,-3.0301,-3.022,-3.0423,-3.0984,-3.1245,-3.0762,-3.1207,-3.1632,-3.1613,-3.2038,-3.2203,-3.1739,-3.0926,-3.0356,-3.0308,-2.9901,-2.9495,-2.9515,-2.9708,-2.9863,-2.3499,-2.0799,-2.0117,-2.0291,-2.0959,-2.0611,-2.1104,-2.212,-2.1757,-2.1032,-2.0074,-1.9875,-1.8936,-1.7427,-1.7131,0.0,0.0,0.0,-2.0306,-2.1398,-2.1625,-2.2135,-2.2873,-2.3068,-2.3171,-2.3127,-2.3275,-2.3112,-2.2685,-2.2477,-2.0341,-1.6397,0.0,0.0,-1.724,-1.9056,-2.1092,-2.3288,-2.4795,-2.5408,-2.511,-2.41,-2.3139,-2.2261,-2.1947,-2.1781,-2.1781,-2.1781,-2.1185,-1.986,-1.9084,-1.7288,0.0,0.0,0.0,0.0,0.0,0.0,0.0,0.0,0.0,0.0,0.0,-0.9802,-0.9221,0.0,0.0,0.0,-1.5683,-1.6655,-1.7569,-1.8586,0.0,0.0,0.0,0.0,0.0,0.0,0.0,-2.331,-2.5944,-2.801,-2.8843,-2.8976,-2.9071,-2.9374,-2.908,-2.8666,-2.8225,0.0,-2.9784,-3.0498,-3.0629,-3.0967,-3.2006,-3.2089,-3.1997,-3.2008,-3.2434,-3.2648,-3.2377,-3.2783,-3.3198,-3.3518,-3.3615,-3.3731,-3.4079,-3.3441,-3.2706,-3.2396,-3.1952,-3.1623,-3.1584,-3.1603,-3.1603,-2.5546,-2.4994,-2.4355,-2.4036,-2.3963,-2.3963,-2.3963,-2.3963,-2.3949,-2.3644,-2.3004,-2.2483,-2.1666,-2.069,-1.9756,0.0,-2.1702,-2.1617,-2.2056,-2.2888,-2.2888,-2.2888,-2.2888,-2.3187,-2.3246,-2.3097,-2.3393,-2.3451,-2.329,-2.2814,-2.2043,-2.0948,-2.0367,-2.0088,-2.0267,-2.1601,-2.2883,-2.41,-2.5425,-2.5789,-2.5094,-2.3719,-2.2957,-2.2891,-2.2178,-2.1781,-2.1781,-2.1781,-2.1781,-2.1731,-1.9967,-1.8868,-1.8551,0.0,0.0,0.0,0.0,0.0,0.0,0.0,0.0,0.0,0.0,0.0,0.0,0.0,0.0,0.0,-1.9305,0.0,-2.1857,-2.1389,0.0,0.0,0.0,-2.1448,-2.3935,-2.5565,-2.71,-2.8619,0.0,0.0,-3.1212,0.0,-3.1686,-3.2501,-3.1857,-3.1254,-3.1145,-3.1182,-3.1381,-3.1622,-3.1718,-3.2102,-3.3199,-3.3862,-3.424,-3.426,-3.4475,-3.4176,-3.3538,-3.3372,-3.3692,-3.435,-3.4505,-3.4717,-3.553,-3.493,-3.4253,-3.3479,-3.316,-3.3063,-3.2986,-3.2966,-3.2928,-2.646,-2.6315,-2.617,-2.5531,-2.4631,-2.4631,-2.4631,-2.4568,-2.4568,-2.4467,-2.4322,-2.4254,-2.4054,-2.3691,-2.3039,-2.2951,-2.3316,-2.279,-2.2687,-2.2888,-2.2888,-2.2888,-2.2888,-2.3187,-2.3246,-2.3127,-2.3407,-2.3523,-2.3451,-2.3302,-2.2912,-2.2299,-2.2233,-2.1817,-2.1022,-2.1827,-2.3127,-2.4845,-2.5193,-2.5292,-2.5094,-2.4216,-2.347,-2.2907,-2.2178,-2.1781,-2.1781,-2.1781,-2.1781,-2.1781,-2.133,-2.0312,-1.8609,-1.6038,0.0,0.0,0.0,0.0,0.0,0.0,0.0,0.0,0.0,-1.4065,-1.1221,0.0,-1.6613,0.0,-2.1823,-2.385,-2.3713,-2.3952,0.0,0.0,-2.4657,-2.5483,-2.8111,-2.8787,-2.9169,-2.9547,-3.0928,-3.1895,-3.2084,-3.2691,-3.3411,-3.415,-3.3051,-3.1877,-3.1347,-3.24,-3.3244,-3.3344,-3.393,-3.461,-3.4834,-3.5156,-3.5345,-3.5364,-3.5356,-3.5317,-3.5104,-3.5085,-3.5182,-3.5356,-3.5394,-3.5472,-3.5665,-3.551,-3.5336,-3.5027,-3.404,-3.3102,-3.3102,-3.3121,-3.3121,-2.6794,-2.6794,-2.6794,-2.6199,-2.527,-2.5604,-2.5546,-2.5255,-2.5255,-2.5096,-2.48,-2.4878,-2.4878,-2.4834,-2.4471,-2.4312,-2.4283,-2.3887,-2.3583,-2.3368,-2.3368,-2.3209,-2.2992,-2.3187,-2.329,-2.329,-2.348,-2.361,-2.3538,-2.3538,-2.3473,-2.3379,-2.3529,-2.3266,-2.2715,-2.2747,-2.3388,-2.4597,-2.4944,-2.5276,-2.5541,-2.4564,-2.3653,-2.2907,-2.1847,-2.0986,-2.0356,-2.034,-2.0191,-1.992,-1.9924,-1.9534,-1.8568,-1.6656,-1.5022,0.0,0.0,0.0,0.0,0.0,0.0,0.0,0.0,0.0,0.0,0.0,-1.8687,-1.9576,-2.3542,-2.5717,-2.4817,-2.6023,-2.7132,-2.7829,-2.7979,-2.8932,-3.1186,-3.1503,-3.1743,-3.2103,-3.2937,-3.3524,-3.3524,-3.3922,-3.4377,-3.4851,-3.4093,-3.3354,-3.3031,-3.3781,-3.4454,-3.4538,-3.5086,-3.5528,-3.5584,-3.5651,-3.5704,-3.5704,-3.5704,-3.5704,-3.5704,-3.5704,-3.5704,-3.5704,-3.5704,-3.5704,-3.5704,-3.5704,-3.5704,-3.5588,-3.4949,-3.4331,-3.4272,-3.4253,-3.4253,-2.6929,-2.691,-2.691,-2.6518,-2.5952,-2.6533,-2.6373,-2.5662,-2.5662,-2.54,-2.4965,-2.5081,-2.5125,-2.5125,-2.5009,-2.4901,-2.4901,-2.4829,-2.4544,-2.4022,-2.3934,-2.3647,-2.3259,-2.3275,-2.3363,-2.3466,-2.3566,-2.3595,-2.3595,-2.3595,-2.3779,-2.4096,-2.4138,-2.417,-2.4172,-2.3684,-2.36,-2.4017,-2.4729,-2.5408,-2.6021,-2.463,-2.3503,-2.2742,-2.1429,-2.0009,-1.8559,-1.8592,-1.8336,-1.7673,-1.784,-1.8215,-1.8785,-1.698,-1.59,0.0,-1.3939,0.0,0.0,0.0,0.0,0.0,0.0,0.0,0.0,-2.0807,-2.1043,-2.1061,-2.5117,-2.7235,-2.6143,-2.8027,-2.9677,-3.0549,-3.0974,-3.1796,-3.3248,-3.3675,-3.4074,-3.4813,-3.4908,-3.4908,-3.4851,-3.4908,-3.4908,-3.4908,-3.4832,-3.4718,-3.4851,-3.4923,-3.5081,-3.5285,-3.543,-3.5584,-3.5662,-3.5704,-3.5704,-3.5704,-3.5704,-3.5704,-3.5704,-3.5704,-3.5704,-3.5704,-3.5704,-3.5704,-3.5704,-3.5704,-3.5704,-3.5704,-3.5607,-3.5568,-3.5568,-3.5549,-3.5742,-2.747,-2.7509,-2.7549,-2.7171,-2.6605,-2.6736,-2.6112,-2.5009,-2.4974,-2.5226,-2.5647,-2.6184,-2.6431,-2.6387,-2.585,-2.5604,-2.5575,-2.5067,-2.4791,-2.4675,-2.4138,-2.3926,-2.3873,-2.3496,-2.3319,-2.3319,-2.3523,-2.3566,-2.3509,-2.3551,-2.3398,-2.3028,-2.3285,-2.3132,-2.2661,0.0,0.0,0.0,-2.4729,-2.5176,-2.5259,-2.3868,-2.2742,-2.2013,-2.1151,0.0,-1.8608,-1.9072,-1.9055,-1.8377,-1.8908,0.0,0.0,0.0,0.0,0.0,0.0,0.0,0.0,0.0,0.0,0.0,-2.0963,-2.1314,-2.1351,-2.3614,-2.5081,-2.5153,-2.7689,-2.9507,-2.9896,-3.0894,-3.1755,-3.2125,-3.2808,-3.3525,-3.4255,-3.44,-3.4559,-3.4851,-3.4908,-3.4908,-3.4908,-3.4908,-3.4908,-3.4908,-3.4908,-3.4908,-3.4908,-3.5018,-3.5155,-3.5281,-3.5502,-3.5662,-3.5704,-3.5704,-3.5704,-3.5704,-3.5704,-3.5704,-3.5704,-3.5704,-3.5704,-3.5704,-3.5704,-3.5704,-3.5704,-3.5704,-3.5704,-3.5704,-3.5704,-3.5704,-3.5704,-3.5704,-3.5878,-2.8182,0.0,-2.7853,-2.736,0.0,-2.6431,-2.5749,-2.4907,-2.5531,-2.5995,-2.63,-2.6634,-2.6794,-2.675,-2.6083,-2.5778,-2.5734,-2.5125,-2.48,-2.4849,-2.4515,-2.4276,-2.4156,-2.3864,-2.3615,-2.3436,-2.3566,-2.361,-2.3538,-2.361,-2.3558,-2.3523,-2.3672,-2.369,-2.353,-2.4122,-2.4482,-2.4547,-2.4911,-2.5292,-2.559,-2.4564,-2.3636,-2.2891,0.0,0.0,0.0,0.0,0.0,0.0,0.0,0.0,0.0,0.0,0.0,-2.0398,-1.9576,-1.9382,-2.0116,-2.0807,-2.1866,-2.3412,-2.4657,-2.4923,-2.3901,-2.6385,-2.7978,-2.8015,-2.9807,-3.1129,-3.1564,-3.2306,-3.2853,-3.3003,-3.3488,-3.3972,-3.4316,-3.4536,-3.4668,-3.487,-3.4908,-3.4908,-3.4908,-3.4908,-3.4908,-3.4908,-3.4908,-3.4908,-3.4927,-3.5018,-3.5171,-3.5355,-3.5553,-3.5704,-3.5704,-3.5704,-3.5704,-3.5704,-3.5704,-3.5704,-3.5704,-3.5704,-3.5704,-3.5704,-3.5704,-3.5704,-3.5704,-3.5704,-3.5704,-3.5704,-3.5704,-3.5858,-3.6129,-3.5974,-3.5947,-2.8642,-2.8626,-2.8219,-2.7694,-2.707,-2.6402,-2.5778,-2.5284,0.0,0.0,0.0,-2.6736,-2.6794,-2.675,-2.6213,-2.5966,-2.5923,-2.5429,-2.5133,-2.5183,-2.5052,-2.4757,-2.4317,-2.4246,-2.3985,-2.3581,-2.3595,-2.3595,-2.3595,-2.3595,-2.3767,-2.4135,-2.4162,-2.4395,-2.4784,-2.5198,-2.5301,-2.517,-2.5125,-2.5408,-2.5971,-2.5292,-2.4547,-2.3835,-2.2626,-2.1301,-1.9832,-1.9336,-1.8766,-1.8112,-1.8325,-1.8985,-2.0184,-2.0497,-2.1184,-2.2387,-2.2613,-2.2992,-2.3731,-2.4041,-2.4827,-2.6298,-2.7423,-2.7673,-2.6687,-2.8685,-3.0033,-2.9989,-3.1473,-3.2415,-3.2415,-3.2995,-3.3441,-3.3481,-3.3671,-3.3921,-3.4245,-3.4454,-3.4687,-3.487,-3.4908,-3.4908,-3.4908,-3.4908,-3.4908,-3.4908,-3.4908,-3.4908,-3.4927,-3.5035,-3.5219,-3.5383,-3.5584,-3.5704,-3.5704,-3.5704,-3.5704,-3.5704,-3.5704,-3.5704,-3.5704,-3.5704,-3.5704,-3.5704,-3.5704,-3.5704,-3.5704,-3.5704,-3.5704,-3.5704,-3.5704,-3.5878,-3.6439,-3.6179,-3.6065,-2.8588,-2.8626,-2.9145,-2.8985,-2.8361,-2.7723,-2.7113,-2.6489,-2.6112,-2.5923,-2.5952,-2.6533,-2.6794,-2.6779,-2.6678,-2.6649,-2.6649,-2.6547,-2.6518,0.0,-2.5923,-2.5363,-2.4882,-2.4405,-2.3939,-2.3539,-2.3566,-2.3595,-2.3595,-2.3595,-2.3638,-2.3681,-2.3696,-2.3952,-2.4385,-2.4799,-2.5112,-2.5431,-2.5217,-2.516,-2.5243,-2.4547,-2.3802,-2.3089,-2.2874,-2.2046,-2.0605,-2.1052,-2.1002,-2.029,-2.0865,-2.1624,-2.2465,-2.2562,-2.3053,-2.3967,-2.4082,-2.445,-2.522,-2.5583,-2.6259,-2.7379,-2.7855,-2.8121,-2.829,-2.9826,-3.0822,-3.0876,-3.2252,-3.323,-3.3248,-3.3321,-3.3481,-3.3671,-3.3762,-3.3998,-3.445,-3.4539,-3.4668,-3.4889,-3.4908,-3.4908,-3.4908,-3.4908,-3.4908,-3.4908,-3.4908,-3.4908,-3.4945,-3.5122,-3.5285,-3.536,-3.5547,-3.5693,-3.5704,-3.5704,-3.5704,-3.5704,-3.5704,-3.5704,-3.5704,-3.5704,-3.5704,-3.5704,-3.5704,-3.5704,-3.5704,-3.5704,-3.5715,-3.5715,-3.5715,-3.5811,-3.6024,-3.5901,-3.6222,-2.8724,-2.9035,-2.8727,-2.8538,-2.8596,-2.7911,-2.7523,-2.7287,-2.6982,-2.6634,-2.6373,-2.6649,-2.6794,-2.675,-2.6402,-2.6228,-2.6242,-2.5879,-2.5908,-2.6213,-2.5923,-2.5683,-2.5511,-2.4945,-2.4378,-2.4,-2.3658,-2.3566,-2.3595,-2.3595,-2.3595,-2.3595,-2.3595,-2.3739,-2.3952,-2.4583,-2.4981,-2.516,-2.5517,-2.569,-2.569,-2.5375,-2.5027,-2.4679,-2.4315,-2.3802,-2.3106,-2.3023,-2.2824,-2.2493,-2.2824,-2.3353,-2.4099,-2.4246,-2.4677,-2.548,-2.5629,-2.5813,-2.6184,-2.6347,-2.6705,-2.737,-2.7542,-2.8021,-2.8925,-3.0215,-3.1003,-3.1057,-3.2451,-3.3393,-3.3393,-3.3393,-3.347,-3.3577,-3.3577,-3.3807,-3.4269,-3.4363,-3.4502,-3.485,-3.4908,-3.4908,-3.4908,-3.4908,-3.4908,-3.4908,-3.4908,-3.4908,-3.4908,-3.5122,-3.5315,-3.533,-3.5534,-3.5693,-3.5704,-3.5704,-3.5704,-3.5704,-3.5704,-3.5704,-3.5704,-3.5704,-3.5704,-3.5704,-3.5704,-3.5704,-3.5704,-3.5716,-3.5707,-3.5718,-3.5737,-3.5863,-3.6261,-3.6472,-3.6615,-2.857,-2.8989,-2.8157,-2.8036,-2.8363,-2.7994,-2.7782,-2.765,-2.7657,-2.7447,-2.7026,-2.6852,-2.6794,-2.6721,-2.6228,-2.601,-2.5952,-2.5502,-2.5546,-2.5981,-2.601,-2.5988,-2.5915,-2.5433,-2.4949,-2.4369,-2.3867,-2.3643,-2.3581,-2.3551,-2.361,-2.3595,-2.3595,-2.3595,-2.3595,-2.4461,-2.4902,-2.4942,-2.5754,-2.6203,-2.6203,-2.6203,-2.6187,-2.617,-2.5657,-2.5342,-2.5325,-2.4812,-2.4497,-2.4497,-2.4497,-2.4762,-2.5292,-2.553,-2.5866,-2.6453,-2.6623,-2.6657,-2.6708,-2.6708,-2.6824,-2.706,-2.7316,-2.7958,-2.9137,-3.0412,-3.1201,-3.1401,-3.2578,-3.3393,-3.3393,-3.3393,-3.3422,-3.3462,-3.3509,-3.3753,-3.4197,-3.4293,-3.4454,-3.4831,-3.4908,-3.4908,-3.4908,-3.4908,-3.4908,-3.4908,-3.4908,-3.4908,-3.4945,-3.5122,-3.53,-3.536,-3.5547,-3.5693,-3.5704,-3.5704,-3.5704,-3.5704,-3.5704,-3.5704,-3.5704,-3.5704,-3.5704,-3.5704,-3.5704,-3.5704,-3.5704,-3.5716,-3.5795,-3.595,-3.5941,-3.5976,-3.6506,-3.6666,-3.6618,-2.7683,-2.7789,-2.8166,-2.8125,-2.7816,-2.8274,-2.8183,-2.7695,-2.7693,-2.7654,-2.7563,-2.7041,-2.6808,-2.6779,-2.6707,-2.6663,-2.6663,-2.662,-2.662,-2.6663,-2.6692,-2.6425,-2.5901,-2.5871,-2.5263,-2.4271,-2.4128,-2.3896,-2.3524,-2.3494,-2.3538,-2.3595,-2.3595,-2.3595,-2.3681,-2.4446,-2.4902,-2.4902,-2.577,-2.6203,-2.6203,-2.6203,-2.6203,-2.6203,-2.6137,-2.6104,-2.6054,-2.6038,-2.5988,-2.6005,-2.5955,-2.6021,-2.6087,-2.6177,-2.6298,-2.6485,-2.6589,-2.6623,-2.6708,-2.6708,-2.6725,-2.6792,-2.762,-2.8397,-2.9015,-3.053,-3.1679,-3.2159,-3.2904,-3.3375,-3.3393,-3.3393,-3.3462,-3.3671,-3.3698,-3.3972,-3.4386,-3.458,-3.4647,-3.4851,-3.4889,-3.4908,-3.4908,-3.4908,-3.4908,-3.4908,-3.4908,-3.4908,-3.4927,-3.5138,-3.53,-3.5345,-3.5528,-3.5693,-3.5704,-3.5704,-3.5704,-3.5704,-3.5704,-3.5704,-3.5704,-3.5704,-3.5704,-3.5704,-3.5704,-3.5704,-3.5704,-3.5734,-3.5927,-3.6241,-3.6115,-3.5793,-3.5974,-3.6073,-3.6009,-2.7175,-2.7484,-2.7351,-2.7419,-2.7601,-2.828,-2.8435,-2.824,-2.867,-2.8434,-2.7683,-2.7447,-2.7142,-2.6794,-2.6794,-2.6794,-2.6794,-2.6794,-2.6794,-2.6794,-2.6794,-2.662,-2.6373,-2.6003,-2.5398,-2.4663,-2.4315,-2.3924,-2.357,-2.3538,-2.3566,-2.3595,-2.3595,-2.3595,-2.3681,-2.4446,-2.4902,-2.4902,-2.577,-2.6203,-2.6203,-2.6203,-2.6203,-2.6203,-2.6203,-2.6203,-2.6203,-2.6203,-2.6203,-2.6203,-2.6203,-2.6239,-2.6241,-2.6347,-2.6485,-2.6554,-2.6623,-2.6674,-2.6708,-2.6708,-2.6708,-2.6708,-2.7522,-2.8423,-2.9548,-3.0688,-3.1769,-3.2762,-3.3212,-3.3393,-3.3393,-3.3393,-3.3433,-3.3567,-3.3549,-3.3726,-3.4092,-3.4269,-3.4454,-3.4689,-3.4812,-3.4908,-3.4908,-3.4908,-3.4908,-3.4908,-3.4908,-3.4908,-3.4908,-3.5138,-3.5285,-3.5326,-3.5547,-3.5693,-3.5704,-3.5704,-3.5704,-3.5704,-3.5704,-3.5704,-3.5704,-3.5704,-3.5704,-3.5704,-3.5715,-3.5715,-3.5704,-3.5697,-3.5834,-3.6174,-3.6215,-3.584,-3.5885,-3.5891,-3.5897,-2.6714,-2.7108,-2.6726,-2.6782,-2.7297,-2.8103,-2.8515,-2.8627,-2.933,-2.9015,-2.8028,-2.781,-2.7374,-2.6837,-2.6794,-2.6794,-2.6794,-2.6794,-2.6794,-2.6794,-2.6794,-2.6779,-2.6721,-2.63,-2.577,-2.5179,-2.4553,-2.4009,-2.3511,-2.3566,-2.3595,-2.3595,-2.3595,-2.3595,-2.3696,-2.4379,-2.4759,-2.4799,-2.5567,-2.5954,-2.5881,-2.5954,-2.6079,-2.6168,-2.6203,-2.6203,-2.6203,-2.6203,-2.6203,-2.6203,-2.6203,-2.6239,-2.6295,-2.6434,-2.6537,-2.6606,-2.6674,-2.6708,-2.6708,-2.6708,-2.6708,-2.6776,-2.7554,-2.8647,-2.9813,-3.0882,-3.1966,-3.3003,-3.3334,-3.3393,-3.3393,-3.3393,-3.3393,-3.3393,-3.3393,-3.352,-3.3895,-3.4099,-3.4321,-3.4626,-3.4831,-3.4908,-3.4908,-3.4908,-3.4908,-3.4908,-3.4908,-3.4908,-3.4945,-3.5088,-3.5251,-3.53,-3.5502,-3.5651,-3.5704,-3.5704,-3.5704,-3.5704,-3.5704,-3.5715,-3.5706,-3.5706,-3.5727,-3.5728,-3.5718,-3.5718,-3.5747,-3.5737,-3.5745,-3.5904,-3.6131,-3.6209,-3.5981,-3.5928,-3.6025,-2.6339,-2.6521,-2.6521,-2.6533,-2.6645,-2.792,-2.8478,-2.8548,-2.9263,-2.9204,-2.8537,-2.7958,-2.7389,-2.6837,-2.6808,-2.6794,-2.6794,-2.6794,-2.6794,-2.6794,-2.6794,-2.6794,-2.6794,-2.675,-2.6373,-2.5712,-2.5081,-2.4309,-2.3437,-2.3523,-2.3595,-2.3595,-2.3595,-2.3595,-2.3681,-2.4135,-2.4343,-2.4467,-2.5137,-2.5351,-2.5098,-2.5351,-2.5738,-2.6115,-2.6168,-2.6151,-2.6203,-2.6203,-2.6203,-2.6203,-2.6203,-2.6222,-2.6312,-2.6434,-2.6572,-2.6674,-2.6691,-2.6708,-2.6708,-2.6708,-2.6708,-2.6877,-2.8027,-2.907,-2.9631,-3.1148,-3.2294,-3.2813,-3.3208,-3.3393,-3.3393,-3.3393,-3.3393,-3.3393,-3.3393,-3.3615,-3.4074,-3.4148,-3.4413,-3.4732,-3.487,-3.4908,-3.4908,-3.4908,-3.4908,-3.4908,-3.4908,-3.4908,-3.4927,-3.5054,-3.5171,-3.5281,-3.543,-3.5572,-3.5662,-3.5662,-3.5693,-3.5695,-3.5695,-3.5706,-3.5698,-3.5708,-3.5747,-3.5765,-3.5765,-3.5773,-3.5782,-3.5818,-3.5834,-3.6149,-3.6961,-3.7053,-3.6064,-3.5947,-3.6064,-2.6339,-2.6521,-2.6521,-2.6521,-2.6645,-2.792,-2.8505,-2.8542,-2.9307,-2.9249,-2.8578,-2.7939,-2.7329,-2.6747,-2.6794,-2.6794,-2.6794,-2.6794,-2.6794,-2.6794,-2.6794,-2.6794,-2.6794,-2.6779,-2.6431,-2.5821,-2.5546,-2.4873,-2.3953,-2.3674,-2.3566,-2.3595,-2.3595,-2.3595,-2.3681,-2.4051,-2.4302,-2.4328,-2.4863,-2.5059,-2.4902,-2.5059,-2.5329,-2.5738,-2.5775,-2.5901,-2.6168,-2.6203,-2.6203,-2.622,-2.6258,-2.6312,-2.6434,-2.6555,-2.664,-2.6691,-2.6708,-2.6708,-2.6708,-2.6708,-2.6708,-2.681,-2.8112,-2.9124,-2.9739,-3.1165,-3.2453,-3.2781,-3.3178,-3.3393,-3.3393,-3.3393,-3.3393,-3.3393,-3.3393,-3.3481,-3.3698,-3.3972,-3.4293,-3.4458,-3.4672,-3.4908,-3.4908,-3.4908,-3.4908,-3.4908,-3.4908,-3.4908,-3.4945,-3.507,-3.5219,-3.5315,-3.5416,-3.5496,-3.554,-3.5584,-3.5577,-3.5626,-3.5658,-3.5698,-3.5708,-3.5736,-3.5782,-3.5799,-3.5807,-3.5807,-3.5834,-3.6149,-3.6105,-3.6054,-3.6904,-3.719,-3.6025,-3.6279,-3.6395,-2.6131,-2.6245,-2.6314,-2.6408,-2.6521,-2.7657,-2.8182,-2.8247,-2.8967,-2.901,-2.8559,-2.811,-2.7722,-2.7371,-2.7144,-2.7084,-2.7055,-2.6895,-2.6794,-2.6794,-2.6794,-2.6794,-2.6794,-2.6794,-2.6562,-2.6177,-2.5981,-2.5409,-2.4587,-2.4089,-2.3866,-2.3939,-2.3729,-2.3595,-2.3638,-2.3909,-2.4078,-2.4177,-2.4517,-2.4623,-2.4542,-2.4623,-2.4902,-2.5237,-2.5313,-2.561,-2.6168,-2.6203,-2.6203,-2.6203,-2.6258,-2.6329,-2.6468,-2.6623,-2.6708,-2.6708,-2.6708,-2.6708,-2.6708,-2.6708,-2.6708,-2.6759,-2.8113,-2.911,-2.9431,-3.1167,-3.2279,-3.2684,-3.3099,-3.3393,-3.3393,-3.3393,-3.3393,-3.3393,-3.3393,-3.3452,-3.352,-3.3939,-3.4245,-3.448,-3.4713,-3.4889,-3.4908,-3.4908,-3.4908,-3.4908,-3.4908,-3.4908,-3.4945,-3.5035,-3.5187,-3.5235,-3.5315,-3.5402,-3.5449,-3.5449,-3.5502,-3.5558,-3.5648,-3.5679,-3.5745,-3.5791,-3.5815,-3.583,-3.5838,-3.5838,-3.6001,-3.6352,-3.632,-3.6054,-3.68,-3.7481,-3.698,-3.6824,-3.7058,-2.5758,-2.5746,-2.605,-2.6213,-2.6339,-2.7162,-2.755,-2.7683,-2.8247,-2.8474,-2.8407,-2.8484,-2.8358,-2.8397,-2.7761,-2.761,-2.7494,-2.6987,-2.6727,-2.6794,-2.6794,-2.6794,-2.6794,-2.6794,-2.6779,-2.6649,-2.6352,-2.5869,-2.5206,-2.4773,-2.4582,-2.4462,-2.3984,-2.3744,-2.364,-2.3683,-2.3638,-2.3724,-2.4078,-2.4078,-2.3739,-2.412,-2.4574,-2.4902,-2.4942,-2.5362,-2.6151,-2.6203,-2.6203,-2.6203,-2.622,-2.6274,-2.652,-2.6623,-2.6708,-2.6708,-2.6708,-2.6708,-2.6708,-2.6708,-2.6708,-2.6894,-2.813,-2.9042,-2.9389,-3.1045,-3.2334,-3.2502,-3.2975,-3.3393,-3.3393,-3.3393,-3.3393,-3.3393,-3.3393,-3.3509,-3.3726,-3.4023,-3.4367,-3.4693,-3.4851,-3.487,-3.4908,-3.4908,-3.4908,-3.4908,-3.4908,-3.4908,-3.4908,-3.4964,-3.5001,-3.5107,-3.5207,-3.5285,-3.532,-3.535,-3.5422,-3.547,-3.5581,-3.5658,-3.5763,-3.5811,-3.5852,-3.5866,-3.5859,-3.5859,-3.5976,-3.632,-3.6657,-3.6663,-3.7409,-3.7837,-3.7701,-3.7584,-3.8013,-2.5758,-2.5828,-2.591,-2.598,-2.6119,-2.6892,-2.7284,-2.7364,-2.767,-2.7827,-2.7873,-2.789,-2.7913,-2.7843,-2.7328,-2.731,-2.7625,-2.6709,-2.6394,-2.6727,-2.6794,-2.6794,-2.6794,-2.6794,-2.6794,-2.673,-2.6316,-2.6006,-2.5825,-2.5426,-2.5207,-2.5135,-2.4642,-2.4283,-2.4253,-2.3849,-2.3595,-2.3638,-2.3724,-2.3739,-2.3653,-2.4051,-2.4492,-2.4879,-2.4902,-2.5307,-2.6132,-2.6203,-2.6203,-2.622,-2.6362,-2.6485,-2.6623,-2.6674,-2.6708,-2.6708,-2.6708,-2.6708,-2.6708,-2.6708,-2.6708,-2.6962,-2.8112,-2.9017,-2.9505,-3.115,-3.2332,-3.2601,-3.3099,-3.3393,-3.3393,-3.3393,-3.3393,-3.3393,-3.3393,-3.3422,-3.3559,-3.3762,-3.4148,-3.4564,-3.4689,-3.4751,-3.487,-3.4908,-3.4908,-3.4927,-3.4908,-3.4908,-3.4927,-3.4963,-3.5035,-3.5105,-3.5157,-3.5207,-3.527,-3.536,-3.5424,-3.5502,-3.5604,-3.5708,-3.5788,-3.5859,-3.5879,-3.6033,-3.602,-3.6103,-3.6181,-3.6532,-3.7019,-3.7116,-3.7487,-3.7818,-3.809,-3.8344,-3.8617,-2.5535,-2.5688,-2.5758,-2.5758,-2.5828,-2.6577,-2.685,-2.6837,-2.704,-2.7297,-2.7459,-2.7575,-2.7709,-2.7781,-2.7357,-2.7315,-2.7567,-2.6631,-2.6447,-2.6727,-2.6794,-2.6794,-2.6794,-2.6794,-2.6794,-2.6774,-2.6564,-2.6461,-2.6533,-2.6124,-2.5878,-2.5854,-2.5076,-2.4567,-2.4522,-2.3954,-2.3595,-2.3595,-2.3595,-2.3595,-2.3638,-2.3852,-2.4245,-2.4599,-2.4679,-2.5052,-2.568,-2.5864,-2.6043,-2.6203,-2.638,-2.6554,-2.6623,-2.6674,-2.6708,-2.6708,-2.6708,-2.6708,-2.6708,-2.6708,-2.6708,-2.6945,-2.8095,-2.9087,-2.973,-3.1219,-3.24,-3.2763,-3.3178,-3.3393,-3.3393,-3.3441,-3.3422,-3.3452,-3.3393,-3.3452,-3.352,-3.3698,-3.4023,-3.4431,-3.4623,-3.4728,-3.4888,-3.4908,-3.4927,-3.4945,-3.4945,-3.4964,-3.4983,-3.5056,-3.5072,-3.5107,-3.5143,-3.5209,-3.53,-3.5383,-3.5438,-3.5543,-3.5639,-3.5745,-3.5845,-3.5885,-3.5918,-3.6442,-3.659,-3.6999,-3.7136,-3.7662,-3.8129,-3.7954,-3.7681,-3.8266,-3.8694,-3.8656,-3.8772,-2.5312,-2.5312,-2.5535,-2.5606,-2.5606,-2.605,-2.6188,-2.6258,-2.6396,-2.6837,-2.7338,-2.7485,-2.7802,-2.8143,-2.7732,-2.7561,-2.7453,-2.6983,-2.6746,-2.6756,-2.6794,-2.6794,-2.6794,-2.6794,-2.6794,-2.6832,-2.6982,-2.7071,-2.7034,-2.6733,-2.6647,-2.6512,-2.5388,-2.4657,-2.4627,-2.3984,-2.3595,-2.3595,-2.3595,-2.3595,-2.3595,-2.3696,-2.3909,-2.4302,-2.4343,-2.4574,-2.5098,-2.5497,-2.5811,-2.6168,-2.638,-2.652,-2.6554,-2.6607,-2.6708,-2.6708,-2.6708,-2.6708,-2.6708,-2.6708,-2.6708,-2.681,-2.808,-2.9138,-2.9661,-3.1115,-3.2368,-3.2763,-3.3129,-3.3345,-3.3393,-3.3452,-3.3481,-3.3462,-3.3452,-3.352,-3.3726,-3.3788,-3.4074,-3.4431,-3.4623,-3.4728,-3.4964,-3.4945,-3.5001,-3.5057,-3.5038,-3.5039,-3.5075,-3.5092,-3.5092,-3.511,-3.5127,-3.5239,-3.5326,-3.5405,-3.55,-3.566,-3.5724,-3.5784,-3.5866,-3.5898,-3.5943,-3.6487,-3.698,-3.7487,-3.7779,-3.7915,-3.8129,-3.7954,-3.8188,-3.8909,-3.9045,-3.885,-3.85,-2.5312,-2.5312,-2.5382,-2.5382,-2.5382,-2.5688,-2.5828,-2.5992,-2.6213,-2.6465,-2.6837,-2.7284,-2.7537,-2.7696,-2.7705,-2.7635,-2.7376,-2.6962,-2.6766,-2.677,-2.6794,-2.6794,-2.6794,-2.6794,-2.6794,-2.6832,-2.7003,-2.7041,-2.7093,-2.7143,-2.714,-2.7125,-2.5971,-2.5345,-2.5211,-2.4193,-2.364,-2.3595,-2.3595,-2.3595,-2.3653,-2.3909,-2.4177,-2.4261,-2.4261,-2.4639,-2.5275,-2.5775,-2.6063,-2.6277,-2.6399,-2.652,-2.6572,-2.6657,-2.6708,-2.6708,-2.6708,-2.6708,-2.6708,-2.6708,-2.6708,-2.6826,-2.8112,-2.9104,-2.9523,-3.0958,-3.2074,-3.2716,-3.2988,-3.316,-3.3415,-3.3481,-3.3452,-3.3452,-3.3491,-3.3577,-3.3643,-3.3815,-3.4055,-3.433,-3.4548,-3.4772,-3.4983,-3.5038,-3.5038,-3.5092,-3.5092,-3.5075,-3.511,-3.511,-3.511,-3.5092,-3.5145,-3.5251,-3.5364,-3.5438,-3.5579,-3.5772,-3.5853,-3.5833,-3.5878,-3.5897,-3.5942,-3.6162,-3.6532,-3.7019,-3.698,-3.698,-3.7253,-3.7954,-3.8266,-3.8753,-3.8694,-3.8519,-3.8057,-2.5312,-2.5312,-2.5312,-2.5312,-2.5312,-2.5535,-2.5758,-2.591,-2.6144,-2.6339,-2.6602,-2.6905,-2.7108,-2.7085,-2.6942,-2.6835,-2.6707,-2.6238,-2.6202,-2.6465,-2.6674,-2.6779,-2.6794,-2.6794,-2.6794,-2.6832,-2.7003,-2.7093,-2.7144,-2.7335,-2.7488,-2.728,-2.6494,-2.5914,-2.551,-2.4627,-2.3864,-2.3655,-2.3595,-2.3595,-2.3638,-2.3867,-2.3937,-2.3994,-2.3994,-2.4338,-2.4965,-2.5307,-2.5589,-2.5994,-2.6329,-2.6536,-2.6606,-2.6691,-2.6708,-2.6708,-2.6708,-2.6708,-2.6708,-2.6708,-2.6708,-2.6962,-2.8112,-2.9004,-2.9696,-3.0959,-3.2283,-3.2781,-3.2957,-3.319,-3.3433,-3.3509,-3.3509,-3.3577,-3.3633,-3.3661,-3.3549,-3.3753,-3.4005,-3.4242,-3.4508,-3.4793,-3.5075,-3.511,-3.511,-3.5127,-3.5147,-3.5145,-3.5145,-3.5145,-3.5126,-3.5126,-3.5143,-3.5251,-3.5378,-3.5451,-3.5557,-3.5764,-3.5883,-3.5889,-3.5889,-3.5908,-3.6123,-3.622,-3.6337,-3.6493,-3.6688,-3.6999,-3.7701,-3.8227,-3.8383,-3.8227,-3.811,-3.796,-3.7537,-2.5312,-2.5312,-2.5312,-2.5312,-2.5312,-2.5465,-2.5688,-2.584,-2.605,-2.6188,-2.6396,-2.6452,-2.6521,-2.6471,-2.6337,-2.5876,-2.5782,-2.5522,-2.559,-2.6045,-2.6447,-2.6794,-2.6794,-2.6794,-2.6794,-2.6832,-2.7078,-2.713,-2.7181,-2.7386,-2.7524,-2.7345,-2.6822,-2.6303,-2.5794,-2.5076,-2.4403,-2.3894,-2.3819,-2.3729,-2.364,-2.3653,-2.3681,-2.3681,-2.3824,-2.4021,-2.4395,-2.4639,-2.502,-2.5684,-2.6187,-2.6415,-2.6503,-2.6607,-2.6708,-2.6708,-2.6708,-2.6708,-2.6708,-2.6708,-2.6776,-2.7097,-2.8213,-2.9153,-2.9798,-3.1115,-3.2283,-3.2699,-3.3129,-3.3316,-3.347,-3.3621,-3.3743,-3.3771,-3.378,-3.3698,-3.3559,-3.3698,-3.3979,-3.4223,-3.4529,-3.4851,-3.5038,-3.5145,-3.5126,-3.516,-3.5179,-3.5179,-3.5176,-3.5176,-3.5176,-3.5176,-3.519,-3.5239,-3.535,-3.5451,-3.5568,-3.5715,-3.584,-3.5889,-3.5889,-3.6006,-3.6337,-3.6473,-3.6298,-3.661,-3.7175,-3.7662,-3.8032,-3.7954,-3.7726,-3.7531,-3.7356,-3.7186,-3.684,-2.5312,-2.5312,-2.5312,-2.5312,-2.5312,-2.5312,-2.5465,-2.5688,-2.5758,-2.5898,-2.605,-2.6188,-2.627,-2.6289,-2.6295,-2.6203,-2.5657,-2.556,-2.5782,-2.5907,-2.65,-2.6779,-2.6779,-2.6779,-2.6779,-2.6832,-2.6832,-2.6884,-2.6989,-2.7181,-2.7269,-2.7232,-2.6971,-2.6527,-2.6288,-2.5689,-2.5076,-2.4522,-2.4358,-2.4118,-2.3729,-2.3714,-2.3699,-2.3698,-2.3925,-2.4162,-2.4436,-2.5036,-2.5535,-2.5758,-2.5957,-2.617,-2.626,-2.6521,-2.6708,-2.6708,-2.6708,-2.6708,-2.6708,-2.6759,-2.6962,-2.7554,-2.8469,-2.9282,-2.9966,-3.1108,-3.2057,-3.2502,-3.2912,-3.3358,-3.3738,-3.4329,-3.4293,-3.4009,-3.3987,-3.4053,-3.3972,-3.416,-3.442,-3.4674,-3.4889,-3.5088,-3.5176,-3.5176,-3.5157,-3.519,-3.519,-3.5174,-3.5174,-3.519,-3.519,-3.519,-3.5266,-3.5326,-3.5405,-3.5523,-3.5641,-3.5732,-3.5833,-3.5889,-3.5889,-3.5908,-3.6162,-3.6181,-3.6064,-3.6512,-3.6999,-3.7175,-3.7331,-3.7161,-3.7024,-3.6874,-3.6699,-3.6475,-3.6387,-2.5312,-2.5312,-2.5312,-2.5312,-2.5312,-2.5312,-2.5382,-2.5606,-2.5606,-2.5676,-2.591,-2.6062,-2.6131,-2.6151,-2.6063,-2.5755,-2.5305,-2.5123,-2.5033,-2.5188,-2.5646,-2.6111,-2.634,-2.6447,-2.65,-2.6727,-2.6937,-2.6989,-2.7026,-2.7233,-2.7408,-2.7372,-2.7151,-2.6871,-2.6617,-2.6243,-2.5734,-2.5211,-2.5076,-2.4762,-2.4208,-2.4403,-2.4328,-2.4029,-2.4021,-2.3994,-2.412,-2.4744,-2.5137,-2.5422,-2.5795,-2.6137,-2.6314,-2.6556,-2.6691,-2.6708,-2.6708,-2.6708,-2.6725,-2.7029,-2.7402,-2.7824,-2.8859,-2.97,-3.048,-3.1408,-3.2458,-3.3161,-3.3692,-3.4087,-3.4673,-3.4668,-3.4687,-3.4631,-3.4604,-3.463,-3.4483,-3.4526,-3.4653,-3.4851,-3.5019,-3.5124,-3.5193,-3.519,-3.519,-3.519,-3.519,-3.5174,-3.5174,-3.519,-3.519,-3.5223,-3.534,-3.5405,-3.5476,-3.559,-3.5741,-3.5813,-3.5852,-3.5889,-3.5889,-3.5889,-3.5908,-3.5928,-3.5947,-3.5928,-3.6317,-3.6473,-3.661,-3.6479,-3.6362,-3.6231,-3.6182,-3.6168,-3.613,-2.5312,-2.5312,-2.5312,-2.5312,-2.5312,-2.5312,-2.5382,-2.5535,-2.5535,-2.5606,-2.584,-2.584,-2.5992,-2.6008,-2.5672,-2.5165,-2.4659,-2.4387,-2.4319,-2.4637,-2.4964,-2.5591,-2.6002,-2.6002,-2.615,-2.6712,-2.6974,-2.7078,-2.713,-2.7372,-2.7423,-2.7524,-2.756,-2.726,-2.6841,-2.6707,-2.6408,-2.5854,-2.5749,-2.5435,-2.4941,-2.5226,-2.5166,-2.4777,-2.4163,-2.401,-2.4137,-2.4503,-2.4759,-2.4918,-2.5691,-2.6341,-2.6724,-2.6725,-2.6708,-2.6708,-2.6843,-2.6996,-2.7148,-2.7588,-2.8061,-2.8163,-2.9319,-3.0248,-3.0848,-3.1672,-3.2719,-3.3877,-3.4622,-3.5422,-3.6003,-3.5897,-3.5588,-3.5525,-3.5597,-3.5506,-3.532,-3.5115,-3.5097,-3.4908,-3.5054,-3.5176,-3.5193,-3.519,-3.519,-3.519,-3.519,-3.519,-3.519,-3.519,-3.519,-3.5251,-3.5364,-3.5557,-3.5641,-3.5669,-3.582,-3.584,-3.5889,-3.5889,-3.5894,-3.5894,-3.5894,-3.5889,-3.5889,-3.5889,-3.5894,-3.6089,-3.6109,-3.5894,-3.5943,-3.6055,-3.6016,-3.5938,-3.5906,-2.5312,-2.5312,-2.5312,-2.5312,-2.5312,-2.5312,-2.5312,-2.5382,-2.5382,-2.5382,-2.5453,-2.5758,-2.591,-2.5844,-2.574,-2.5031,-2.4419,-2.4094,-2.4234,-2.4567,-2.4838,-2.53,-2.5988,-2.5591,-2.5811,-2.6553,-2.6884,-2.6884,-2.6989,-2.713,-2.7335,-2.7321,-2.7524,-2.7475,-2.7445,-2.7415,-2.7021,-2.6527,-2.6422,-2.6093,-2.5659,-2.551,-2.5615,-2.5345,-2.4792,-2.4537,-2.4593,-2.4652,-2.4823,-2.5301,-2.6031,-2.6821,-2.7328,-2.7114,-2.6911,-2.6996,-2.7368,-2.7638,-2.774,-2.8349,-2.9059,-2.9583,-3.0044,-3.0523,-3.1069,-3.1731,-3.2879,-3.4171,-3.5643,-3.6698,-3.6292,-3.6586,-3.6768,-3.666,-3.6614,-3.6735,-3.6745,-3.6426,-3.5851,-3.5394,-3.5293,-3.5193,-3.5174,-3.519,-3.519,-3.519,-3.519,-3.519,-3.519,-3.519,-3.519,-3.5296,-3.5418,-3.5631,-3.582,-3.5827,-3.5878,-3.5878,-3.5889,-3.5894,-3.5899,-3.5885,-3.5885,-3.5899,-3.5894,-3.5914,-3.5899,-3.5904,-3.5904,-3.5924,-3.5958,-3.599,-3.597,-3.5955,-3.593,-2.5312,-2.5312,-2.5312,-2.5312,-2.5312,-2.5312,-2.5312,-2.5312,-2.5312,-2.5312,-2.5382,-2.5535,-2.5688,-2.5836,-2.5802,-2.5249,-2.452,-2.372,-2.3806,-2.3989,-2.4092,-2.4452,-2.5481,-2.5021,-2.5591,-2.6218,-2.6621,-2.6779,-2.6899,-2.7196,-2.7284,-2.7321,-2.7524,-2.756,-2.756,-2.758,-2.7445,-2.7111,-2.7036,-2.6767,-2.6123,-2.5854,-2.5764,-2.5978,-2.5618,-2.5318,-2.5424,-2.5725,-2.6009,-2.6519,-2.7095,-2.7744,-2.8065,-2.811,-2.7875,-2.796,-2.8213,-2.8416,-2.8535,-2.911,-2.9756,-3.0099,-3.0527,-3.1052,-3.1691,-3.2511,-3.3616,-3.5307,-3.6259,-3.7473,-3.7569,-3.7551,-3.7451,-3.7522,-3.7596,-3.7596,-3.7508,-3.7259,-3.6644,-3.5878,-3.5477,-3.5269,-3.5174,-3.519,-3.519,-3.519,-3.519,-3.519,-3.519,-3.5207,-3.5223,-3.5336,-3.5463,-3.565,-3.5833,-3.5883,-3.5894,-3.5894,-3.5914,-3.5899,-3.5904,-3.5909,-3.5909,-3.5885,-3.5904,-3.5929,-3.5948,-3.5958,-3.5958,-3.5958,-3.5986,-3.5994,-3.5997,-3.5994,-3.5956,-2.5312,-2.5312,-2.5312,-2.5312,-2.5312,-2.5312,-2.5312,-2.5312,-2.5312,-2.5312,-2.5312,-2.5382,-2.5535,-2.5755,-2.5635,-2.5277,-2.4858,-2.3828,-2.351,-2.3653,-2.352,-2.371,-2.4305,-2.4509,-2.4964,-2.5646,-2.5825,-2.6539,-2.7003,-2.7196,-2.7335,-2.7437,-2.7524,-2.756,-2.756,-2.756,-2.756,-2.756,-2.7545,-2.7245,-2.6782,-2.6381,-2.6324,-2.6856,-2.6359,-2.6105,-2.626,-2.6301,-2.669,-2.7163,-2.7712,-2.8319,-2.8803,-2.9051,-2.9173,-2.9269,-2.9259,-2.9211,-2.9381,-2.9888,-3.0383,-3.0523,-3.1062,-3.1579,-3.2414,-3.3494,-3.5157,-3.6906,-3.7686,-3.7943,-3.8285,-3.8102,-3.8034,-3.8257,-3.8426,-3.8388,-3.8002,-3.764,-3.716,-3.6451,-3.5725,-3.5343,-3.5229,-3.519,-3.519,-3.519,-3.519,-3.519,-3.519,-3.5251,-3.5311,-3.5386,-3.5504,-3.5687,-3.5807,-3.5889,-3.5899,-3.5899,-3.5924,-3.5948,-3.5953,-3.5934,-3.5934,-3.5919,-3.5947,-3.599,-3.6009,-3.6005,-3.599,-3.599,-3.6009,-3.6001,-3.5979,-3.597,-3.5937,-2.5312,-2.5312,-2.5241,-2.5312,-2.5241,-2.5241,-2.5312,-2.5312,-2.5312,-2.5312,-2.5312,-2.5465,-2.5535,-2.5517,-2.4994,-2.5074,-2.4981,-2.4356,-2.3963,-2.4243,-2.3961,-2.3996,-2.4505,-2.3708,-2.4279,-2.4964,-2.4794,-2.5467,-2.6539,-2.7078,-2.7299,-2.7386,-2.7524,-2.756,-2.756,-2.756,-2.756,-2.756,-2.756,-2.7515,-2.746,-2.7375,-2.7519,-2.7463,-2.7197,-2.6914,-2.6947,-2.6857,-2.6834,-2.7198,-2.7449,-2.7965,-2.8666,-2.9355,-2.9854,-3.0128,-3.0146,-2.9973,-3.0091,-3.0548,-3.0959,-3.1002,-3.1261,-3.173,-3.2859,-3.4391,-3.5897,-3.6696,-3.769,-3.8334,-3.8615,-3.8579,-3.8715,-3.8831,-3.894,-3.8813,-3.851,-3.7487,-3.7064,-3.6585,-3.5744,-3.54,-3.5209,-3.519,-3.519,-3.519,-3.519,-3.519,-3.5223,-3.5281,-3.5425,-3.5527,-3.5591,-3.5737,-3.584,-3.5899,-3.5924,-3.5909,-3.5934,-3.5977,-3.5981,-3.5986,-3.5994,-3.6001,-3.6004,-3.6001,-3.6017,-3.6013,-3.6017,-3.602,-3.602,-3.5982,-3.5936,-3.5918,-3.5917,-2.3891,-2.3986,-2.3986,-2.4276,-2.4636,-2.4636,-2.4862,-2.5241,-2.5312,-2.5312,-2.53,-2.5382,-2.5465,-2.5423,-2.505,-2.5078,-2.5149,-2.4379,-2.4066,-2.4249,-2.3887,-2.3679,-2.3819,-2.3767,-2.4118,-2.4279,-2.4724,-2.5467,-2.6351,-2.6683,-2.6855,-2.7284,-2.7473,-2.756,-2.7509,-2.756,-2.756,-2.756,-2.756,-2.756,-2.7625,-2.7725,-2.784,-2.789,-2.7735,-2.7743,-2.7731,-2.7702,-2.769,-2.8117,-2.834,-2.8796,-2.9544,-3.007,-3.0418,-3.0845,-3.083,-3.0777,-3.0866,-3.1099,-3.124,-3.1423,-3.1606,-3.2265,-3.3735,-3.4977,-3.643,-3.7804,-3.7851,-3.8181,-3.8597,-3.8689,-3.895,-3.9117,-3.9046,-3.898,-3.8531,-3.749,-3.6719,-3.6241,-3.584,-3.5627,-3.5359,-3.5229,-3.5209,-3.5207,-3.5207,-3.5223,-3.5251,-3.5321,-3.5492,-3.5693,-3.5745,-3.5801,-3.5883,-3.5958,-3.5977,-3.5958,-3.5958,-3.6005,-3.6009,-3.6013,-3.6004,-3.6007,-3.6007,-3.6004,-3.602,-3.602,-3.6004,-3.6007,-3.601,-3.597,-3.5937,-3.5898,-3.5894,-2.2188,-2.2649,-2.3095,-2.361,-2.4108,-2.4337,-2.4779,-2.5241,-2.5312,-2.5312,-2.5312,-2.5312,-2.5382,-2.5472,-2.5301,-2.5283,-2.5425,-2.4424,-2.4154,-2.3942,-2.3653,-2.3326,-2.3356,-2.3603,-2.378,-2.3897,-2.4163,-2.4894,-2.5453,-2.5892,-2.619,-2.7011,-2.693,-2.7188,-2.7306,-2.7357,-2.7357,-2.756,-2.756,-2.756,-2.7625,-2.7725,-2.784,-2.8005,-2.8152,-2.8235,-2.8396,-2.835,-2.8543,-2.8701,-2.8933,-2.9236,-2.98,-3.0243,-3.0559,-3.0942,-3.1055,-3.1266,-3.1287,-3.1372,-3.1428,-3.1623,-3.2276,-3.3231,-3.503,-3.5648,-3.6386,-3.84,-3.8218,-3.8285,-3.8505,-3.8707,-3.8892,-3.8904,-3.8752,-3.8764,-3.8575,-3.7544,-3.6984,-3.6905,-3.6485,-3.593,-3.5662,-3.5359,-3.5245,-3.5223,-3.5239,-3.5254,-3.5336,-3.5419,-3.5582,-3.582,-3.5872,-3.5903,-3.5943,-3.6005,-3.6005,-3.6009,-3.6009,-3.6013,-3.6017,-3.602,-3.6004,-3.6007,-3.6007,-3.6007,-3.6007,-3.601,-3.601,-3.601,-3.5996,-3.5971,-3.5937,-3.5897,-3.5862,-2.0702,-2.1766,-2.3305,-2.3975,-2.4108,-2.4933,-2.5241,-2.5312,-2.5312,-2.5312,-2.5312,-2.5312,-2.5394,-2.5496,-2.5343,-2.5475,-2.6039,-2.5128,-2.473,-2.4455,-2.4192,-2.359,-2.3399,-2.3261,-2.3245,-2.3245,-2.359,-2.4002,-2.4337,-2.4851,-2.5577,-2.651,-2.6443,-2.6443,-2.6721,-2.71,-2.7203,-2.7408,-2.756,-2.7625,-2.7675,-2.7725,-2.789,-2.8005,-2.8137,-2.8284,-2.8411,-2.8411,-2.8444,-2.8573,-2.8904,-2.9166,-2.9601,-3.0208,-3.0625,-3.0885,-3.1274,-3.1445,-3.1504,-3.1483,-3.1534,-3.1948,-3.2913,-3.4356,-3.5865,-3.6916,-3.7805,-3.8491,-3.845,-3.8554,-3.8683,-3.875,-3.8931,-3.876,-3.8498,-3.8175,-3.8023,-3.76,-3.7173,-3.7419,-3.696,-3.608,-3.5771,-3.5411,-3.528,-3.5258,-3.5307,-3.5336,-3.5538,-3.564,-3.576,-3.5899,-3.5953,-3.5981,-3.5981,-3.6009,-3.6017,-3.602,-3.602,-3.6004,-3.6007,-3.601,-3.6007,-3.601,-3.601,-3.601,-3.601,-3.601,-3.601,-3.601,-3.6001,-3.5973,-3.5929,-3.5869,-3.5825,-2.002,-2.0624,-2.1973,-2.3084,-2.412,-2.4409,-2.4862,-2.5241,-2.5312,-2.5312,-2.5312,-2.5312,-2.5312,-2.538,-2.5296,-2.5274,-2.5413,-2.4789,-2.4636,-2.4417,-2.3966,-2.3602,-2.3414,-2.3314,-2.3125,-2.3138,-2.3258,-2.3662,-2.4408,-2.4247,-2.4708,-2.5425,-2.596,-2.6721,-2.7049,-2.7049,-2.7152,-2.7152,-2.7509,-2.774,-2.779,-2.7925,-2.8088,-2.8088,-2.825,-2.8348,-2.8411,-2.8411,-2.8411,-2.8541,-2.8873,-2.9166,-2.9512,-3.0234,-3.0707,-3.0965,-3.1389,-3.1559,-3.1596,-3.1648,-3.1785,-3.2693,-3.3994,-3.546,-3.6381,-3.7254,-3.8029,-3.8515,-3.8615,-3.8517,-3.8902,-3.8942,-3.8915,-3.8664,-3.8218,-3.773,-3.7471,-3.7177,-3.6979,-3.7034,-3.6405,-3.5586,-3.5484,-3.5438,-3.5366,-3.5308,-3.5369,-3.5444,-3.565,-3.5801,-3.5875,-3.5942,-3.5994,-3.6017,-3.6017,-3.6004,-3.6007,-3.6007,-3.601,-3.601,-3.601,-3.601,-3.601,-3.601,-3.601,-3.601,-3.601,-3.601,-3.601,-3.601,-3.6003,-3.5974,-3.5918,-3.5833,-3.5877,-1.9784,-2.0235,-2.1001,-2.2188,-2.3599,-2.3975,-2.4564,-2.5229,-2.5312,-2.5312,-2.5312,-2.5312,-2.5312,-2.5312,-2.5358,-2.5366,-2.5208,-2.4853,-2.4752,-2.4501,-2.4029,-2.3679,-2.3616,-2.3489,-2.3125,-2.3138,-2.3258,-2.3662,-2.4131,-2.3936,-2.4376,-2.5104,-2.5756,-2.6297,-2.6616,-2.7203,-2.7152,-2.7203,-2.7357,-2.779,-2.784,-2.794,-2.8137,-2.8186,-2.8299,-2.8363,-2.8411,-2.8411,-2.8411,-2.8525,-2.8826,-2.9348,-2.9821,-3.036,-3.0885,-3.1257,-3.1542,-3.1671,-3.1688,-3.1963,-3.2362,-3.33,-3.4673,-3.5733,-3.6506,-3.7212,-3.7744,-3.8151,-3.812,-3.8166,-3.8572,-3.8368,-3.8233,-3.7872,-3.7305,-3.6862,-3.7067,-3.6952,-3.6741,-3.6588,-3.6055,-3.586,-3.5703,-3.5695,-3.5441,-3.5424,-3.5512,-3.5601,-3.5753,-3.5869,-3.5919,-3.5958,-3.6007,-3.601,-3.601,-3.601,-3.6007,-3.601,-3.601,-3.601,-3.601,-3.601,-3.601,-3.601,-3.601,-3.601,-3.601,-3.6013,-3.601,-3.601,-3.5992,-3.5955,-3.5896,-3.5866,-3.6054,-1.9835,-2.076,-2.076,-2.1507,-2.2702,-2.3672,-2.448,-2.5016,-2.517,-2.5241,-2.5312,-2.5312,-2.5312,-2.5312,-2.5453,-2.5414,-2.5359,-2.5129,-2.5056,-2.4892,-2.4213,-2.3966,-2.3791,-2.359,-2.3251,-2.315,-2.3198,-2.3437,-2.3734,-2.3747,-2.4203,-2.4664,-2.5048,-2.5328,-2.5216,-2.6244,-2.6997,-2.7473,-2.756,-2.774,-2.784,-2.794,-2.8088,-2.8186,-2.8284,-2.8396,-2.8444,-2.8541,-2.8541,-2.8621,-2.9044,-2.9496,-2.9919,-3.0526,-3.1083,-3.1504,-3.1709,-3.18,-3.1817,-3.2472,-3.3287,-3.4181,-3.5542,-3.6237,-3.6399,-3.6798,-3.7189,-3.7581,-3.7143,-3.7146,-3.7248,-3.7378,-3.7427,-3.7177,-3.6634,-3.6329,-3.6539,-3.6523,-3.6239,-3.6109,-3.6404,-3.6531,-3.6277,-3.5998,-3.565,-3.5554,-3.5631,-3.5753,-3.5864,-3.5919,-3.5958,-3.5985,-3.601,-3.601,-3.601,-3.601,-3.601,-3.601,-3.601,-3.601,-3.601,-3.601,-3.601,-3.601,-3.6013,-3.6013,-3.6013,-3.6013,-3.6003,-3.5973,-3.5933,-3.5887,-3.586,-3.5963,-3.6259,-1.9539,-1.9844,-1.9932,-2.0537,-2.1507,-2.2627,-2.3379,-2.3829,-2.4276,-2.4791,-2.5229,-2.5312,-2.5312,-2.5312,-2.5276,-2.5226,-2.5107,-2.4998,-2.5019,-2.5202,-2.4521,-2.4439,-2.4292,-2.3929,-2.3489,-2.3226,-2.3198,-2.3378,-2.3616,-2.3688,-2.3936,-2.4345,-2.4607,-2.4878,-2.5687,-2.6602,-2.7357,-2.7291,-2.756,-2.7955,-2.8039,-2.8137,-2.8201,-2.8348,-2.8429,-2.8525,-2.8573,-2.8716,-2.8763,-2.8842,-2.9348,-2.9821,-3.0192,-3.0747,-3.1278,-3.1579,-3.1746,-3.1873,-3.2329,-3.3169,-3.4387,-3.5308,-3.6251,-3.6844,-3.6818,-3.7153,-3.7161,-3.6849,-3.6509,-3.6705,-3.7178,-3.7367,-3.7336,-3.6935,-3.6466,-3.6102,-3.6044,-3.5833,-3.5622,-3.5588,-3.5772,-3.5897,-3.5797,-3.5905,-3.5688,-3.5618,-3.5706,-3.5814,-3.5919,-3.5955,-3.5988,-3.5988,-3.601,-3.601,-3.601,-3.601,-3.601,-3.601,-3.601,-3.601,-3.601,-3.6013,-3.6013,-3.6013,-3.6013,-3.6016,-3.6005,-3.5993,-3.5976,-3.595,-3.59,-3.5839,-3.5784,-3.6142,-3.6686,-1.9292,-1.9292,-1.9469,-1.9854,-2.0537,-2.1886,-2.2936,-2.3694,-2.4276,-2.4862,-2.5158,-2.5004,-2.5087,-2.5087,-2.4755,-2.498,-2.4864,-2.4656,-2.5095,-2.5283,-2.495,-2.476,-2.4553,-2.4217,-2.3653,-2.3301,-2.3271,-2.3378,-2.3556,-2.3747,-2.3936,-2.4171,-2.4376,-2.4978,-2.5673,-2.6215,-2.6707,-2.6797,-2.7342,-2.7775,-2.8024,-2.8235,-2.8348,-2.8396,-2.8493,-2.8621,-2.8748,-2.8889,-2.9029,-2.9243,-2.9589,-3.0054,-3.0351,-3.0683,-3.1201,-3.1411,-3.1709,-3.1994,-3.2751,-3.3334,-3.4361,-3.5288,-3.6845,-3.7025,-3.6499,-3.6351,-3.6342,-3.6177,-3.6022,-3.6248,-3.6562,-3.6799,-3.6577,-3.6124,-3.6121,-3.5737,-3.5691,-3.5513,-3.5475,-3.5403,-3.5383,-3.5412,-3.5455,-3.5599,-3.5685,-3.5718,-3.5763,-3.5872,-3.5958,-3.5988,-3.6013,-3.6013,-3.6013,-3.6013,-3.6013,-3.601,-3.601,-3.601,-3.601,-3.601,-3.6016,-3.6018,-3.6018,-3.6016,-3.6016,-3.6003,-3.5995,-3.5974,-3.5926,-3.589,-3.5833,-3.5779,-3.5706,-3.6245,-3.6891,-1.9301,-1.9292,-1.9292,-1.9469,-1.9942,-2.1527,-2.3254,-2.4802,-2.4945,-2.5004,-2.5075,-2.4264,-2.4264,-2.4719,-2.3768,-2.3906,-2.4826,-2.4389,-2.4814,-2.5257,-2.492,-2.4846,-2.4598,-2.4178,-2.3754,-2.3353,-2.3223,-2.3437,-2.3556,-2.3747,-2.3936,-2.4216,-2.4708,-2.5077,-2.5231,-2.5467,-2.6,-2.6692,-2.7056,-2.7494,-2.7925,-2.8137,-2.8299,-2.8396,-2.8541,-2.8716,-2.8842,-2.8982,-2.9075,-2.9167,-2.9305,-2.9589,-2.9837,-3.007,-3.0601,-3.1162,-3.1691,-3.2312,-3.2895,-3.3424,-3.397,-3.4832,-3.5933,-3.5688,-3.5465,-3.5459,-3.5551,-3.528,-3.502,-3.5218,-3.5464,-3.5371,-3.5268,-3.5329,-3.5526,-3.5475,-3.5518,-3.5493,-3.5493,-3.5474,-3.5493,-3.5515,-3.556,-3.567,-3.5776,-3.5812,-3.5852,-3.5894,-3.5985,-3.5994,-3.6018,-3.6018,-3.6018,-3.6016,-3.6016,-3.6018,-3.6018,-3.6021,-3.6013,-3.6013,-3.6018,-3.6003,-3.6018,-3.6016,-3.6018,-3.6007,-3.5996,-3.5942,-3.5873,-3.5823,-3.5793,-3.5756,-3.5723,-3.6369,-3.7054,-1.9143,-1.9301,-1.9292,-1.9301,-1.9539,-2.076,-2.1669,-2.2264,-2.2328,-2.2542,-2.3147,-2.3073,-2.3305,-2.3294,-2.3672,-2.3746,-2.4014,-2.4236,-2.4294,-2.4431,-2.4393,-2.441,-2.4299,-2.3957,-2.3762,-2.3604,-2.3485,-2.3318,-2.3628,-2.3747,-2.3936,-2.4229,-2.4637,-2.4794,-2.4908,-2.4935,-2.5851,-2.6534,-2.6849,-2.7378,-2.7825,-2.8039,-2.8284,-2.8525,-2.8763,-2.8936,-2.9167,-2.935,-2.9486,-2.9592,-2.9853,-3.014,-3.0284,-3.0828,-3.1452,-3.1913,-3.2232,-3.2527,-3.2876,-3.3621,-3.4074,-3.4178,-3.4994,-3.5164,-3.495,-3.4892,-3.4992,-3.4673,-3.4543,-3.4839,-3.5077,-3.502,-3.5016,-3.5203,-3.5398,-3.5474,-3.552,-3.5515,-3.5528,-3.5509,-3.5528,-3.5635,-3.5684,-3.5763,-3.5859,-3.5898,-3.5928,-3.597,-3.5985,-3.5996,-3.6005,-3.6005,-3.6007,-3.6007,-3.6007,-3.6009,-3.6007,-3.6007,-3.6003,-3.6021,-3.6007,-3.6007,-3.6018,-3.6003,-3.601,-3.6013,-3.6015,-3.5942,-3.5854,-3.5811,-3.5762,-3.5742,-3.5847,-3.6455,-3.7042,-1.9152,-1.9292,-1.9292,-1.9292,-1.9371,-1.9913,-2.0304,-2.0527,-2.1288,-2.2027,-2.2499,-2.2424,-2.2414,-2.2744,-2.257,-2.2477,-2.2973,-2.2666,-2.2797,-2.3225,-2.342,-2.3335,-2.3372,-2.337,-2.318,-2.3095,-2.2997,-2.275,-2.3198,-2.3628,-2.3806,-2.4028,-2.4394,-2.4765,-2.4991,-2.5328,-2.5756,-2.6322,-2.6849,-2.7429,-2.781,-2.8186,-2.8558,-2.8748,-2.9029,-2.9213,-2.9486,-2.971,-2.977,-2.9918,-3.013,-3.0326,-3.0576,-3.1223,-3.1731,-3.2109,-3.2283,-3.2539,-3.2862,-3.3259,-3.3502,-3.3691,-3.4128,-3.4263,-3.4437,-3.4476,-3.4464,-3.4321,-3.4483,-3.4666,-3.485,-3.4999,-3.5171,-3.533,-3.5441,-3.5547,-3.5541,-3.5554,-3.5547,-3.556,-3.5608,-3.5725,-3.5793,-3.5891,-3.5927,-3.5942,-3.5965,-3.5988,-3.5994,-3.6013,-3.6007,-3.6012,-3.6013,-3.6013,-3.6013,-3.6013,-3.6014,-3.6013,-3.6012,-3.6012,-3.6013,-3.6015,-3.6016,-3.6016,-3.6015,-3.6014,-3.5993,-3.5903,-3.5824,-3.5789,-3.5732,-3.5674,-3.584,-3.6361,-3.6941,-1.9231,-1.9222,-1.9301,-1.9222,-1.9301,-1.9381,-1.9381,-1.952,-2.1283,-2.2339,-2.2254,-2.1897,-2.1824,-2.1733,-2.1174,-2.123,-2.1521,-2.1452,-2.1531,-2.1887,-2.2366,-2.2444,-2.235,-2.235,-2.2398,-2.191,-2.1889,-2.2384,-2.2714,-2.3198,-2.3675,-2.3872,-2.4593,-2.5075,-2.5313,-2.5619,-2.5988,-2.6297,-2.6849,-2.7464,-2.8076,-2.8637,-2.8982,-2.9029,-2.9075,-2.9213,-2.9425,-2.956,-2.9649,-2.9842,-3.0017,-3.0215,-3.0868,-3.1473,-3.1877,-3.2144,-3.242,-3.2654,-3.288,-3.3136,-3.3243,-3.3377,-3.3551,-3.3887,-3.4179,-3.432,-3.4301,-3.4377,-3.4564,-3.4733,-3.4926,-3.5086,-3.5251,-3.5388,-3.5495,-3.5573,-3.5598,-3.5611,-3.5642,-3.5647,-3.5723,-3.5805,-3.5885,-3.5957,-3.5976,-3.5976,-3.5996,-3.6013,-3.601,-3.6007,-3.6011,-3.6016,-3.6015,-3.6015,-3.6015,-3.6015,-3.6015,-3.6015,-3.6016,-3.6016,-3.6016,-3.6011,-3.6016,-3.6003,-3.601,-3.6003,-3.5962,-3.5884,-3.5805,-3.5731,-3.5666,-3.5611,-3.5861,-3.6228,-3.6652,-1.8683,-1.8851,-1.9002,-1.9082,-1.9073,-1.9222,-1.9371,-1.952,-1.9726,-1.9887,-1.9803,-2.0014,-2.0023,-1.9984,-2.037,-2.0503,-2.0222,-2.0434,-2.0672,-2.073,-2.107,-2.1419,-2.1439,-2.143,-2.169,-2.2081,-2.2163,-2.2137,-2.2714,-2.3198,-2.3721,-2.4279,-2.4821,-2.5131,-2.555,-2.5853,-2.6165,-2.6365,-2.6811,-2.7108,-2.7327,-2.7414,-2.7565,-2.84,-2.8889,-2.9289,-2.956,-2.9814,-2.9842,-2.9973,-2.9973,-3.046,-3.1249,-3.1897,-3.2385,-3.2687,-3.2752,-3.293,-3.3055,-3.3208,-3.3393,-3.3668,-3.3919,-3.4162,-3.4315,-3.4325,-3.439,-3.4524,-3.4653,-3.4851,-3.5051,-3.5184,-3.5326,-3.5449,-3.5566,-3.5591,-3.5623,-3.5654,-3.5697,-3.5753,-3.5824,-3.5889,-3.5958,-3.5996,-3.6016,-3.6016,-3.6016,-3.6007,-3.6011,-3.6013,-3.6014,-3.6009,-3.6005,-3.6005,-3.6012,-3.6015,-3.6013,-3.6011,-3.6011,-3.6011,-3.6012,-3.6007,-3.6018,-3.6013,-3.6013,-3.5988,-3.5938,-3.5877,-3.5776,-3.5704,-3.5623,-3.5554,-3.5528,-3.5817,-3.6254,-1.8099,-1.8255,-1.8401,-1.8524,-1.8578,-1.8738,-1.8825,-1.8852,-1.8729,-1.8414,-1.8313,-1.8844,-1.9033,-1.8781,-1.9502,-1.9705,-1.9312,-1.9442,-1.939,-1.9458,-1.9849,-2.0105,-2.0283,-2.0608,-2.0907,-2.1358,-2.1626,-2.1901,-2.2531,-2.2848,-2.3185,-2.4034,-2.4509,-2.5048,-2.5522,-2.5962,-2.6218,-2.6418,-2.6774,-2.6774,-2.6788,-2.7312,-2.7947,-2.8779,-2.9166,-2.9515,-2.9694,-2.9989,-3.0017,-3.0172,-3.0326,-3.0811,-3.1514,-3.2092,-3.257,-3.2898,-3.3055,-3.3147,-3.3286,-3.3444,-3.3662,-3.3943,-3.4117,-3.426,-3.4483,-3.452,-3.4586,-3.4711,-3.4851,-3.5034,-3.5184,-3.534,-3.5424,-3.5553,-3.5628,-3.567,-3.567,-3.5701,-3.5728,-3.5768,-3.5846,-3.5919,-3.5966,-3.5996,-3.6016,-3.6016,-3.6016,-3.6016,-3.6018,-3.5996,-3.5996,-3.6013,-3.6007,-3.601,-3.6003,-3.6009,-3.6009,-3.6005,-3.6021,-3.6021,-3.6005,-3.6005,-3.6021,-3.5994,-3.5981,-3.597,-3.5922,-3.5818,-3.5737,-3.5646,-3.5584,-3.5495,-3.5488,-3.546,-3.5767,-1.749,-1.753,-1.768,-1.7854,-1.7988,-1.7995,-1.807,-1.8067,-1.7979,-1.7853,-1.7605,-1.8209,-1.8604,-1.8562,-1.8591,-1.8479,-1.8486,-1.8566,-1.8349,-1.8657,-1.9183,-1.9442,-1.9754,-1.9965,-2.0325,-2.0649,-2.1031,-2.1336,-2.1714,-2.2161,-2.2775,-2.3505,-2.4195,-2.4851,-2.5591,-2.5948,-2.6111,-2.634,-2.6539,-2.6592,-2.7174,-2.7947,-2.84,-2.8935,-2.9393,-2.9738,-2.9886,-3.0017,-3.006,-3.0426,-3.074,-3.1244,-3.1735,-3.2265,-3.2716,-3.3037,-3.3226,-3.3327,-3.3462,-3.3577,-3.3842,-3.408,-3.4197,-3.4386,-3.4626,-3.473,-3.4811,-3.4926,-3.507,-3.5184,-3.5355,-3.547,-3.5546,-3.5604,-3.5665,-3.5697,-3.5697,-3.5727,-3.5768,-3.5811,-3.5884,-3.5951,-3.5976,-3.601,-3.6007,-3.6009,-3.6007,-3.6003,-3.5996,-3.5971,-3.5965,-3.5962,-3.5978,-3.5981,-3.5994,-3.5996,-3.6001,-3.6021,-3.6016,-3.6013,-3.6013,-3.6016,-3.5994,-3.5962,-3.5951,-3.5924,-3.5833,-3.5735,-3.5669,-3.5574,-3.5496,-3.5407,-3.5315,-3.5304,-3.532,-1.6994,-1.7078,-1.7203,-1.7374,-1.7421,-1.7592,-1.7748,-1.7779,-1.7479,-1.7415,-1.744,-1.7263,-1.7339,-1.7577,-1.8029,-1.8165,-1.8065,-1.7949,-1.8221,-1.8549,-1.8741,-1.9008,-1.9407,-1.9781,-2.0118,-2.0506,-2.1019,-2.14,-2.1588,-2.1987,-2.2653,-2.3505,-2.3741,-2.4381,-2.5175,-2.5577,-2.5865,-2.6165,-2.6553,-2.6712,-2.6855,-2.7342,-2.7458,-2.783,-2.8192,-2.8826,-2.9319,-2.9621,-2.9957,-3.0468,-3.1038,-3.1507,-3.195,-3.235,-3.2781,-3.316,-3.3327,-3.3473,-3.3587,-3.3753,-3.4023,-3.426,-3.442,-3.4651,-3.485,-3.4983,-3.5054,-3.5138,-3.5266,-3.5383,-3.5528,-3.5577,-3.5654,-3.5659,-3.5708,-3.5704,-3.571,-3.5779,-3.5858,-3.588,-3.5912,-3.5976,-3.5987,-3.5999,-3.5999,-3.5999,-3.5996,-3.5991,-3.5985,-3.5939,-3.5951,-3.5947,-3.5962,-3.5974,-3.5988,-3.5988,-3.5991,-3.601,-3.5988,-3.5958,-3.5958,-3.601,-3.5985,-3.589,-3.5864,-3.5833,-3.5741,-3.5631,-3.5535,-3.5464,-3.5383,-3.53,-3.5203,-3.5272,-3.5405]}]]